[[{"header":{"parameterUnit":"m.s-1","parameterCategory":1,"la1":30.6,"la2":28.766,"lo1":-90.7593,"lo2":-88.6598,"dy":0.0162,"dx":0.0183,"nx":116,"ny":114,"refTime":"2023-10-05T12:00:00:Z","depth":0,"parameterNumber":2,"parameterNumberName":"U-component_of_WINDS"},"data":[0.0,0.0,0.0,0.0,0.0,0.0,0.0,0.0,0.0,0.0,0.0,0.0,0.0,0.0,0.0,0.0,0.0,0.0,0.0,0.0,0.0,0.0,0.0,0.0,0.0,0.0,0.0,0.0,0.0,0.0,0.0,0.0,0.0,0.0,0.0,0.0,0.0,0.0,0.0,0.0,0.0,0.0,0.0,0.0,0.0,0.0,0.0,0.0,0.0,0.0,0.0,0.0,0.0,0.0,0.0,0.0,0.0,0.0,0.0,0.0,0.0,0.0,0.0,0.0,0.0,0.0,0.0,0.0,0.0,0.0,0.0,0.0,0.0,0.0,0.0,0.0,0.0,0.0,0.0,0.0,0.0,0.0,0.0,0.0,0.0,0.0,0.0,0.0,0.0,0.0,0.0,0.0,0.0,0.0,0.0,0.0,0.0,0.0,0.0,0.0,0.0,0.0,0.0,0.0,0.0,0.0,0.0,0.0,0.0,0.0,0.0,0.0,0.0,0.0,0.0,0.0,0.0,0.0,0.0,0.0,0.0,0.0,0.0,0.0,0.0,0.0,0.0,0.0,0.0,0.0,0.0,0.0,0.0,0.0,0.0,0.0,0.0,0.0,0.0,0.0,0.0,0.0,0.0,0.0,0.0,0.0,0.0,0.0,0.0,0.0,0.0,0.0,0.0,0.0,0.0,0.0,0.0,0.0,0.0,0.0,0.0,0.0,0.0,0.0,0.0,0.0,0.0,0.0,0.0,0.0,0.0,0.0,0.0,0.0,0.0,0.0,0.0,0.0,0.0,0.0,0.0,0.0,0.0,0.0,0.0,0.0,0.0,0.0,0.0,0.0,0.0,0.0,0.0,0.0,0.0,0.0,0.0,0.0,0.0,0.0,0.0,0.0,0.0,0.0,0.0,0.0,0.0,0.0,0.0,0.0,0.0,0.0,0.0,0.0,0.0,0.0,0.0,0.0,0.0,0.0,0.0,0.0,0.0,0.0,0.0,0.0,0.0,0.0,0.0,0.0,0.0,0.0,0.0,0.0,0.0,0.0,0.0,0.0,0.0,0.0,0.0,0.0,0.0,0.0,0.0,0.0,0.0,0.0,0.0,0.0,0.0,0.0,0.0,0.0,0.0,0.0,0.0,0.0,0.0,0.0,0.0,0.0,0.0,0.0,0.0,0.0,0.0,0.0,0.0,0.0,0.0,0.0,0.0,0.0,0.0,0.0,0.0,0.0,0.0,0.0,0.0,0.0,0.0,0.0,0.0,0.0,0.0,0.0,0.0,0.0,0.0,0.0,0.0,0.0,0.0,0.0,0.0,0.0,0.0,0.0,0.0,0.0,0.0,0.0,0.0,0.0,0.0,0.0,0.0,0.0,0.0,0.0,0.0,0.0,0.0,0.0,0.0,0.0,0.0,0.0,0.0,0.0,0.0,0.0,0.0,0.0,0.0,0.0,0.0,0.0,0.0,0.0,0.0,0.0,0.0,0.0,0.0,0.0,0.0,0.0,0.0,0.0,0.0,0.0,0.0,0.0,0.0,0.0,0.0,0.0,0.0,0.0,0.0,0.0,0.0,0.0,0.0,0.0,0.0,0.0,0.0,0.0,0.0,0.0,0.0,0.0,0.0,0.0,0.0,0.0,0.0,0.0,0.0,0.0,0.0,0.0,0.0,0.0,0.0,0.0,0.0,0.0,0.0,0.0,0.0,0.0,0.0,0.0,0.0,0.0,0.0,0.0,0.0,0.0,0.0,0.0,0.0,0.0,0.0,0.0,0.0,0.0,0.0,0.0,0.0,0.0,0.0,0.0,0.0,0.0,0.0,0.0,0.0,0.0,0.0,0.0,0.0,0.0,0.0,0.0,0.0,0.0,0.0,0.0,0.0,0.0,0.0,0.0,0.0,0.0,0.0,0.0,0.0,0.0,0.0,0.0,0.0,0.0,0.0,0.0,0.0,0.0,0.0,0.0,0.0,0.0,0.0,0.0,0.0,0.0,0.0,0.0,0.0,0.0,0.0,0.0,0.0,0.0,0.0,0.0,0.0,0.0,0.0,0.0,0.0,0.0,0.0,0.0,0.0,0.0,0.0,0.0,0.0,0.0,0.0,0.0,0.0,0.0,0.0,0.0,0.0,0.0,0.0,0.0,0.0,0.0,0.0,0.0,0.0,0.0,0.0,0.0,0.0,0.0,0.0,0.0,0.0,0.0,0.0,0.0,0.0,0.0,0.0,0.0,0.0,0.0,0.0,0.0,0.0,0.0,0.0,0.0,0.0,0.0,0.0,0.0,0.0,0.0,0.0,0.0,0.0,0.0,0.0,0.0,0.0,0.0,0.0,0.0,0.0,0.0,0.0,0.0,0.0,0.0,0.0,0.0,0.0,0.0,0.0,0.0,0.0,0.0,0.0,0.0,0.0,0.0,0.0,0.0,0.0,0.0,0.0,0.0,0.0,0.0,0.0,0.0,0.0,0.0,0.0,0.0,0.0,0.0,0.0,0.0,0.0,0.0,0.0,0.0,0.0,0.0,0.0,0.0,0.0,0.0,0.0,0.0,0.0,0.0,0.0,0.0,0.0,0.0,0.0,0.0,0.0,0.0,0.0,0.0,0.0,0.0,0.0,0.0,0.0,0.0,0.0,0.0,0.0,0.0,0.0,0.0,0.0,0.0,0.0,0.0,0.0,0.0,0.0,0.0,0.0,0.0,0.0,0.0,0.0,0.0,0.0,0.0,0.0,0.0,0.0,0.0,0.0,0.0,0.0,0.0,0.0,0.0,0.0,0.0,0.0,0.0,0.0,0.0,0.0,0.0,0.0,0.0,0.0,0.0,0.0,0.0,0.0,0.0,0.0,0.0,0.0,0.0,0.0,0.0,0.0,0.0,0.0,0.0,0.0,0.0,0.0,0.0,0.0,0.0,0.0,0.0,0.0,0.0,0.0,0.0,0.0,0.0,0.0,0.0,0.0,0.0,0.0,0.0,0.0,0.0,0.0,0.0,0.0,0.0,0.0,0.0,0.0,0.0,0.0,0.0,0.0,0.0,0.0,0.0,0.0,0.0,0.0,0.0,0.0,0.0,0.0,0.0,0.0,0.0,0.0,0.0,0.0,0.0,0.0,0.0,0.0,0.0,0.0,0.0,0.0,0.0,0.0,0.0,0.0,0.0,0.0,0.0,0.0,0.0,0.0,0.0,0.0,0.0,0.0,0.0,0.0,0.0,0.0,0.0,0.0,0.0,0.0,0.0,0.0,0.0,0.0,0.0,0.0,0.0,0.0,0.0,0.0,0.0,0.0,0.0,0.0,0.0,0.0,0.0,0.0,0.0,0.0,0.0,0.0,0.0,0.0,0.0,0.0,0.0,0.0,0.0,0.0,0.0,0.0,0.0,0.0,0.0,0.0,0.0,0.0,0.0,0.0,0.0,0.0,0.0,0.0,0.0,0.0,0.0,0.0,0.0,0.0,0.0,0.0,0.0,0.0,0.0,0.0,0.0,0.0,0.0,0.0,0.0,0.0,0.0,0.0,0.0,0.0,0.0,0.0,0.0,0.0,0.0,0.0,0.0,0.0,0.0,0.0,0.0,0.0,0.0,0.0,0.0,0.0,0.0,0.0,0.0,0.0,0.0,0.0,0.0,0.0,0.0,0.0,0.0,0.0,0.0,0.0,0.0,0.0,0.0,0.0,0.0,0.0,0.0,0.0,0.0,0.0,0.0,0.0,0.0,0.0,0.0,0.0,0.0,0.0,0.0,0.0,0.0,0.0,0.0,0.0,0.0,0.0,0.0,0.0,0.0,0.0,0.0,0.0,0.0,0.0,0.0,0.0,0.0,0.0,0.0,0.0,0.0,0.0,0.0,0.0,0.0,0.0,0.0,0.0,0.0,0.0,0.0,0.0,0.0,0.0,0.0,0.0,0.0,0.0,0.0,0.0,0.0,0.0,0.0,0.0,0.0,0.0,0.0,0.0,0.0,0.0,0.0,0.0,0.0,0.0,0.0,0.0,0.0,0.0,0.0,0.0,0.0,0.0,0.0,0.0,0.0,0.0,0.0,0.0,0.0,0.0,0.0,0.0,0.0,0.0,0.0,0.0,0.0,0.0,0.0,0.0,0.0,0.0,0.0,0.0,0.0,0.0,0.0,0.0,0.0,0.0,0.0,0.0,0.0,0.0,0.0,0.0,0.0,0.0,0.0,0.0,0.0,0.0,0.0,0.0,0.0,0.0,0.0,0.0,0.0,0.0,0.0,0.0,0.0,0.0,0.0,0.0,0.0,0.0,0.0,0.0,0.0,0.0,0.0,0.0,0.0,0.0,0.0,0.0,0.0,0.0,0.0,0.0,0.0,0.0,0.0,0.0,0.0,0.0,0.0,0.0,0.0,0.0,0.0,0.0,0.0,0.0,0.0,0.0,0.0,0.0,0.0,0.0,0.0,0.0,0.0,0.0,0.0,0.0,0.0,0.0,0.0,0.0,0.0,0.0,0.0,0.0,0.0,0.0,0.0,0.0,0.0,0.0,0.0,0.0,0.0,0.0,0.0,0.0,0.0,0.0,0.0,0.0,0.0,0.0,0.0,0.0,0.0,0.0,0.0,0.0,0.0,0.0,0.0,0.0,0.0,0.0,0.0,0.0,0.0,0.0,0.0,0.0,0.0,0.0,0.0,0.0,0.0,0.0,0.0,0.0,0.0,0.0,0.0,0.0,0.0,0.0,0.0,0.0,0.0,0.0,0.0,0.0,0.0,0.0,0.0,0.0,0.0,0.0,0.0,0.0,0.0,0.0,0.0,0.0,0.0,0.0,0.0,0.0,0.0,0.0,0.0,0.0,0.0,0.0,0.0,0.0,0.0,0.0,0.0,0.0,0.0,0.0,0.0,0.0,0.0,0.0,0.0,0.0,0.0,0.0,0.0,0.0,0.0,0.0,0.0,0.0,0.0,0.0,0.0,0.0,0.0,0.0,0.0,0.0,0.0,0.0,0.0,0.0,0.0,0.0,0.0,0.0,0.0,0.0,0.0,0.0,0.0,0.0,0.0,0.0,0.0,0.0,0.0,0.0,0.0,0.0,0.0,0.0,0.0,0.0,0.0,0.0,0.0,0.0,0.0,0.0,0.0,0.0,0.0,0.0,0.0,0.0,0.0,0.0,0.0,0.0,0.0,0.0,0.0,0.0,0.0,0.0,0.0,0.0,0.0,0.0,0.0,0.0,0.0,0.0,0.0,0.0,0.0,0.0,0.0,0.0,0.0,0.0,0.0,0.0,0.0,0.0,0.0,0.0,0.0,0.0,0.0,0.0,0.0,0.0,0.0,0.0,0.0,0.0,0.0,0.0,0.0,0.0,0.0,0.0,0.0,0.0,0.0,0.0,0.0,0.0,0.0,0.0,0.0,0.0,0.0,0.0,0.0,0.0,0.0,0.0,0.0,0.0,0.0,0.0,0.0,0.0,0.0,0.0,0.0,0.0,0.0,0.0,0.0,0.0,0.0,0.0,0.0,0.0,0.0,0.0,0.0,0.0,0.0,0.0,0.0,0.0,0.0,0.0,0.0,0.0,0.0,0.0,0.0,0.0,0.0,0.0,0.0,0.0,0.0,0.0,0.0,0.0,0.0,0.0,0.0,0.0,0.0,0.0,0.0,0.0,0.0,0.0,0.0,0.0,0.0,0.0,0.0,0.0,0.0,0.0,0.0,0.0,0.0,0.0,0.0,0.0,0.0,0.0,0.0,0.0,0.0,0.0,0.0,0.0,0.0,0.0,0.0,0.0,0.0,0.0,0.0,0.0,0.0,0.0,0.0,0.0,0.0,0.0,0.0,0.0,0.0,0.0,0.0,0.0,0.0,0.0,0.0,0.0,0.0,0.0,0.0,0.0,0.0,0.0,0.0,0.0,0.0,0.0,0.0,0.0,0.0,0.0,0.0,0.0,0.0,0.0,0.0,0.0,0.0,0.0,0.0,0.0,0.0,0.0,0.0,0.0,0.0,0.0,0.0,0.0,0.0,0.0,0.0,0.0,0.0,0.0,0.0,0.0,0.0,0.0,0.0,0.0,0.0,0.0,0.0,0.0,0.0,0.0,0.0,0.0,0.0,0.0,0.0,0.0,0.0,0.0,0.0,-3.8596,0.0,0.0,0.0,0.0,0.0,0.0,0.0,0.0,0.0,0.0,0.0,0.0,0.0,0.0,0.0,0.0,0.0,0.0,0.0,0.0,0.0,0.0,0.0,0.0,0.0,0.0,0.0,0.0,0.0,0.0,0.0,0.0,0.0,0.0,0.0,0.0,0.0,0.0,-3.1453,-3.0808,-3.0557,-3.0703,-3.2039,-3.2547,-3.2349,0.0,0.0,0.0,0.0,0.0,0.0,0.0,0.0,0.0,0.0,0.0,0.0,0.0,0.0,0.0,0.0,0.0,0.0,0.0,0.0,0.0,0.0,0.0,0.0,0.0,0.0,0.0,0.0,0.0,0.0,0.0,0.0,0.0,0.0,0.0,0.0,0.0,0.0,0.0,0.0,0.0,0.0,0.0,0.0,0.0,0.0,0.0,0.0,0.0,0.0,0.0,0.0,0.0,0.0,0.0,0.0,0.0,0.0,0.0,0.0,0.0,0.0,0.0,0.0,0.0,0.0,0.0,0.0,0.0,0.0,0.0,-3.8184,0.0,0.0,0.0,0.0,0.0,0.0,0.0,0.0,0.0,0.0,0.0,0.0,0.0,0.0,0.0,0.0,0.0,0.0,0.0,0.0,0.0,0.0,0.0,-3.3652,-3.4921,-3.4802,-3.5271,-3.5279,0.0,0.0,0.0,0.0,0.0,0.0,-3.2967,-3.1568,-3.1395,-3.2541,-3.1388,-3.0977,-3.1254,-3.1842,-3.1994,-3.1861,-3.2881,0.0,0.0,0.0,0.0,0.0,0.0,0.0,0.0,0.0,0.0,0.0,0.0,0.0,0.0,0.0,0.0,0.0,0.0,0.0,0.0,0.0,0.0,0.0,0.0,0.0,0.0,0.0,0.0,0.0,0.0,0.0,0.0,0.0,0.0,0.0,0.0,0.0,0.0,0.0,0.0,0.0,0.0,0.0,0.0,0.0,0.0,0.0,0.0,0.0,0.0,0.0,0.0,0.0,0.0,0.0,0.0,0.0,0.0,0.0,0.0,0.0,0.0,0.0,-3.6361,-3.6957,-3.7811,-3.7919,-3.8088,-3.8334,-3.8806,-3.9425,-3.9911,0.0,0.0,0.0,0.0,0.0,0.0,0.0,0.0,0.0,0.0,0.0,0.0,0.0,0.0,0.0,0.0,0.0,0.0,0.0,0.0,-2.9666,-3.1197,-3.3443,-3.448,-3.3622,-3.4945,-3.492,-3.2719,0.0,0.0,0.0,0.0,0.0,-3.2068,-3.1842,-3.1556,-3.1156,-3.0984,-3.0944,-3.1053,-3.2102,-3.2353,-3.1927,-3.3066,-3.3472,-3.3278,0.0,0.0,0.0,0.0,0.0,0.0,0.0,0.0,0.0,0.0,0.0,0.0,0.0,0.0,0.0,0.0,0.0,0.0,0.0,0.0,0.0,0.0,0.0,0.0,0.0,0.0,0.0,0.0,0.0,0.0,0.0,0.0,0.0,0.0,0.0,0.0,0.0,0.0,0.0,0.0,0.0,-3.7243,-3.5935,0.0,0.0,0.0,0.0,0.0,0.0,0.0,0.0,0.0,0.0,0.0,0.0,0.0,-3.5965,-3.6989,-3.7187,-3.7174,-3.6845,-3.8509,-3.9084,-3.874,-3.9269,-4.0039,-4.0944,-4.0064,0.0,-3.713,-3.6135,0.0,0.0,0.0,0.0,0.0,0.0,0.0,0.0,0.0,0.0,0.0,0.0,0.0,0.0,0.0,0.0,0.0,0.0,0.0,0.0,0.0,-3.2215,-3.3364,-3.299,-3.3752,-3.3416,-3.1422,-3.1923,0.0,0.0,0.0,-3.157,-3.139,-3.1355,-3.0869,-2.9887,-3.0217,-3.014,-2.9659,-3.0373,-3.101,-3.1539,-3.2532,-3.301,-3.3103,-3.2816,0.0,0.0,0.0,0.0,0.0,0.0,0.0,0.0,0.0,0.0,0.0,0.0,0.0,0.0,0.0,0.0,0.0,0.0,0.0,0.0,0.0,0.0,0.0,0.0,0.0,0.0,0.0,0.0,0.0,0.0,0.0,0.0,0.0,0.0,0.0,0.0,0.0,0.0,0.0,-3.663,-3.8174,-3.6241,-3.5862,-3.4805,0.0,0.0,0.0,0.0,0.0,0.0,0.0,0.0,0.0,-3.5907,-3.6354,-3.6975,-3.784,-3.8225,-3.8293,-3.8098,-3.8889,-3.9323,-3.9351,-3.9607,-3.9995,-4.0409,-3.9262,-3.8269,-3.7397,-3.7276,-3.6509,-3.5367,0.0,0.0,0.0,0.0,-3.7497,-3.8278,0.0,0.0,0.0,0.0,0.0,0.0,0.0,0.0,0.0,0.0,0.0,0.0,-2.8725,-3.0235,-3.1197,-3.1444,-3.1745,-3.1179,-2.9399,-2.9766,-2.9635,-2.868,-2.9444,-3.0003,-3.0235,-3.0258,-2.9813,-2.8925,-2.9547,-2.9481,-2.8835,-2.9393,-3.0113,-3.0953,-3.1596,-3.2515,-3.3518,-3.3083,-3.198,-3.057,0.0,0.0,0.0,0.0,0.0,0.0,0.0,0.0,0.0,0.0,0.0,0.0,0.0,0.0,0.0,0.0,0.0,0.0,0.0,0.0,0.0,0.0,0.0,0.0,0.0,0.0,0.0,0.0,0.0,0.0,0.0,0.0,0.0,0.0,0.0,0.0,0.0,-3.6548,-3.8581,-3.8993,-3.6997,-3.4357,0.0,0.0,0.0,0.0,0.0,0.0,-3.4153,-3.4724,-3.5766,-3.7309,-3.7777,-3.8228,-3.8642,-3.9082,-3.922,-3.9082,-3.9082,-3.9295,-3.9697,-3.9697,-3.9622,-3.9433,-3.8592,-3.8065,-3.781,-3.7693,-3.6974,-3.594,-3.5859,-3.6154,-3.6713,-3.7266,-3.799,-3.8767,0.0,0.0,0.0,0.0,0.0,0.0,0.0,0.0,0.0,0.0,0.0,-2.5597,-2.7137,-2.7282,-2.7498,-2.8104,-2.8665,-2.8096,-2.5917,-2.6331,-2.6495,-2.6086,-2.664,-2.7324,-2.8234,-2.8441,-2.8493,-2.8432,-2.9087,-2.9408,-2.9385,-3.0442,-3.0692,-3.0242,-3.0289,-3.2211,-3.5254,-3.3207,-3.2249,-3.1913,-2.9753,0.0,0.0,0.0,0.0,0.0,0.0,0.0,0.0,0.0,0.0,0.0,0.0,0.0,0.0,0.0,0.0,0.0,0.0,0.0,0.0,0.0,0.0,0.0,0.0,0.0,0.0,0.0,0.0,0.0,0.0,0.0,0.0,0.0,0.0,0.0,0.0,0.0,0.0,-4.5881,-4.0709,0.0,0.0,0.0,0.0,-3.3421,-3.3958,-3.4322,-3.4666,-3.6175,-3.7597,-3.8768,-3.9772,-4.0362,-4.0388,-4.0413,-4.0174,-3.9647,-3.9647,-3.9672,-3.9697,-3.9697,-3.9408,-3.8957,-3.8906,-3.8216,-3.7098,-3.5533,-3.5378,-3.5978,-3.4976,-3.5143,-3.5959,-3.5986,-3.6105,-3.6277,0.0,0.0,0.0,0.0,0.0,0.0,0.0,0.0,-2.4297,-2.3979,-2.4008,-2.4408,-2.5354,-2.5952,-2.6539,-2.7212,-2.701,-2.5928,-2.3724,-2.4083,-2.4279,-2.3933,-2.4491,-2.5207,-2.6018,-2.5163,-2.4736,-2.4719,-2.4555,-2.4735,-2.529,-2.6251,-2.7352,-2.8603,-2.9181,-3.0631,-3.251,-3.1136,-3.0189,-2.9545,-2.8679,-2.7769,0.0,0.0,0.0,0.0,0.0,0.0,0.0,0.0,0.0,0.0,0.0,0.0,0.0,0.0,0.0,0.0,0.0,0.0,0.0,0.0,0.0,0.0,0.0,0.0,0.0,0.0,0.0,0.0,0.0,0.0,0.0,0.0,0.0,0.0,0.0,0.0,0.0,-4.186,-3.9686,0.0,-3.2845,-3.1873,-3.2162,-3.3882,-3.5474,-3.6654,-3.7385,-3.8617,-3.9835,-4.1006,-4.1421,-4.1404,-4.1,-4.0987,-4.0588,-3.9697,-3.9697,-3.9697,-3.9685,-3.932,-3.9057,-3.8881,-3.8103,-3.7563,-3.7111,-3.6169,-3.5739,-3.5678,-3.5271,-3.5565,-3.6236,-3.6652,-3.7282,-3.791,0.0,0.0,0.0,0.0,0.0,0.0,0.0,-2.5023,-2.3522,-2.3317,-2.2641,-2.2364,-2.2909,-2.3073,-2.3515,-2.4319,-2.3647,-2.2463,-2.085,-2.1167,-2.1202,-2.0663,-2.1706,-2.2693,-2.3495,-2.2669,-2.2235,-2.2108,-2.1845,-2.192,-2.2407,-2.2965,-2.4005,-2.5403,-2.5995,-2.68,-2.7693,-2.7797,-2.8146,-2.8646,-2.8673,-2.7923,-2.7143,0.0,0.0,0.0,0.0,0.0,0.0,0.0,0.0,0.0,0.0,0.0,0.0,0.0,0.0,0.0,0.0,0.0,0.0,0.0,0.0,0.0,0.0,0.0,0.0,0.0,0.0,0.0,0.0,0.0,0.0,0.0,0.0,0.0,0.0,0.0,-3.6756,-3.9379,-3.9212,-3.7956,-3.5582,-3.4616,-3.473,-3.5937,-3.7197,-3.8377,-3.95,-4.0302,-4.104,-4.158,-4.22,-4.1995,-4.1012,-4.12,-4.0736,-3.9697,-3.9509,-3.9421,-3.9396,-3.8831,-3.8479,-3.8266,-3.7513,-3.7073,-3.6908,-3.6307,-3.5768,-3.5303,-3.6057,-3.6347,-3.6441,-3.7691,-3.8372,-3.8544,0.0,0.0,0.0,0.0,0.0,0.0,-2.6503,-2.4827,-2.3412,-2.2926,-2.0777,-1.9461,-1.9908,-1.8661,-1.8257,-1.9364,-1.8559,-1.7788,-1.7277,-1.7501,-1.7215,-1.6374,-1.82,-1.9687,-2.0553,-2.0982,-2.1062,-2.0834,-2.1286,-2.1378,-2.1114,-2.1122,-2.0989,-2.0793,-2.0802,-2.0953,-2.1303,-2.3374,-2.6239,-2.9407,-2.9652,-2.8488,-2.6936,0.0,0.0,0.0,0.0,0.0,0.0,0.0,0.0,0.0,0.0,0.0,0.0,0.0,0.0,0.0,0.0,0.0,0.0,0.0,0.0,0.0,0.0,0.0,0.0,0.0,0.0,0.0,0.0,0.0,0.0,0.0,0.0,0.0,-2.9992,-3.3707,-3.7226,-3.9443,-3.9709,-3.9695,-3.9694,-3.9709,-3.9671,-3.9576,-3.8994,-3.9246,-4.063,-4.1062,-4.1037,-4.0563,-4.2095,-4.2158,-4.0538,-4.0987,-4.0711,-3.9685,-3.9145,-3.8944,-3.8906,-3.8278,-3.7701,-3.7186,-3.7161,-3.6908,-3.6367,-3.5793,-3.5194,-3.4904,-3.715,-3.7279,-3.6498,-3.8883,-3.8999,-3.773,0.0,0.0,0.0,0.0,0.0,0.0,-2.6011,-2.4506,-2.2987,-2.1877,-2.0114,-1.8998,-1.9128,-1.8306,-1.8029,-1.8769,-1.7929,-1.7048,-1.6339,-1.6048,-1.5531,-1.4772,-1.5607,-1.5922,-1.5584,-1.6137,-1.6411,-1.6496,-1.7566,-1.8357,-1.8964,-1.9251,-1.9708,-2.0323,-2.0637,-2.086,-2.1009,-2.233,-2.4402,-2.6829,-2.7878,-2.8503,-2.8787,0.0,0.0,0.0,0.0,0.0,0.0,0.0,0.0,0.0,0.0,0.0,0.0,0.0,0.0,0.0,0.0,0.0,0.0,0.0,0.0,0.0,0.0,0.0,0.0,0.0,0.0,0.0,0.0,0.0,0.0,0.0,0.0,-3.0111,-3.4028,-3.5618,-3.7206,-3.9433,-3.9725,-3.9714,-3.9689,-3.9728,-3.8835,-3.6682,-3.8282,-3.9269,-3.9017,-4.0484,-4.1213,-4.1062,-4.1555,-4.1379,-4.0526,-4.0664,-4.0388,-3.9697,-3.9534,-3.9258,-3.8906,-3.8278,-3.7701,-3.7161,-3.6807,-3.6556,-3.6405,-3.6194,-3.5579,-3.4751,-3.539,-3.5207,-3.4716,-3.5717,-3.5657,-3.4916,0.0,0.0,0.0,0.0,0.0,0.0,-2.4841,-2.3518,-2.2022,-2.0539,-1.9008,-1.7758,-1.6977,-1.6246,-1.599,-1.6488,-1.535,-1.4572,-1.4402,-1.3741,-1.3352,-1.3364,-1.3274,-1.3202,-1.3105,-1.3419,-1.3729,-1.3982,-1.4704,-1.527,-1.5726,-1.593,-1.6579,-1.7523,-1.7809,-1.8323,-1.9028,-2.0416,-2.1522,-2.2588,-2.5631,-2.7363,-2.7971,-2.713,-2.6324,-2.5755,-2.6071,-2.5699,-2.5282,-2.6774,0.0,0.0,0.0,0.0,0.0,0.0,0.0,0.0,0.0,0.0,0.0,0.0,0.0,0.0,0.0,0.0,0.0,0.0,0.0,0.0,0.0,0.0,0.0,0.0,-3.016,-3.051,-3.3667,-3.6211,-3.8249,-3.9547,-3.969,-3.9689,-3.9689,-3.9712,-3.9005,-3.7271,-3.7581,-3.7769,-3.7667,-3.9164,-3.9918,-3.975,-4.0126,-4.0327,-4.0174,-4.04,-4.0237,-3.9697,-3.9459,-3.9057,-3.8492,-3.7927,-3.7362,0.0,-3.6556,-3.6405,-3.6367,-3.5855,-3.5303,0.0,0.0,0.0,0.0,0.0,-3.528,-3.4529,0.0,0.0,0.0,0.0,0.0,0.0,-2.3375,-2.2377,-2.1042,-1.9264,-1.7822,-1.6231,-1.4272,-1.3335,-1.2942,-1.3299,-1.1959,-1.1399,-1.2144,-1.1275,-1.1072,-1.1905,-1.1217,-1.1134,-1.1879,-1.2069,-1.2259,-1.248,-1.2633,-1.2582,-1.2343,-1.2343,-1.2822,-1.3686,-1.3788,-1.4661,-1.6142,-1.7657,-1.7967,-1.7802,-2.2658,-2.5051,-2.5905,-2.7641,-2.7318,-2.5996,-2.5765,-2.4726,-2.3915,-2.721,0.0,0.0,0.0,0.0,0.0,0.0,0.0,0.0,0.0,0.0,0.0,0.0,0.0,0.0,0.0,0.0,0.0,0.0,0.0,0.0,0.0,0.0,0.0,0.0,-3.2568,-3.1672,-3.1008,-3.5387,-3.8879,-3.9281,-3.9309,-3.9449,-3.9702,-3.9689,-3.9686,-3.9721,-3.696,-3.5649,-3.6519,0.0,0.0,0.0,0.0,-3.8864,-3.9206,-3.9847,-3.99,-3.9465,-3.9081,-3.8567,-3.799,-3.7437,-3.6933,-3.6405,-3.6342,-3.6317,-3.6241,-3.5152,-3.4643,-3.4753,-3.6241,-3.5894,-3.4688,-3.6212,-3.61,-3.5121,0.0,0.0,0.0,0.0,0.0,0.0,-2.2674,-2.2709,-2.1923,-1.9483,-1.7726,-1.5806,-1.3473,-1.1614,-1.0829,-1.1608,-1.0991,-1.0809,-1.137,-1.0735,-1.0135,-0.9723,-0.9133,-0.8864,-0.887,-1.0042,-1.061,-1.055,-1.1584,-1.2051,-1.2011,-1.2011,-1.2088,-1.2334,-1.3018,-1.3511,-1.38,-1.3445,-1.4418,-1.6252,-1.7309,-2.0906,-2.5886,-2.7627,-2.8101,-2.7627,-2.622,-2.549,-2.5509,-2.7589,-2.8423,-2.8297,-2.6448,-2.4888,0.0,0.0,0.0,0.0,0.0,0.0,0.0,0.0,0.0,0.0,0.0,0.0,0.0,0.0,0.0,0.0,0.0,0.0,0.0,-3.5971,-3.7023,-3.6327,-3.1584,-3.187,-3.3689,-3.6661,-3.7057,-3.7739,-3.9538,-3.9675,-3.969,-3.9699,-3.6987,-3.5403,-3.5582,-3.574,-3.5829,-3.5727,-3.592,-3.6084,-3.6174,-3.7411,-3.801,-3.7954,0.0,0.0,-3.799,-3.7437,-3.6933,-3.638,-3.5893,-3.5658,-3.5608,-3.4989,-3.4462,-3.4067,-3.3976,-3.372,-3.3454,-3.3756,-3.3458,-3.2764,0.0,0.0,0.0,0.0,0.0,0.0,-2.1903,-2.1789,-2.1237,-1.9806,-1.7977,-1.6182,-1.4444,-1.2798,-1.1768,-1.1723,-1.0626,-0.9573,-0.8657,-0.8978,-0.8677,-0.7506,-0.7897,-0.8119,-0.7992,-0.8703,-0.9049,-0.9019,-0.9653,-0.9948,-0.9948,-0.9948,-1.0391,-1.1287,-1.1702,-1.2152,-1.2629,-1.3479,-1.3105,-1.2111,-1.4747,-1.7775,-2.0947,-2.304,-2.3878,-2.4113,-2.6231,-2.699,-2.7109,-2.7999,-2.8274,-2.8155,-2.7259,-2.6412,-2.5535,0.0,0.0,0.0,0.0,0.0,0.0,0.0,0.0,0.0,0.0,0.0,0.0,0.0,0.0,-3.3938,0.0,0.0,-3.8693,-3.8163,-3.8993,-3.8678,-3.5722,-3.2754,-3.2693,-3.7451,-3.7087,-3.6824,-3.7953,-3.8027,-3.8279,-3.883,-3.7326,-3.6084,-3.5353,-3.4998,-3.4637,-3.4225,-3.4181,-3.4781,-3.5998,-3.6756,-3.732,-3.7751,-3.8241,-3.799,-3.7174,-3.6945,-3.632,-3.5529,-3.5253,-3.5094,-3.5044,-3.4537,-3.3985,-3.3458,-3.3181,-3.3124,-3.3043,-3.2754,-3.2641,-3.2491,0.0,0.0,0.0,0.0,0.0,0.0,0.0,-2.0944,-2.0498,-1.994,-1.8415,-1.6804,-1.5366,-1.4108,-1.2865,-1.1662,-1.0438,-0.8688,-0.6231,-0.7251,-0.7211,-0.5516,-0.6606,-0.7232,-0.7232,-0.7232,-0.7332,-0.7587,-0.7587,-0.7739,-0.7988,-0.7988,-0.8733,-1.0072,-1.0072,-1.0502,-1.1272,-1.3378,-1.1838,-0.8353,-1.2595,-1.4899,-1.5995,-1.7946,-1.8851,-1.9733,-2.475,-2.6564,-2.6591,-2.6545,-2.6582,-2.6576,-2.6563,-2.7369,-2.781,-2.5251,-2.3825,0.0,0.0,0.0,0.0,0.0,0.0,0.0,0.0,0.0,-3.1121,-3.2759,-3.474,-3.6443,-3.7366,-3.7977,-3.8585,-3.9347,-3.961,-3.9596,-3.9385,-3.5091,-3.3742,-3.8474,-3.7481,-3.6419,-3.6403,-3.6406,-3.6789,-3.7629,-3.7233,-3.6471,-3.5441,-3.44,-3.3552,-3.285,-3.2534,-3.3493,-3.5678,-3.5992,-3.6645,-3.7581,-3.7641,-3.7224,-3.6405,-3.6179,-3.5554,-3.4668,-3.4613,-3.45,-3.4374,-3.3922,-3.3483,-3.3124,-3.3124,-3.3124,-3.3048,-3.2428,-3.2441,-3.2541,0.0,0.0,0.0,0.0,0.0,0.0,0.0,0.0,-2.1239,-1.9575,-1.8715,-1.7216,-1.4475,-1.2937,-1.1319,-0.934,-0.999,-0.9319,-0.6552,-0.677,-0.6175,-0.4279,-0.4371,-0.4468,-0.4468,-0.4468,-0.502,-0.6229,-0.6229,-0.6833,-0.7988,-0.7988,-0.8088,-0.8287,-0.8287,-0.8333,-0.8432,-0.8741,-0.8548,-0.8031,-0.8646,-1.1663,-1.5851,-1.6101,-1.6857,-1.8015,-1.978,-2.0393,-2.0384,-2.0378,-2.0378,-2.039,-2.0378,-2.4009,-2.7217,-2.1724,-2.1535,-2.342,-2.4982,-2.4127,-2.3562,-2.6669,-2.9047,-3.0595,0.0,0.0,-3.0038,-3.0979,-3.3452,-3.5491,-3.5821,-3.7842,-3.9335,-3.8818,-3.9269,-3.9337,-3.8322,-3.6795,-3.6045,-3.6708,-3.6567,-3.6416,-3.6378,-3.6383,-3.6459,-3.6554,-3.5517,-3.5097,-3.569,-3.3338,-3.1895,-3.1785,-3.0616,-3.0706,-3.2135,-3.3464,-3.4757,-3.6072,-3.6405,-3.6531,-3.638,-3.5353,-3.4839,-3.4655,-3.4211,-3.3709,-3.3257,-3.3194,-3.3131,-3.3124,-3.3124,-3.3124,-3.3048,-3.2428,-3.1938,-3.1486,0.0,0.0,0.0,0.0,0.0,0.0,0.0,0.0,-2.1285,-2.0921,-1.9598,-1.8183,-1.6834,-1.4192,-1.1992,-1.0622,-0.9786,-0.8087,-0.521,-0.5526,-0.494,-0.2929,-0.3589,-0.3997,-0.4005,-0.3995,-0.4268,-0.482,-0.5627,-0.6279,-0.6833,-0.7637,-0.7988,-0.7988,-0.7988,-0.7988,-0.7988,-0.7988,-0.7987,-0.8,-0.7976,-1.1133,-1.5811,-1.5813,-1.6093,-1.6717,-1.7932,-1.8358,0.0,-1.7542,-1.7324,-1.7351,-1.7735,-1.9784,-2.156,-1.9074,-2.0628,-2.3272,-2.4015,-2.3632,-2.3476,-2.489,-2.7338,-2.9661,-3.0674,-3.0597,-3.0384,-3.0356,-3.1634,-3.3269,-3.5108,-3.7071,-3.8598,0.0,-3.9521,-3.9544,-3.9057,-3.7473,-3.6146,-3.5501,-3.5987,-3.638,-3.638,-3.6398,-3.6416,-3.6394,-3.5892,-3.5659,-3.577,-3.4372,-3.335,-3.278,-3.2212,-3.2458,-3.3592,-3.4211,-3.4908,-3.5623,-3.5812,-3.5378,-3.4494,-3.4311,-3.4073,-3.3759,-3.352,-3.3294,-3.3124,-3.3124,-3.3124,-3.3086,-3.2704,-3.2579,-3.2541,-3.2303,-3.2277,-3.2202,0.0,0.0,0.0,0.0,0.0,0.0,0.0,0.0,0.0,0.0,-2.0311,-1.8936,-1.7931,-1.4923,-1.2359,-1.0953,-0.902,-0.6678,-0.3834,-0.4,-0.3353,-0.1511,-0.2372,-0.2875,-0.2888,-0.2888,-0.3065,-0.3466,-0.442,-0.5225,-0.5877,-0.683,-0.7534,-0.7988,-0.7988,-0.7988,-0.7988,-0.7988,-0.7984,-0.814,-0.9591,-1.2416,-1.5824,-1.5791,-1.5785,-1.5913,-1.6801,-1.7125,-1.692,-1.5714,-1.5538,-1.5876,-1.631,-1.6747,-1.7057,-1.6718,-1.8739,-2.1071,-2.1082,-2.1328,-2.1636,-2.2005,-2.5577,-2.9341,-3.0614,-3.0925,-3.0776,-3.034,-3.045,-3.1574,-3.4505,-3.6267,-3.779,-3.924,-3.9597,-3.9584,-3.927,-3.7767,-3.6333,-3.5271,-3.5881,-3.6405,-3.6405,-3.6405,-3.6411,-3.641,-3.6401,-3.6253,-3.5957,-3.5234,-3.4536,-3.3862,-3.3447,-3.3743,-3.4833,-3.4833,-3.4883,-3.5006,-3.5194,-3.4226,-3.2296,-3.2528,-3.2619,-3.2556,-3.2407,-3.2518,-3.283,-3.2667,-3.2616,-3.2566,-3.2152,-3.1989,-3.1989,-3.1989,-3.2252,-3.2403,0.0,0.0,0.0,0.0,0.0,0.0,0.0,0.0,0.0,0.0,0.0,-1.9217,-1.621,-1.4042,-1.166,-0.8841,-0.7391,-0.5552,-0.2895,-0.2228,-0.1359,-0.0135,-0.0095,-0.0098,-0.0098,-0.01,-0.0756,-0.2063,-0.2113,-0.3267,-0.542,-0.5472,-0.6376,-0.7988,-0.7988,-0.7988,-0.7988,-0.7988,-0.8004,-0.8452,-1.3519,-1.5651,-1.578,-1.5818,-1.5812,-1.5816,-1.5819,-1.5853,-1.5663,-1.452,-1.4882,-1.5816,-1.5816,-1.5852,-1.5615,-1.4518,-1.5048,-1.6001,-1.6027,-1.6866,-1.8039,-1.9192,-2.5218,-3.0837,-3.0883,-3.0896,-3.0908,-3.0869,-3.0431,-3.0907,-3.3855,-3.5735,-3.7299,-3.8729,-3.9346,-3.9308,-3.8216,-3.7704,-3.7193,-3.6423,-3.6358,-3.6405,0.0,-3.6405,-3.6417,-3.6417,-3.6417,-3.637,-3.636,-3.515,-3.4421,-3.4384,-3.3039,-3.2989,-3.4409,-3.4409,-3.4184,-3.3779,-3.4428,-3.3153,-3.0289,-2.9781,-3.0147,-3.1231,-3.0731,-3.1132,-3.2202,-3.1662,-3.1436,-3.1436,-3.1424,-3.1411,-3.1411,-3.1411,-3.1424,-3.1286,0.0,0.0,0.0,0.0,0.0,0.0,0.0,0.0,0.0,0.0,0.0,0.0,0.0,0.0,0.0,0.0,-0.6926,-0.4837,-0.2712,-0.2009,-0.1176,-0.0043,0.0,0.0,0.0,0.0,-0.0199,-0.0656,-0.1561,-0.2565,-0.3671,-0.6044,-0.7463,-0.8012,-0.8012,-0.8002,-0.7988,-0.7988,-0.8007,-0.8456,-1.3676,-1.5816,-1.5815,-1.5819,-1.578,-1.5708,0.0,-1.4674,-1.4633,-1.4219,-1.3799,-1.3705,-1.4887,-1.5529,-1.5698,-1.5351,-1.5488,-1.5797,-1.5808,-1.7265,-1.9064,-2.0238,-2.4904,-2.9507,-3.0645,-3.0877,-3.0738,-3.0189,-2.9405,-2.9466,-3.1444,-3.2978,-3.422,-3.5067,-3.7407,-3.8814,-3.7813,-3.8123,-3.8066,-3.7036,-3.6958,0.0,0.0,0.0,0.0,-3.6405,-3.6405,-3.6405,-3.6405,-3.5966,-3.5715,-3.5715,-3.5259,-3.5246,-3.5715,-3.5322,-3.4478,-3.316,-3.1454,-3.0329,-2.9631,-2.9093,-2.9541,-3.0644,-3.0478,-3.0901,-3.165,-3.1461,-3.1386,-3.1348,-3.1009,-3.0871,-3.0834,-3.047,-3.0557,-3.0821,0.0,0.0,0.0,0.0,0.0,0.0,0.0,0.0,0.0,0.0,0.0,0.0,0.0,0.0,0.0,0.0,0.0,-0.4207,-0.2362,-0.1482,-0.0709,-0.0041,0.0,0.0,0.0,0.0,0.0,0.0,-0.1523,-0.2571,-0.3184,-0.4508,-0.5125,-0.5218,-0.715,-0.8015,-0.8002,-0.7992,-0.7985,-0.8309,-1.1664,-1.4129,-1.5783,-1.5817,-1.5569,0.0,-1.4344,-1.412,-1.4037,-1.3589,-1.3236,-1.3149,-1.4326,-1.5205,-1.5788,-1.5778,-1.58,-1.6005,-1.6845,-1.8503,-2.0111,-2.0391,-2.3153,-2.6482,-2.9335,-3.0427,-3.0658,-2.9752,-2.8435,-2.7931,-2.9849,-3.0705,-3.1418,-3.2385,-3.4754,-3.6355,-3.6004,-3.6768,-3.7159,-3.6739,-3.6995,-3.6897,0.0,0.0,0.0,-3.6417,-3.6405,-3.6405,-3.6405,-3.6405,-3.6405,-3.6405,-3.6169,-3.6069,-3.6069,-3.5483,-3.4246,-3.2337,-2.9579,-2.8333,-2.851,-2.7874,-2.8385,-2.9718,-2.9532,-3.0079,-3.1097,-3.0896,-3.0821,-3.0783,-3.0444,-3.0319,-3.0281,-2.993,-3.0018,-3.0319,0.0,0.0,0.0,0.0,0.0,0.0,0.0,0.0,0.0,0.0,0.0,0.0,0.0,0.0,0.0,0.0,0.0,0.0,-0.1921,-0.0687,0.0,0.0,0.0,0.0,0.0,-0.0086,-0.0176,-0.0137,-0.1914,-0.3141,-0.3728,-0.1381,-0.0149,-0.0199,-0.534,-0.7726,-0.7982,-0.8011,-0.8021,-0.7993,-0.8182,-1.1217,-1.5712,-1.5791,-1.5076,-1.4104,-1.4104,-1.4083,-1.3926,-1.2722,-1.3101,-1.409,-1.4104,-1.4848,-1.5711,-1.5766,-1.5846,-1.6424,-1.8786,-2.0195,-2.0763,-1.9647,-2.0444,-2.2644,-2.7271,-2.9538,-3.0454,-2.9584,-2.7435,-2.6437,-2.896,0.0,-2.908,-3.0715,-3.1675,-3.2422,-3.3122,-3.4055,-3.4948,0.0,0.0,0.0,0.0,0.0,0.0,-3.6383,0.0,-3.6405,-3.6405,-3.6405,-3.6405,-3.6367,-3.5818,-3.5483,-3.5458,-3.4777,-3.3359,-3.119,-2.8751,-2.7327,-2.6769,-2.6159,-2.6826,-2.8478,-2.7997,-2.8818,-3.0532,-3.0005,-2.9792,-2.9792,-2.9792,-2.9792,-2.9792,-2.9792,-2.9792,-2.9792,0.0,0.0,0.0,0.0,0.0,0.0,0.0,0.0,0.0,0.0,0.0,0.0,0.0,0.0,0.0,0.0,0.0,0.0,-0.2125,-0.0769,0.0,0.0,0.0,0.0,0.0,-0.1518,-0.2327,-0.2316,-0.3455,-0.3011,-0.107,-0.2783,-0.2299,-0.0046,-0.1421,-0.4246,-0.8012,-0.8005,-0.8009,-0.8196,-1.0357,-1.2522,-1.4612,-1.5491,-1.5072,-1.4097,-1.4097,-1.4119,-1.3913,-1.2716,-1.3089,-1.412,-1.4085,-1.4288,-1.4706,-1.5573,-1.644,-1.7462,-1.8987,-1.9584,-1.9777,-1.9462,-2.2956,-2.6782,-2.8032,-2.8143,-2.7726,-2.6888,-2.6161,-2.5722,-2.5761,-2.696,0.0,-2.8033,-3.1054,0.0,-3.3124,-3.5195,0.0,-3.6502,0.0,-3.8115,-3.7262,-3.6696,0.0,0.0,-3.6405,-3.6405,-3.6405,-3.6405,-3.6169,-3.5768,-3.5571,-3.5307,-3.4893,-3.2239,-3.0125,-2.8541,-2.7547,-2.6548,-2.5625,-2.714,-2.772,-2.7516,-2.8199,-2.9083,-2.9993,-2.9854,-2.9792,-2.9792,-2.9792,-2.9792,-2.9792,-2.9792,-2.9792,-2.9792,0.0,0.0,0.0,0.0,0.0,0.0,0.0,0.0,0.0,0.0,0.0,0.0,0.0,0.0,0.0,0.0,0.0,0.0,0.0,-0.0453,0.0,0.0,0.0,-0.0733,-0.2347,-0.6408,-0.7801,-0.6409,-0.7143,-0.6383,-0.4292,-0.5693,-0.5102,-0.2888,-0.282,-0.4426,-0.7423,-0.9725,-1.0678,0.0,0.0,-1.2697,-1.3467,-1.5145,-1.542,-1.4865,-1.4865,-1.4845,-1.475,-1.4051,-1.4307,-1.4871,-1.4832,-1.4839,-1.4968,-1.5634,-1.6647,-1.7868,-1.9058,-2.1318,-2.3323,-2.3293,-2.5828,-2.8315,-2.8321,-2.6163,-2.4383,-2.4989,-2.465,-2.4238,-2.4361,-2.5428,0.0,0.0,0.0,0.0,-3.1467,-3.3909,-3.5736,0.0,-3.7767,0.0,-3.7886,-3.723,-3.6621,0.0,-3.6207,-3.6304,-3.6019,-3.6006,-3.5742,-3.5157,-3.4906,-3.4392,-3.3633,-3.197,-3.0126,-2.8177,-2.8332,-2.7551,-2.6007,-2.7534,-2.8203,-2.8226,0.0,-2.9318,-3.0156,-3.0156,-3.0156,-3.0181,-3.0407,-3.0357,-3.0156,-3.0156,-2.9993,-2.9792,0.0,0.0,0.0,0.0,0.0,0.0,0.0,0.0,0.0,0.0,-2.3153,0.0,0.0,0.0,0.0,0.0,0.0,0.0,0.0,0.0,-0.0779,-0.1149,-0.153,-0.3175,-0.6321,-1.3019,-1.4951,-1.1838,-1.1822,-1.1119,-0.9794,-0.8906,-0.8002,-0.7123,-0.663,-0.6705,-0.7377,-1.1951,-1.3848,-1.3761,-1.2737,-1.2418,-1.2763,0.0,-1.5583,-1.5575,-1.5558,-1.5683,-1.5815,-1.5799,-1.5799,-1.5837,-1.5978,-1.6035,-1.604,-1.6024,-1.7103,-1.8636,-1.9914,-2.3988,-2.7963,-2.7949,-2.7954,-2.7953,-2.7968,-2.4253,-2.1411,-2.3617,-2.3229,-2.287,-2.4013,-2.4336,-2.4727,-2.5625,0.0,-2.7705,-2.9414,-3.1666,-3.3576,-3.4857,-3.6972,-3.8315,-3.8191,-3.7704,-3.6796,-3.5394,-3.5821,-3.5918,-3.542,-3.5395,-3.5144,-3.4625,-3.4073,-3.3195,-3.195,-3.2416,-3.1362,-2.8769,-2.9735,-2.911,-2.7115,-2.7798,-2.8568,-2.9386,0.0,0.0,-3.0507,-3.0583,-3.062,-3.0658,-3.111,-3.1009,-3.0608,-3.0532,-3.0206,-2.9792,0.0,0.0,0.0,0.0,0.0,0.0,0.0,0.0,0.0,0.0,-2.4702,-2.318,0.0,0.0,0.0,0.0,0.0,0.0,0.0,0.0,0.0,-0.7172,-0.9445,-1.0971,-1.1576,-1.8539,-2.088,-1.8191,-1.569,-1.3067,-1.0434,-0.9694,-0.9581,-0.983,-0.8029,-0.8704,-1.13,-1.2222,-1.26,-1.2582,-1.2401,-1.2915,-1.3826,-1.4247,0.0,0.0,-1.4411,-1.502,-1.5815,-1.5799,-1.5795,-1.5994,-1.6966,-1.7274,-1.7284,-1.7281,-1.9607,-2.25,-2.417,-2.5384,-2.6172,-2.6143,-2.614,-2.6163,-2.6152,-2.3804,0.0,-2.2247,-2.2987,-2.3518,-2.3364,-2.389,-2.4824,-2.6074,-2.6992,0.0,0.0,0.0,-3.2751,0.0,0.0,0.0,0.0,0.0,0.0,0.0,0.0,-3.4657,-3.4818,-3.4818,-3.4568,-3.406,-3.3508,-3.2438,-3.0721,-3.047,-2.9541,-2.7912,-2.8748,-2.8454,-2.7158,-2.9164,-2.9472,-2.8398,-2.9251,0.0,-2.9967,-3.0432,-3.062,-3.062,-3.0721,-3.0696,-3.0557,-3.0105,-2.988,-2.9792,0.0,0.0,0.0,0.0,0.0,0.0,0.0,-2.5219,-2.5475,-2.5987,-2.5493,-2.4838,-2.4145,-1.7088,-1.1457,0.0,0.0,0.0,0.0,0.0,0.0,-1.4405,-1.5744,-1.644,-1.6431,-2.0491,-2.1383,-1.8851,0.0,-1.5098,-1.2882,-1.2562,-1.1749,-1.0519,-0.95,-0.9599,-1.0555,-1.1788,-1.2284,-1.2294,-1.2305,-1.3028,-1.4106,-1.4084,0.0,0.0,-1.4508,-1.5087,-1.5718,-1.5133,-1.5285,-1.6008,-1.7238,-1.7586,-1.7993,-1.9908,-2.1713,-2.3294,-2.4106,-2.4363,-2.4345,-2.4336,-2.6084,-2.7544,-2.6363,0.0,0.0,-2.3163,-2.3137,-2.3125,-2.3091,-2.3793,-2.4697,-2.5557,-2.6435,0.0,0.0,0.0,0.0,0.0,0.0,0.0,0.0,0.0,0.0,0.0,0.0,-3.3314,-3.3828,-3.3583,-3.3432,-3.347,-3.3219,-3.2386,-3.0917,-3.1026,-3.0264,-2.8816,-2.9476,-2.9343,-2.854,-2.9683,-3.0042,-2.9824,-3.0121,0.0,-3.1072,-3.1336,-3.1273,-3.1047,-3.1336,-3.111,-3.0583,-3.0319,-3.0043,-2.9792,0.0,0.0,0.0,0.0,0.0,0.0,0.0,-2.5259,-2.5588,-2.6365,-2.5723,-2.5861,-2.7649,-2.4181,-2.005,0.0,0.0,0.0,0.0,0.0,0.0,0.0,0.0,0.0,-2.0259,0.0,0.0,-1.9058,-1.8614,0.0,0.0,0.0,0.0,0.0,-1.1384,-1.067,-0.9645,-1.1505,-1.2284,0.0,0.0,-1.3034,0.0,0.0,0.0,0.0,0.0,-1.5088,-1.5311,-1.4408,-1.5339,-1.6989,-1.7918,-1.8472,-1.9327,-2.2245,-2.3109,-2.311,-2.3089,-2.3092,-2.3081,-2.3111,-2.6489,-2.9201,-2.6982,-2.5826,-2.4997,-2.4411,-2.3608,-2.2992,-2.3076,-2.3647,-2.4316,0.0,-2.5508,-2.6484,0.0,0.0,0.0,0.0,0.0,0.0,0.0,0.0,0.0,0.0,0.0,0.0,-3.3038,-3.2528,-3.2478,-3.3056,-3.2955,-3.2403,-3.1399,-3.17,-3.1173,-2.9804,-3.0231,-3.0218,-2.9792,-2.9792,-3.0256,-3.1022,-3.062,0.0,0.0,-3.1825,-3.1612,-3.1273,-3.17,-3.1361,-3.0608,-3.0482,-3.0168,-2.9792,0.0,0.0,0.0,0.0,0.0,0.0,0.0,-2.5146,-2.5013,-2.4224,-2.5269,-2.632,-2.6944,-2.774,-2.7099,0.0,0.0,0.0,0.0,0.0,0.0,0.0,0.0,0.0,0.0,0.0,0.0,-2.2455,-2.2106,0.0,0.0,0.0,0.0,0.0,0.0,-1.3075,-1.1895,-1.2129,0.0,0.0,0.0,0.0,0.0,0.0,0.0,0.0,0.0,-1.4203,-1.4234,-1.414,-1.6781,-2.0168,-2.0298,-2.1355,-2.2683,-2.3003,-2.3109,-2.3084,-2.311,-2.31,-2.31,-2.31,-2.6483,-2.9235,-2.699,0.0,-2.6753,-2.4737,-2.4449,-2.4288,-2.329,-2.3159,-2.3481,-2.4346,-2.4541,-2.5332,-2.7483,0.0,0.0,0.0,0.0,0.0,0.0,0.0,0.0,0.0,0.0,0.0,-3.3006,-3.2528,-3.2478,-3.3056,-3.2566,-3.2001,-3.1399,-3.0972,-3.0432,-2.9792,-2.9842,-2.9842,-2.9792,-2.9792,-2.9842,-2.993,-2.9892,0.0,0.0,-3.0557,-3.0733,-3.0696,-3.0746,-3.0708,-3.0557,-3.0055,-2.9829,-2.9792,0.0,0.0,0.0,0.0,0.0,0.0,-2.5218,-2.536,-2.5386,-2.5304,-2.5332,-2.5797,-2.696,-2.7577,-2.772,-2.7292,0.0,0.0,0.0,0.0,0.0,0.0,0.0,0.0,0.0,0.0,-2.4211,-2.4708,-2.4321,0.0,0.0,0.0,0.0,0.0,0.0,0.0,-1.5098,-1.4327,0.0,0.0,0.0,0.0,0.0,0.0,0.0,0.0,0.0,0.0,-1.449,-1.7122,-1.916,-2.0585,-2.0592,-2.1059,-2.1783,-2.2784,-2.31,-2.3691,-2.6399,-2.7147,-2.7139,-2.7106,-2.7947,-2.8469,-2.7399,0.0,-2.71,-2.586,-2.4996,-2.4388,-2.4159,-2.3385,-2.2916,-2.351,-2.3608,-2.4131,-2.5518,0.0,0.0,0.0,0.0,0.0,0.0,0.0,0.0,0.0,0.0,0.0,-3.2014,-3.1549,-3.1499,-3.2051,-3.123,-3.0462,-2.9914,-2.9041,-2.8357,-2.7799,-2.7799,-2.7799,-2.7799,-2.7799,-2.8004,-2.8351,-2.896,0.0,0.0,-3.0742,-3.0896,-3.062,-3.062,-3.0407,-3.0093,-2.988,-2.9792,-2.9792,0.0,0.0,0.0,0.0,0.0,-2.4823,-2.5412,-2.5509,-2.5557,-2.5717,-2.5215,-2.5338,-2.6692,-2.6901,-2.74,-2.8533,-2.615,0.0,0.0,0.0,0.0,0.0,0.0,0.0,0.0,0.0,-2.5615,-2.614,-2.6144,-2.619,0.0,0.0,0.0,0.0,0.0,0.0,0.0,0.0,0.0,0.0,0.0,0.0,0.0,0.0,0.0,0.0,0.0,0.0,0.0,0.0,0.0,-2.0604,-2.0589,-2.0617,-2.1064,-2.3435,-2.4563,-2.5774,-2.8931,-2.9791,-2.9806,-2.9816,-2.8928,-2.802,-2.7669,-2.7568,-2.7298,-2.6405,-2.529,-2.4452,-2.4556,-2.3442,-2.2607,-2.2867,-2.3013,-2.3354,-2.4131,-2.46,0.0,0.0,0.0,0.0,0.0,0.0,0.0,0.0,0.0,0.0,0.0,-3.057,-3.0523,-3.0898,-3.0036,-2.9178,-2.8415,-2.7527,-2.6861,-2.6524,-2.6524,-2.6524,-2.6524,-2.6524,-2.687,-2.7573,0.0,0.0,0.0,-2.9885,-3.0096,-3.033,-2.9975,-2.9831,-2.9792,-2.9792,-2.9792,-2.9792,0.0,0.0,0.0,0.0,0.0,0.0,-2.5371,-2.55,-2.5243,-2.4516,-2.4694,-2.5176,-2.5936,-2.6368,-2.7169,-2.858,-2.7572,0.0,0.0,0.0,0.0,0.0,0.0,0.0,0.0,0.0,-2.7154,-2.669,-2.7673,-2.816,-2.8157,-2.6999,-2.5654,-2.4124,0.0,0.0,0.0,0.0,0.0,0.0,0.0,0.0,0.0,0.0,0.0,0.0,0.0,0.0,0.0,0.0,0.0,0.0,0.0,-2.0617,-2.1371,-2.5326,-2.8041,-2.9739,-2.9803,-2.9793,-2.9784,-2.9802,-2.894,-2.8027,-2.7681,-2.7863,-2.7605,-2.5958,-2.5268,-2.4807,-2.4145,-2.3167,-2.251,-2.2519,-2.2818,-2.3247,-2.374,-2.416,0.0,0.0,0.0,0.0,0.0,0.0,0.0,0.0,0.0,0.0,0.0,-2.9804,-2.9794,-2.9822,-2.9249,-2.8385,-2.7338,-2.6771,-2.6524,-2.6524,-2.6524,-2.6524,-2.6524,-2.6524,-2.7087,0.0,0.0,0.0,0.0,-2.7447,-2.7851,-2.9714,-2.8569,-2.8819,-2.9792,-2.9792,-2.9792,-2.9792,0.0,0.0,0.0,0.0,0.0,0.0,0.0,-2.5582,-2.5461,-2.5016,-2.5005,-2.5505,-2.6755,-2.5985,-2.6113,-2.7993,-2.7302,0.0,0.0,0.0,0.0,0.0,0.0,0.0,0.0,-2.44,-2.6429,-2.9765,-2.9418,-2.9577,-3.025,-2.9732,-2.9091,-2.8281,-2.6502,0.0,0.0,0.0,0.0,0.0,0.0,0.0,0.0,0.0,0.0,0.0,0.0,0.0,0.0,0.0,0.0,0.0,0.0,0.0,0.0,-2.6118,-2.7004,-2.7864,-2.9399,-2.9795,-2.9606,-2.8837,-2.8375,-2.8002,-2.7512,-2.7483,-2.741,-2.6865,-2.6116,-2.5585,-2.5707,-2.4018,-2.2838,-2.3432,-2.3076,-2.2818,0.0,0.0,0.0,0.0,0.0,0.0,0.0,0.0,0.0,0.0,0.0,0.0,0.0,-2.9792,-2.9436,-2.8664,-2.7737,-2.6737,-2.5604,-2.4668,-2.4188,-2.4188,-2.4188,-2.4188,-2.4188,-2.4188,0.0,0.0,0.0,0.0,0.0,-2.6812,-2.7331,-2.8597,-2.8255,-2.8307,-2.8727,-2.9495,-2.9792,-2.9792,0.0,0.0,0.0,0.0,0.0,0.0,0.0,-2.5582,-2.5625,-2.5416,-2.5253,-2.5532,-2.645,-2.688,-2.7573,-2.8741,-2.8215,0.0,0.0,0.0,0.0,0.0,0.0,0.0,-2.5081,-2.4115,-2.5144,-2.8319,-2.9642,-3.0583,-3.1211,-3.1061,-3.0808,-3.0381,-2.8718,-2.7621,0.0,0.0,0.0,0.0,0.0,0.0,-1.634,0.0,0.0,0.0,0.0,0.0,0.0,0.0,0.0,0.0,0.0,0.0,0.0,0.0,-2.6511,-2.6791,-2.8183,-2.8568,-2.8437,-2.8012,-2.7701,-2.7451,-2.7344,-2.7153,-2.7002,-2.7002,-2.6223,-2.5635,-2.6095,-2.4581,-2.3427,-2.3998,-2.3515,-2.307,0.0,0.0,0.0,0.0,0.0,0.0,0.0,0.0,0.0,0.0,0.0,0.0,0.0,-2.9334,-2.876,-2.7282,-2.6739,-2.5679,-2.3965,-2.3384,-2.3013,-2.2867,-2.3023,-2.3091,-2.3091,-2.3091,0.0,0.0,0.0,0.0,0.0,-2.5557,-2.613,-2.7441,-2.7023,-2.7105,-2.7574,-2.8291,-2.8461,-2.837,0.0,0.0,0.0,0.0,0.0,0.0,0.0,-2.5478,-2.5679,-2.5702,-2.5471,-2.5425,-2.5671,-2.8816,-3.0859,-3.0806,0.0,0.0,0.0,0.0,0.0,0.0,0.0,0.0,-2.7536,-2.516,-2.3883,-2.3885,-2.8699,-3.112,-3.1183,-3.119,-3.1022,-3.0698,-2.9743,-2.8755,-2.7573,-2.4654,-2.2441,-2.0877,-2.0683,-2.0605,0.0,0.0,0.0,0.0,0.0,0.0,0.0,0.0,0.0,0.0,0.0,0.0,0.0,0.0,0.0,0.0,0.0,-2.6564,-2.6651,-2.7371,-2.6999,-2.6615,-2.7039,-2.6829,0.0,-2.6418,-2.5699,-2.5242,-2.5634,-2.4941,-2.4325,-2.4392,-2.4241,-2.3948,0.0,0.0,0.0,0.0,0.0,0.0,0.0,0.0,0.0,0.0,0.0,0.0,0.0,-2.8376,-2.7712,-2.5716,-2.6043,-2.5047,-2.2471,-2.2808,-2.2808,-2.2471,-2.2818,-2.3023,-2.3052,-2.3052,0.0,0.0,0.0,0.0,0.0,-2.4016,-2.4392,-2.6265,-2.521,-2.5441,-2.6345,-2.6461,-2.6176,-2.5876,0.0,0.0,0.0,0.0,0.0,0.0,0.0,0.0,0.0,0.0,-2.5659,-2.6624,-2.9279,-3.0365,-3.193,0.0,0.0,0.0,0.0,0.0,0.0,0.0,0.0,0.0,-2.7527,-2.6986,-2.665,-2.6658,-2.8764,-3.0306,-3.119,-3.0942,-3.0913,-3.1042,-3.0101,-2.8879,-2.7455,-2.6813,-2.5472,-2.3623,-2.146,-2.059,0.0,0.0,0.0,0.0,-2.5687,-2.6493,0.0,0.0,0.0,0.0,0.0,0.0,0.0,0.0,-2.7697,-2.8815,-2.7945,0.0,-2.6529,-2.6709,-2.6621,-2.6335,0.0,-2.6042,-2.628,-2.5523,-2.5769,-2.6303,-2.6801,-2.6094,-2.5669,-2.6467,-2.5893,-2.5175,0.0,0.0,0.0,0.0,0.0,0.0,0.0,0.0,0.0,0.0,0.0,0.0,0.0,-2.5993,-2.5446,-2.4092,-2.417,-2.3503,-2.2073,-2.2129,-2.2129,-2.2031,-2.2129,-2.2344,-2.2656,-2.2656,0.0,0.0,0.0,0.0,-2.5083,-2.3681,-2.392,-2.5168,-2.4914,-2.4787,-2.4895,-2.6049,-2.6015,-2.5436,0.0,0.0,0.0,0.0,0.0,0.0,0.0,0.0,0.0,0.0,0.0,-2.8794,-3.0698,-3.0903,0.0,0.0,0.0,0.0,0.0,0.0,0.0,0.0,0.0,-2.5272,-2.574,-2.6961,-2.7593,-2.76,-2.9357,-3.0204,-3.0212,-3.0685,-3.0944,-3.0941,-3.0153,-2.9041,-2.771,-2.7627,-2.6997,-2.5948,-2.4412,0.0,0.0,0.0,0.0,0.0,-2.6114,-2.6497,0.0,-2.6499,-2.6496,-2.6497,0.0,0.0,0.0,0.0,-2.4904,-2.6134,-2.6,-2.6699,-2.746,-2.7266,-2.7218,-2.6918,-2.5661,-2.5779,-2.5826,-2.4563,-2.4731,-2.5432,-2.6418,-2.6166,-2.62,-2.7454,-2.7002,0.0,0.0,0.0,0.0,0.0,0.0,0.0,0.0,0.0,0.0,0.0,0.0,0.0,0.0,-2.4664,-2.4321,-2.3266,-2.2977,-2.2396,-2.1582,-2.1787,-2.1787,-2.1592,-2.1787,-2.2109,-2.251,-2.251,-2.2744,0.0,0.0,0.0,-2.3953,-2.3179,-2.3176,-2.3724,-2.353,-2.3348,-2.3248,-2.4064,-2.3941,-2.3477,0.0,0.0,0.0,0.0,0.0,0.0,0.0,0.0,0.0,0.0,0.0,0.0,0.0,0.0,0.0,0.0,0.0,0.0,0.0,0.0,0.0,0.0,-2.6227,-2.5596,-2.4227,-2.6435,-2.7608,-2.7599,-2.9793,-3.0196,-2.8964,-3.0143,-3.0539,-3.0248,-2.9764,-2.9039,-2.8109,-2.7498,-2.7378,-2.7586,-2.7598,0.0,0.0,0.0,0.0,0.0,0.0,0.0,0.0,-2.6499,-2.6303,-2.5994,-2.5684,0.0,0.0,0.0,0.0,0.0,-2.3253,-2.5937,-2.8275,-2.7952,-2.7877,-2.7471,-2.6004,-2.5787,-2.5436,-2.3817,-2.359,-2.4107,-2.5503,-2.5905,0.0,0.0,0.0,0.0,0.0,0.0,0.0,0.0,0.0,0.0,0.0,0.0,0.0,0.0,0.0,0.0,0.0,-2.3528,-2.3351,-2.2464,-2.1953,-2.1425,-2.0898,-2.1435,-2.1504,-2.1093,-2.1504,-2.1904,-2.2314,-2.2314,-2.2549,-2.2906,0.0,0.0,-2.2877,-2.2568,-2.2412,-2.2383,-2.2021,-2.1846,-2.1797,-2.1865,-2.1562,-2.1243,0.0,0.0,0.0,0.0,0.0,0.0,0.0,0.0,0.0,0.0,0.0,0.0,0.0,0.0,0.0,0.0,0.0,0.0,0.0,0.0,0.0,-2.424,-2.4068,-2.4989,-2.6929,-2.7391,-2.7598,-2.7599,-2.8783,-2.9075,-2.8584,-2.841,-2.8282,-2.8251,-2.8386,-2.8438,-2.8323,-2.6381,-2.6344,-2.7595,-2.7599,0.0,0.0,0.0,0.0,0.0,0.0,0.0,0.0,-2.6499,-2.5376,-2.3658,-2.2024,0.0,0.0,0.0,0.0,0.0,-2.3691,-2.5556,-2.6806,-2.6762,-2.6737,-2.6474,-2.5367,-2.5776,-2.5803,-2.3756,-2.402,-2.4826,-2.5515,-2.6442,-2.7278,0.0,0.0,0.0,0.0,0.0,0.0,0.0,0.0,0.0,0.0,0.0,0.0,0.0,0.0,0.0,0.0,-2.1321,-2.0903,-2.0383,-2.0266,-2.0013,-1.959,-2.041,-2.0772,-2.0713,-2.0781,-2.1006,-2.1395,-2.1395,-2.167,-2.208,0.0,-2.208,-2.207,-2.2012,-2.1982,-2.1982,-2.1904,-2.166,-2.1377,-2.1748,-2.1407,-2.0703,0.0,0.0,0.0,0.0,0.0,0.0,0.0,0.0,0.0,0.0,0.0,0.0,0.0,0.0,0.0,0.0,0.0,0.0,0.0,0.0,-2.9858,-2.6869,-2.4712,-2.4861,-2.755,-2.7597,-2.7597,-2.7589,-2.5179,-2.5186,-2.7541,-2.8161,-2.845,-2.8449,-2.8833,-2.8762,-2.8243,-2.6667,-2.643,-2.7143,0.0,0.0,0.0,0.0,0.0,0.0,0.0,0.0,0.0,0.0,-2.5898,-2.4601,-2.1574,0.0,0.0,0.0,0.0,0.0,-2.2433,-2.3567,-2.4587,-2.5648,-2.6517,-2.6767,-2.5251,-2.5264,-2.5065,-2.3248,-2.3053,-2.358,0.0,0.0,-2.616,0.0,0.0,0.0,0.0,0.0,0.0,0.0,0.0,0.0,0.0,0.0,0.0,0.0,0.0,0.0,0.0,0.0,-2.0507,-2.0273,-2.0264,-2.0059,-1.9629,-2.0019,-2.0215,-2.0215,-2.0488,-2.0801,-2.119,-2.119,-2.1475,-2.1885,0.0,-2.1885,-2.1865,-2.1631,-2.1533,-2.1514,-2.1269,-2.1055,-2.0898,-2.1134,-2.0957,-2.0605,0.0,0.0,0.0,0.0,0.0,0.0,0.0,0.0,0.0,0.0,0.0,0.0,0.0,0.0,0.0,0.0,0.0,0.0,0.0,-3.0938,-3.0659,-2.9454,-2.5594,-2.4772,-2.7545,-2.7612,-2.7285,-2.6664,-2.2294,-2.2269,-2.6354,-2.7964,-2.8722,-2.8738,-2.9407,-2.9215,-2.8367,-2.7914,-2.7748,-2.7789,0.0,0.0,0.0,0.0,0.0,0.0,0.0,0.0,0.0,0.0,0.0,0.0,0.0,0.0,0.0,-2.0594,-2.0595,-2.0724,-2.1252,-2.1919,-2.2899,-2.4461,-2.5934,-2.6726,-2.5527,-2.5112,-2.4581,-2.3343,-2.2695,-2.2678,0.0,-2.4106,0.0,0.0,0.0,0.0,0.0,0.0,0.0,0.0,0.0,0.0,0.0,0.0,0.0,0.0,0.0,0.0,0.0,0.0,-2.0554,-2.0408,-2.0367,-2.0102,-1.9473,-1.9668,-1.9814,-1.9922,-2.0254,-2.0644,-2.1074,-2.1074,-2.126,-2.1623,-2.1623,-2.1623,-2.1553,-2.1211,-2.1074,-2.1045,-2.0742,-2.0605,-2.0605,-2.0605,-2.0605,-2.0605,0.0,0.0,0.0,0.0,0.0,0.0,0.0,0.0,0.0,0.0,0.0,0.0,0.0,0.0,0.0,0.0,0.0,0.0,0.0,-3.1367,-3.0661,-2.9459,-2.5396,-2.4546,-2.7542,-2.7604,-2.6391,-2.39,-2.2319,-2.2783,-2.5159,-2.7025,-2.7891,-2.7942,-2.9171,-2.9431,-2.9015,-3.033,-3.0878,-3.087,-3.0925,0.0,0.0,0.0,0.0,0.0,0.0,0.0,0.0,0.0,0.0,0.0,0.0,0.0,-2.0604,-2.0594,-2.0586,-2.0732,-2.1267,-2.1919,-2.2617,-2.3153,-2.412,-2.5293,-2.6309,-2.5933,-2.5248,-2.495,-2.4228,-2.3589,0.0,-2.3757,0.0,0.0,0.0,0.0,0.0,0.0,0.0,0.0,0.0,0.0,0.0,0.0,0.0,0.0,0.0,0.0,0.0,0.0,0.0,-1.9776,-1.9767,-1.9244,-1.8154,-1.8936,-1.9531,-1.9912,-1.9941,-2.0185,-2.0654,-2.0654,-2.0674,-2.0703,-2.0703,-2.0703,-2.0693,-2.0664,-2.0654,-2.0644,-2.0615,-2.0605,-2.0605,-2.0605,-2.0605,-2.0605,0.0,0.0,0.0,0.0,0.0,0.0,0.0,0.0,0.0,0.0,0.0,0.0,0.0,0.0,0.0,0.0,0.0,0.0,0.0,-3.2035,-3.2141,-3.0589,-2.7561,-2.5551,-2.4806,-2.4805,-2.3603,-2.116,-2.1526,-2.2909,-2.5295,-2.7642,-2.9166,-2.9937,-3.0429,-3.0524,-3.04,-3.0968,-3.1196,-3.12,-3.1199,-2.9765,0.0,0.0,0.0,0.0,0.0,0.0,0.0,0.0,-2.5289,-2.4507,-2.4499,-2.3527,-2.218,-2.0954,-2.0605,-2.0644,-2.084,-2.1665,-2.2617,-2.2994,-2.3638,-2.438,-2.5107,-2.5237,-2.5089,-2.4741,-2.4404,-2.3887,0.0,0.0,0.0,0.0,0.0,0.0,0.0,0.0,0.0,0.0,0.0,0.0,0.0,0.0,0.0,0.0,0.0,0.0,0.0,0.0,0.0,-1.9445,-1.9611,-1.9322,-1.8552,-1.9223,-1.9551,-1.9531,-2.0068,-2.0449,-2.0605,-2.0605,-2.0605,-2.0605,-2.0605,-2.0605,-2.0605,-2.0605,-2.0605,-2.0605,-2.0605,-2.0605,-2.0605,-2.0605,-2.0605,-2.0644,0.0,0.0,0.0,0.0,0.0,0.0,0.0,0.0,0.0,0.0,0.0,0.0,0.0,0.0,0.0,0.0,0.0,0.0,-3.0925,-3.2736,-3.3269,-3.207,-2.9898,-2.7032,-2.3322,-2.4083,-2.2945,-1.9704,-2.1038,-2.2971,-2.5422,-2.8066,-2.9979,-3.1207,-3.0927,-3.0958,-3.1215,-3.1187,-3.119,-3.1206,-3.1193,-2.9742,0.0,0.0,0.0,0.0,0.0,0.0,0.0,0.0,-2.4483,-2.42,-2.3695,-2.3505,-2.3102,-2.1168,-2.081,-2.1027,-2.0999,-2.1748,-2.2617,-2.2994,-2.3467,-2.3896,-2.4316,-2.4648,-2.4863,-2.4834,-2.4348,-2.3791,-2.3113,0.0,0.0,0.0,0.0,0.0,0.0,0.0,0.0,0.0,0.0,0.0,0.0,0.0,0.0,0.0,0.0,0.0,0.0,-1.8901,-1.9083,-1.8909,-1.9056,-1.8976,-1.8636,-1.9151,-1.9389,-1.9297,-2.0194,-2.0605,-2.0605,-2.0605,-2.0605,-2.0605,-2.0605,-2.0605,-2.0605,-2.0605,-2.0605,-2.0605,-2.0605,-2.0605,-2.0605,-2.0605,-2.0605,-2.0654,0.0,0.0,0.0,0.0,0.0,0.0,0.0,0.0,0.0,0.0,0.0,0.0,0.0,0.0,0.0,0.0,0.0,0.0,-3.2569,-3.3383,-3.3799,-3.3824,-3.2161,-2.8846,-2.3728,-2.6256,-2.5043,-1.9739,-2.1068,-2.2964,-2.5394,-2.8059,-2.9996,-3.1188,-3.0375,-3.0467,-3.1177,-3.1198,-3.1212,-3.1194,-3.1184,-2.9756,-2.7646,0.0,0.0,0.0,0.0,0.0,0.0,0.0,-2.3389,-2.4095,-2.2046,-2.2354,-2.3102,-2.1168,-2.1194,-2.1879,-2.1869,-2.2187,-2.2607,-2.2984,-2.3467,-2.3906,-2.4316,-2.4414,-2.4668,-2.5499,-2.43,-2.3258,-2.3867,-2.2866,0.0,0.0,0.0,0.0,0.0,0.0,0.0,0.0,0.0,0.0,0.0,0.0,0.0,0.0,0.0,0.0,0.0,-1.8489,-1.7995,-1.8005,-1.8002,-1.8008,-1.8008,-1.8611,-1.9037,-1.9297,-2.0184,-2.0595,-2.0605,-2.0605,-2.0605,-2.0605,-2.0605,-2.0605,-2.0605,-2.0605,-2.0605,-2.0605,-2.0605,-2.0605,-2.0605,-2.0605,-2.0605,-2.0654,0.0,0.0,0.0,0.0,0.0,0.0,0.0,0.0,0.0,0.0,0.0,0.0,0.0,0.0,0.0,0.0,0.0,0.0,-3.0149,-3.2425,-3.4154,-3.496,-3.3732,-3.0751,-2.5894,-2.878,-2.7744,-2.2436,-2.2832,-2.4589,-2.7584,-2.9383,-3.0841,-3.1985,-3.2076,-3.1309,-3.0011,-3.0997,-3.1331,-3.1196,-3.1199,-3.0766,-2.9958,0.0,0.0,0.0,0.0,0.0,0.0,0.0,0.0,0.0,-2.1627,-2.1533,-2.1351,-2.0775,-2.0801,-2.0992,-2.0996,-2.1719,-2.2471,-2.2305,-2.3252,-2.4102,-2.3578,-2.4228,-2.4863,-2.4814,-2.3871,-2.3051,-2.2961,0.0,0.0,0.0,0.0,0.0,0.0,0.0,0.0,0.0,0.0,0.0,0.0,0.0,0.0,0.0,0.0,0.0,0.0,-1.8641,-1.8273,-1.8027,-1.7988,-1.8008,-1.8008,-1.8609,-1.8938,-1.9029,-1.9754,-2.0273,-2.0605,-2.0605,-2.0605,-2.0605,-2.0605,-2.0605,-2.0605,-2.0605,-2.0401,-2.0139,-2.0459,-2.0401,-2.0139,-2.0498,-2.0605,-2.0703,0.0,0.0,0.0,0.0,0.0,0.0,0.0,0.0,0.0,0.0,-3.0521,-3.0402,0.0,0.0,0.0,0.0,0.0,0.0,-3.0937,-3.153,-3.2374,-3.3424,-3.368,-3.1691,-2.7154,-2.8618,-2.8046,-2.5195,-2.5199,-2.6449,-2.8919,-3.0068,-3.1517,-3.3148,-3.2943,-3.1883,-3.0258,-3.0034,-2.9886,-2.9836,-3.0803,-3.1195,-3.093,0.0,0.0,0.0,0.0,0.0,0.0,0.0,0.0,0.0,-2.0818,-2.0437,-2.0221,-2.0907,-2.1105,-2.1204,-2.1518,-2.2154,-2.2705,-2.2451,-2.3281,-2.4033,-2.3516,-2.4004,0.0,0.0,-2.3623,-2.3066,-2.2812,0.0,0.0,0.0,0.0,0.0,0.0,0.0,0.0,0.0,0.0,0.0,0.0,0.0,0.0,0.0,0.0,0.0,0.0,-1.8523,-1.8159,-1.7773,-1.7937,-1.7894,-1.7634,-1.8493,-1.8787,-1.8562,-1.929,-1.9805,-2.0106,-2.0449,-2.0605,-2.0605,-2.0605,-2.0507,-2.0322,-2.0323,-2.0053,-1.9725,-2.0159,-2.0139,-1.9946,-2.045,-2.0605,-2.0732,0.0,0.0,0.0,0.0,0.0,0.0,0.0,0.0,0.0,0.0,-3.0393,-3.0518,0.0,0.0,0.0,0.0,0.0,0.0,0.0,-3.0615,-2.9377,-3.0237,-3.2383,-3.1756,-2.7877,-2.7052,-2.6988,-2.7676,-2.7553,-2.8209,-2.9598,-3.0335,-3.2003,-3.4257,-3.3101,-3.2165,-3.1295,-2.8713,-2.7616,-2.7821,-3.0225,-3.1073,-3.0632,-2.8443,0.0,0.0,0.0,0.0,0.0,0.0,0.0,0.0,-1.9976,-1.9321,-1.9512,-2.1204,-2.1747,-2.1965,-2.2698,-2.3004,-2.3091,-2.3091,-2.3467,-2.3789,-2.3789,-2.376,-2.373,-2.373,0.0,-2.3144,0.0,0.0,0.0,0.0,0.0,0.0,0.0,0.0,0.0,0.0,0.0,0.0,0.0,0.0,0.0,0.0,0.0,0.0,0.0,-1.811,-1.7715,-1.7334,-1.7747,-1.7714,-1.7187,-1.8262,-1.8529,-1.8024,-1.8857,-1.9228,-1.9258,-2.0155,-2.0546,-2.0546,-2.0507,-2.0234,-1.9837,-1.9832,-1.9581,-1.9273,-1.9726,-1.9879,-1.9918,-2.043,-2.0605,-2.0732,0.0,0.0,0.0,0.0,0.0,0.0,0.0,0.0,0.0,0.0,0.0,0.0,0.0,0.0,0.0,0.0,0.0,0.0,0.0,-2.9386,-2.9092,-2.928,-3.0891,-3.0959,-2.9295,-2.9278,-2.8988,-2.837,-2.7319,-2.8021,-3.0314,-3.1044,-3.1911,-3.2833,-3.2613,-3.1748,-3.0304,-2.8403,-2.7605,-2.7818,-3.0228,-3.0077,-2.8326,-2.781,-2.7601,0.0,0.0,0.0,0.0,0.0,0.0,0.0,-2.0844,-1.939,-1.8527,-1.9791,-2.0508,-2.0976,-2.1494,-2.2324,-2.3091,-2.3091,-2.3467,-2.3789,-2.3789,-2.3525,-2.3237,-2.3237,-2.3159,0.0,0.0,0.0,0.0,0.0,0.0,0.0,0.0,0.0,0.0,0.0,0.0,0.0,0.0,0.0,0.0,0.0,0.0,0.0,-1.811,-1.7389,-1.6931,-1.6843,-1.7292,-1.7608,-1.7794,-1.8048,-1.812,0.0,-1.8517,-1.8744,-1.8773,-1.9658,-2.0059,-2.0029,-1.9707,-1.9535,-1.9427,-1.9422,-1.9155,-1.8845,-1.9608,-1.9705,-1.9525,-2.0294,-2.0605,-2.0732,0.0,0.0,0.0,0.0,0.0,0.0,0.0,0.0,0.0,0.0,0.0,0.0,0.0,0.0,0.0,0.0,0.0,0.0,0.0,0.0,-3.0161,-3.1253,-3.1619,-3.1165,-2.9732,-2.9779,-2.9252,-2.8113,-2.7739,-2.8732,-3.1031,-3.1419,-3.2091,-3.2934,-3.2353,-3.1932,-3.1546,-2.9462,-2.8183,-2.7699,-2.8958,-2.8724,-2.759,-2.7595,-2.7595,-2.76,-2.76,0.0,0.0,0.0,0.0,0.0,0.0,0.0,-1.8867,-2.0157,-2.0548,-2.0749,-2.1375,-2.2178,-2.2847,-2.3042,-2.3266,-2.3477,-2.3477,-2.3257,-2.3042,-2.2838,0.0,0.0,0.0,0.0,0.0,0.0,0.0,0.0,0.0,0.0,0.0,0.0,0.0,0.0,0.0,0.0,0.0,0.0,0.0,-1.7273,-1.7369,-1.6768,-1.6416,-1.6416,-1.6662,-1.692,-1.7173,-1.754,-1.765,-1.7563,-1.8081,-1.8403,-1.8627,-1.9316,-1.9609,-1.96,-1.9385,-1.9158,-1.8974,-1.8967,-1.8689,-1.8395,-1.9025,-1.9277,-1.9383,-2.0021,-2.0429,-2.0703,0.0,0.0,0.0,0.0,0.0,0.0,0.0,0.0,0.0,0.0,0.0,0.0,0.0,0.0,0.0,0.0,0.0,0.0,0.0,0.0,0.0,-3.4005,-3.3212,-3.1898,-3.0149,-2.9758,-2.8978,-2.7735,-2.8189,-2.936,-3.1165,-3.1327,-3.2071,-3.3156,-3.2201,-3.2186,-3.2732,-3.0711,-2.9002,-2.7616,-2.759,-2.7604,-2.7592,-2.7605,-2.76,-2.76,-2.76,-2.76,-2.7594,-2.7587,0.0,0.0,0.0,0.0,-2.0137,-2.1204,-2.1086,-2.074,-2.1359,-2.2021,-2.2617,-2.2994,-2.3159,0.0,-2.311,-2.3091,-2.2955,-2.251,0.0,0.0,0.0,0.0,0.0,0.0,0.0,0.0,0.0,0.0,0.0,0.0,0.0,0.0,0.0,0.0,0.0,0.0,0.0,-1.7002,-1.6609,-1.6191,-1.5977,-1.5977,-1.6086,-1.6136,-1.6137,-1.6858,-1.7181,-1.7106,-1.773,-1.8159,-1.851,-1.8906,-1.9102,-1.917,-1.9102,-1.8844,-1.8495,-1.8495,-1.8304,-1.8032,-1.8443,-1.8886,-1.9326,-1.9678,-2.0127,-2.0664,0.0,0.0,0.0,0.0,0.0,0.0,0.0,0.0,0.0,0.0,-3.0879,-3.0406,0.0,0.0,0.0,0.0,0.0,0.0,-3.0407,0.0,0.0,-3.5266,-3.4208,-3.3031,-3.172,-3.0546,-2.9377,-2.8304,-2.7861,-2.824,-2.9366,-3.0292,-3.1048,-3.1641,-3.2327,-3.1877,-3.0628,-3.0865,-2.9685,-2.76,-2.7595,-2.7595,-2.76,-2.7595,-2.76,-2.76,-2.76,-2.76,-2.76,-2.7609,-2.7598,0.0,0.0,0.0,-2.2364,-2.2083,-2.1337,-2.0545,-2.0266,-2.1318,-2.2617,-2.3057,-2.3437,-2.3603,0.0,0.0,-2.2877,0.0,0.0,0.0,0.0,0.0,0.0,0.0,0.0,0.0,0.0,0.0,0.0,0.0,0.0,0.0,0.0,0.0,0.0,0.0,-1.6575,-1.6242,-1.6183,-1.5732,-1.5498,-1.5498,-1.6018,-1.6028,-1.5537,-1.6143,-1.666,-1.7096,-1.7723,-1.8037,-1.8096,-1.8154,-1.8379,-1.8666,-1.834,-1.812,-1.8081,-1.8081,-1.8042,-1.8057,-1.8451,-1.888,-1.9297,-1.9346,-1.992,-2.0615,0.0,0.0,0.0,0.0,0.0,0.0,0.0,0.0,0.0,0.0,0.0,-3.0553,0.0,0.0,0.0,-3.0399,-3.0393,-3.1199,-3.3121,-3.2871,-3.2641,-3.2646,-3.2663,-3.2041,-3.068,-2.9888,-2.8764,-2.7281,-2.6693,-2.6745,-2.7322,-2.8301,-2.9829,-3.1729,-3.1215,-3.097,-3.0867,-2.9696,-2.8581,-2.76,-2.76,-2.8061,-2.8645,-2.7875,-2.7603,-2.7487,-2.6648,-2.6425,-2.6589,-2.7354,-2.759,-2.7408,-2.6359,0.0,0.0,0.0,-2.108,-2.0409,-2.0008,-2.0654,-2.1641,-2.2568,-2.2939,-2.3086,-2.3091,0.0,-2.2617,0.0,0.0,0.0,0.0,0.0,0.0,0.0,0.0,0.0,0.0,0.0,0.0,0.0,0.0,0.0,0.0,0.0,0.0,0.0,-1.6385,-1.5987,-1.5713,-1.5518,-1.541,-1.541,-1.5674,-1.5684,-1.541,-1.5915,-1.656,-1.7268,-1.7523,-1.7783,-1.8008,-1.8008,-1.8115,-1.8237,-1.8086,-1.8008,-1.8008,-1.8008,-1.8008,-1.8027,-1.8178,-1.8545,-1.8926,-1.8926,-1.9316,-1.9883,0.0,0.0,0.0,0.0,0.0,0.0,0.0,0.0,0.0,0.0,0.0,0.0,0.0,0.0,0.0,0.0,-3.0911,-3.1487,-3.4038,-3.1821,-3.0387,-3.0403,-3.1185,-3.1084,-2.9958,-2.9278,-2.8087,-2.6353,-2.5671,-2.5545,-2.6024,-2.668,-2.871,-3.1803,-3.0978,-3.0925,-3.1329,-2.8696,-2.7613,-2.7603,-2.7604,-2.8207,-2.8943,-2.7701,-2.7384,-2.7417,-2.6044,-2.5486,0.0,0.0,0.0,-2.6688,-2.5546,-2.4831,0.0,0.0,0.0,-1.9963,-1.9636,-1.9945,-2.059,-2.1456,-2.1943,-2.2211,0.0,0.0,0.0,0.0,0.0,0.0,0.0,0.0,0.0,0.0,0.0,0.0,0.0,0.0,0.0,0.0,0.0,0.0,0.0,0.0,0.0,0.0,-1.6152,-1.5782,-1.543,-1.541,-1.541,-1.541,-1.541,-1.541,-1.541,-1.588,-1.6427,-1.7083,-1.7158,-1.7383,-1.7686,-1.7686,-1.7686,-1.7695,-1.792,-1.793,-1.7856,-1.7949,-1.7949,-1.7861,-1.7969,-1.8237,-1.8588,-1.8481,-1.8818,-1.9316,0.0,0.0,0.0,0.0,0.0,0.0,0.0,0.0,0.0,0.0,0.0,0.0,-3.5168,-3.5292,-3.5239,-3.5238,-3.2274,-3.0469,-3.0649,-3.0502,-3.0407,-3.0395,-3.0867,0.0,-3.0827,-2.932,-2.7767,-2.622,-2.5097,-2.5067,-2.5995,-2.6053,-2.7879,-3.12,-3.2657,-3.2639,-3.1335,-2.8722,-2.7591,-2.7602,-2.7603,-2.763,-2.7584,-2.6564,-2.6761,-2.7467,-2.643,0.0,0.0,0.0,0.0,0.0,0.0,-2.5428,-2.4212,0.0,0.0,0.0,-1.8648,-1.9181,-1.977,-1.9545,-2.0391,-2.1072,0.0,0.0,0.0,0.0,0.0,0.0,0.0,0.0,0.0,0.0,0.0,0.0,0.0,0.0,0.0,0.0,0.0,0.0,0.0,0.0,0.0,0.0,-1.5693,-1.5439,-1.541,-1.541,-1.541,-1.541,-1.541,-1.541,-1.541,-1.588,-1.6114,-1.6163,-1.6562,-1.6746,-1.6765,-1.6765,-1.6765,-1.6814,-1.7656,-1.7792,-1.7458,-1.7836,-1.7773,-1.7461,-1.7852,-1.8237,-1.8559,-1.8159,-1.8574,-1.9238,0.0,0.0,0.0,0.0,0.0,0.0,0.0,0.0,0.0,0.0,0.0,0.0,0.0,-3.55,-3.4623,-3.2416,-3.1102,-3.0398,-3.0392,-3.0392,-3.0405,-3.0399,-3.0766,-3.0495,-2.945,-2.8402,-2.7105,-2.5555,-2.4458,-2.4264,-2.4926,-2.4926,-2.5586,-2.682,-2.7299,-2.8942,-3.11,-2.7976,-2.7235,-2.8141,-2.7758,-2.7821,-2.8042,-2.7336,-2.7254,0.0,0.0,0.0,0.0,0.0,0.0,0.0,-2.5019,-2.5137,-2.4707,-2.2504,-2.038,-1.8782,-1.8756,-1.8647,0.0,-1.9752,-1.9989,-2.0052,-2.0326,0.0,0.0,0.0,0.0,0.0,0.0,0.0,0.0,0.0,0.0,0.0,0.0,0.0,0.0,0.0,0.0,0.0,0.0,0.0,0.0,0.0,0.0,-1.541,-1.541,-1.541,-1.541,-1.541,-1.541,-1.541,-1.541,-1.5566,-1.5811,-1.6095,-1.6261,-1.6455,-1.6697,-1.6697,-1.6713,-1.672,-1.7026,-1.7261,-1.7422,-1.7566,-1.7688,-1.7803,-1.7949,-1.8105,-1.8213,-1.8066,-1.8203,-1.8486,0.0,0.0,0.0,0.0,0.0,0.0,0.0,0.0,-3.144,-3.2691,0.0,0.0,0.0,0.0,-3.2879,-3.0593,-3.1442,-3.2107,-3.2107,-3.1749,-3.1482,-3.1341,-3.1339,-3.0627,-2.9102,-2.7971,-2.6741,-2.54,-2.4121,-2.3814,-2.4399,-2.4399,-2.4661,-2.5119,-2.4556,-2.6279,-2.9522,-2.7476,-2.7344,-2.8482,-2.7843,-2.7771,-2.7978,-2.7549,0.0,0.0,0.0,0.0,0.0,0.0,0.0,0.0,-2.4039,-2.422,-2.3883,-2.2135,-2.059,-1.9324,-1.893,0.0,0.0,0.0,-1.9466,-1.93,-1.9605,0.0,0.0,0.0,0.0,0.0,0.0,0.0,0.0,0.0,0.0,0.0,0.0,0.0,0.0,0.0,0.0,0.0,0.0,0.0,0.0,0.0,0.0,0.0,-1.541,-1.541,-1.541,-1.541,-1.506,-1.4865,-1.4865,-1.4952,-1.5163,-1.547,-1.575,-1.6006,-1.6258,-1.6258,-1.6262,-1.6276,-1.6276,-1.6523,-1.6987,-1.7262,-1.7471,-1.7605,-1.7896,-1.8008,-1.8008,-1.8008,-1.8008,-1.8047,0.0,0.0,0.0,0.0,0.0,0.0,0.0,0.0,-3.2638,-3.2638,0.0,0.0,0.0,0.0,0.0,-3.0548,-3.3577,-3.5496,-3.5445,-3.4417,-3.3626,-3.3211,-3.2558,-3.1509,-3.0043,-2.8191,-2.6765,-2.5797,-2.4144,-2.3758,-2.4575,-2.4575,-2.5277,-2.6473,-2.5111,-2.5268,-2.6608,-2.7231,-2.7917,-2.8536,-2.7854,-2.7479,-2.731,0.0,0.0,0.0,-2.5268,-2.4871,0.0,-2.4421,0.0,0.0,0.0,-2.2732,-2.172,-2.172,-2.1293,-2.0534,0.0,0.0,0.0,0.0,0.0,0.0,0.0,0.0,0.0,0.0,0.0,0.0,0.0,0.0,0.0,0.0,0.0,0.0,0.0,0.0,0.0,0.0,0.0,0.0,0.0,0.0,0.0,0.0,-1.5615,-1.5342,-1.5352,-1.5391,-1.5391,-1.5391,-1.4396,-1.3826,-1.374,-1.404,-1.4195,-1.4225,-1.5021,-1.541,-1.541,-1.541,-1.541,-1.541,-1.541,-1.5654,-1.6135,-1.7022,-1.7087,-1.6775,-1.7643,-1.7988,-1.7988,-1.8008,-1.8008,-1.8008,0.0,0.0,0.0,0.0,0.0,-3.497,-3.4283,-3.3779,-3.3476,0.0,0.0,0.0,-3.3758,-3.3963,-3.4087,-3.4083,-3.4939,-3.5143,-3.4328,-3.3981,-3.3564,-3.3018,-3.2484,-3.1599,-3.0307,-2.8776,-2.7279,-2.5797,-2.4657,-2.4019,-2.3879,-2.3879,-2.4321,-2.5143,-2.4764,-2.5065,-2.5834,-2.5515,-2.6524,-2.8286,-2.7272,-2.7373,0.0,0.0,0.0,0.0,0.0,-2.3814,-2.3771,0.0,-2.2776,-2.277,0.0,0.0,-2.2429,-2.2429,-2.196,0.0,-2.0986,0.0,0.0,0.0,0.0,0.0,0.0,0.0,0.0,0.0,0.0,0.0,0.0,0.0,0.0,0.0,0.0,0.0,0.0,0.0,0.0,0.0,0.0,0.0,0.0,0.0,0.0,0.0,-1.4444,-1.4105,-1.4529,-1.5076,-1.5389,-1.5389,-1.5098,-1.4107,-1.2291,-1.3374,-1.4144,-1.4639,-1.5148,-1.541,-1.541,-1.541,-1.541,-1.541,-1.541,-1.5459,-1.5635,-1.6221,-1.6551,-1.6747,-1.7356,-1.7559,-1.7598,-1.79,-1.8008,-1.8008,0.0,0.0,0.0,-3.3944,-3.4889,-3.5572,-3.5341,-3.4732,-3.4431,0.0,0.0,0.0,-3.3796,-3.5619,-3.684,-3.6844,-3.6138,-3.5436,-3.4754,-3.4388,-3.3958,-3.346,-3.3175,-3.2337,-3.0854,-2.9416,-2.781,-2.6013,-2.4836,-2.4199,-2.4007,-2.3729,-2.3969,-2.459,-2.4306,-2.4395,-2.4754,-2.4296,-2.5462,0.0,-2.6877,0.0,0.0,-2.6418,-2.5438,0.0,0.0,0.0,-2.3129,-2.2252,-2.2184,0.0,0.0,0.0,0.0,0.0,-2.223,0.0,0.0,0.0,0.0,0.0,0.0,0.0,-1.827,-1.7127,0.0,0.0,0.0,0.0,0.0,0.0,0.0,0.0,0.0,0.0,0.0,0.0,0.0,0.0,0.0,0.0,0.0,-1.6505,-1.5749,-1.5355,-1.4126,-1.378,-1.466,-1.4519,-1.4414,-1.4387,-1.4171,-1.3473,-1.2253,-1.3386,-1.4122,-1.4392,-1.5071,-1.541,-1.541,-1.541,-1.541,-1.541,-1.541,-1.541,-1.541,-1.5702,-1.6058,-1.6516,-1.7148,-1.7409,-1.7432,-1.7852,-1.8008,-1.8008,0.0,0.0,-3.4199,-3.4879,-3.5456,-3.6006,-3.6535,-3.5799,-3.5424,0.0,-3.4796,-3.3932,-3.431,-3.6951,-3.8778,-3.8961,-3.7332,-3.6244,-3.6125,-3.5306,-3.4655,-3.4277,-3.4211,-3.3344,-3.1477,-3.0057,-2.8338,-2.6302,-2.4904,-2.4307,-2.4485,-2.3879,-2.3924,-2.447,-2.3879,-2.3595,-2.3595,-2.3595,0.0,-2.6378,-2.6452,-2.6828,0.0,0.0,-2.5522,-2.4659,-2.3382,-2.2891,-2.2694,-2.1794,-2.1461,0.0,0.0,0.0,0.0,0.0,-2.2289,0.0,0.0,0.0,0.0,0.0,0.0,0.0,-1.8166,-1.7166,-1.6239,0.0,0.0,0.0,0.0,0.0,0.0,0.0,0.0,0.0,0.0,0.0,0.0,0.0,0.0,0.0,-1.7974,-1.6668,-1.5806,-1.5762,-1.4244,-1.3754,-1.4812,-1.3735,-1.3064,-1.2995,-1.2704,-1.2731,-1.311,-1.3918,-1.4153,-1.3791,-1.4886,-1.5361,-1.5273,-1.5371,-1.5361,-1.5273,-1.5371,-1.5381,-1.5342,-1.5391,-1.5644,-1.6109,-1.6924,-1.7278,-1.7363,-1.7783,-1.7969,-1.8008,0.0,-3.1972,-3.2897,-3.3611,-3.468,-3.5572,-3.5987,-3.6231,-3.6191,-3.5711,-3.4561,-3.4805,-3.7456,-3.8319,-3.9217,-4.0521,-3.9133,-3.781,-3.6949,-3.6115,-3.5361,-3.463,-3.4345,-3.3413,-3.176,-3.0658,-2.8851,-2.6302,-2.5411,-2.457,-2.3789,-2.367,-2.367,-2.3789,-2.3655,-2.3595,-2.3595,0.0,0.0,-2.5038,-2.5585,0.0,-2.7339,-2.5644,-2.4233,-2.3072,-2.2207,-2.158,-2.1207,-2.1446,-2.1256,-2.1089,0.0,0.0,0.0,0.0,0.0,0.0,0.0,0.0,0.0,0.0,0.0,0.0,-1.9232,-1.8287,-1.7334,0.0,0.0,0.0,0.0,0.0,0.0,0.0,0.0,0.0,0.0,0.0,0.0,0.0,0.0,0.0,-1.794,-1.6374,-1.5211,-1.4942,-1.3628,-1.245,-1.1567,-1.2893,-1.3461,-1.3025,-1.4139,-1.4494,-1.3896,-1.4725,-1.4686,-1.3717,-1.4849,-1.502,-1.4377,-1.5069,-1.5011,-1.4397,-1.5107,-1.5215,-1.4932,-1.5273,-1.5449,-1.5596,-1.6148,-1.6545,-1.6882,-1.7344,-1.7715,-1.8008,-3.119,-3.1503,-3.2015,-3.2896,-3.4374,-3.5647,-3.621,-3.7094,-3.755,-3.7144,-3.6607,-3.7489,-4.0745,-4.1091,-4.0769,-3.9974,-3.9653,-3.9036,-3.7962,-3.6348,-3.5274,-3.4877,-3.4303,-3.3438,-3.223,-3.095,-2.9183,-2.6894,-2.5758,-2.4667,-2.3635,-2.3304,-2.3319,-2.3635,-2.3289,-2.3143,-2.3179,0.0,-2.3783,-2.4187,-2.5207,0.0,-2.6464,-2.5185,-2.3861,-2.2559,-2.1551,-2.0785,-2.0352,-2.0918,-2.1131,0.0,0.0,-2.1756,-2.156,0.0,-2.2517,-2.1641,0.0,0.0,0.0,-2.1544,0.0,0.0,0.0,-1.813,-1.7591,-1.6307,0.0,0.0,0.0,0.0,0.0,0.0,0.0,0.0,0.0,0.0,0.0,0.0,0.0,0.0,-1.7251,-1.6018,-1.4662,-1.3406,-1.2694,-1.2034,-1.1429,-1.2027,-1.2766,-1.3563,-1.3976,-1.4382,-1.4744,-1.5177,-1.5116,-1.4559,-1.5138,-1.5157,-1.4757,-1.5215,-1.5147,-1.4767,-1.5196,-1.5293,-1.5117,-1.5322,-1.541,-1.5449,-1.5927,-1.6357,-1.6755,-1.7227,-1.7646,-1.8008,-3.1207,-3.121,-3.1459,-3.2278,-3.3939,-3.5471,-3.6338,-3.7578,-3.8478,-3.8668,-3.9238,-4.0602,-4.3217,-4.3494,-4.2454,-3.9855,-3.9847,-3.9761,-3.9194,-3.7008,-3.5418,-3.4804,-3.4161,-3.3513,-3.2849,-3.1603,-2.9769,-2.7301,-2.5824,-2.455,-2.3504,-2.3054,-2.3086,-2.3459,-2.2912,-2.2732,-2.2855,-2.3245,0.0,-2.3525,0.0,-2.5325,-2.5158,-2.4669,-2.3593,-2.2194,-2.1029,-2.0258,-1.9874,-2.0365,0.0,-2.1466,-2.1524,-2.1405,0.0,0.0,0.0,0.0,0.0,0.0,0.0,0.0,0.0,-2.0134,0.0,0.0,0.0,-1.6746,0.0,0.0,0.0,0.0,0.0,0.0,0.0,0.0,0.0,0.0,0.0,0.0,0.0,0.0,0.0,-1.5473,-1.406,-1.2062,-1.1953,-1.1971,-1.1978,-1.1556,-1.2151,-1.3923,-1.3494,-1.3944,-1.5381,-1.541,-1.5284,-1.5061,-1.5139,-1.5023,-1.4802,-1.4917,-1.4869,-1.4716,-1.5032,-1.5119,-1.5071,-1.5293,-1.541,-1.5449,-1.581,-1.6277,-1.6746,-1.7129,-1.7578,-1.8008,-3.1205,-3.1188,-3.124,-3.1345,-3.2631,-3.4116,-3.5511,-3.6656,-3.7685,-3.8578,-4.1185,-4.3092,-4.3449,-4.3504,-4.3359,-4.2992,-4.0446,0.0,-4.074,0.0,-3.6973,-3.4058,-3.3851,-3.3757,-3.3666,-3.348,-3.118,-2.6606,-2.5373,-2.4081,-2.2809,-2.3229,-2.3178,-2.2723,-2.2654,-2.2868,-2.3296,0.0,-2.2772,0.0,-2.4105,-2.4309,0.0,-2.3742,-2.2594,-2.0913,-2.0169,-1.985,-1.9811,0.0,-2.0348,-2.0894,0.0,-2.0542,-2.034,0.0,0.0,0.0,0.0,0.0,0.0,0.0,-2.0021,0.0,0.0,0.0,-1.8573,-1.8408,0.0,0.0,0.0,0.0,0.0,0.0,0.0,0.0,0.0,0.0,0.0,0.0,0.0,0.0,0.0,-1.4458,-1.3323,-1.1997,-1.2104,-1.1919,-1.1168,-1.2007,-1.2691,-1.3125,-1.3726,-1.4481,-1.5381,-1.541,-1.4888,-1.3895,-1.4192,-1.3733,-1.2662,-1.3086,-1.2848,-1.2205,-1.3675,-1.4146,-1.3886,-1.4965,-1.541,-1.541,-1.5459,-1.5997,-1.6707,-1.6755,-1.7291,-1.8008,-3.1376,-3.1197,-3.1195,-3.1195,-3.314,-3.4887,-3.5511,-3.7015,-3.8222,-3.8633,-4.1495,-4.3501,-4.3499,0.0,0.0,0.0,0.0,-4.0471,0.0,0.0,-3.7464,-3.6681,-3.4821,-3.38,-3.3795,-3.2891,-3.1018,-2.8172,-2.5845,-2.4019,-2.271,-2.2536,-2.229,-2.2023,-2.1699,-2.1849,-2.2346,0.0,-2.189,0.0,0.0,0.0,0.0,-2.3181,-2.2427,-2.0682,-1.9686,-1.9547,-1.9761,0.0,-2.0001,0.0,0.0,0.0,0.0,0.0,0.0,0.0,0.0,0.0,0.0,0.0,0.0,0.0,-1.8716,0.0,-1.8711,0.0,0.0,0.0,0.0,0.0,0.0,0.0,0.0,0.0,0.0,0.0,0.0,0.0,0.0,0.0,0.0,0.0,0.0,0.0,-1.2138,-1.1917,-1.1042,-1.2076,-1.2802,-1.3003,-1.3786,-1.4599,-1.5381,-1.541,-1.5051,-1.4351,-1.4081,-1.3639,-1.3036,-1.2872,-1.2659,-1.2497,-1.3212,-1.3407,-1.3322,-1.4311,-1.4508,-1.4285,-1.4793,-1.5702,-1.6634,-1.6096,-1.644,-1.7104,-3.2564,-3.1741,-3.1453,-3.2273,-3.4167,-3.56,-3.5607,-3.6873,-3.8374,-3.9817,-4.205,0.0,-4.3506,-4.1474,0.0,0.0,-4.2165,-4.159,0.0,0.0,-3.7344,0.0,0.0,0.0,0.0,-3.2639,-3.0508,-2.8808,-2.6593,-2.4628,-2.2948,-2.2442,-2.1999,-2.155,-2.116,-2.1212,-2.1576,0.0,-2.1375,-2.0959,-2.1433,-2.1237,-2.0851,-2.2061,-2.1713,-2.0382,-1.9358,-1.9246,-1.951,-1.8958,-1.9577,0.0,-2.0349,0.0,0.0,0.0,0.0,0.0,-1.9557,0.0,0.0,0.0,0.0,0.0,0.0,0.0,0.0,0.0,0.0,0.0,0.0,0.0,0.0,0.0,0.0,0.0,0.0,0.0,0.0,0.0,0.0,0.0,0.0,0.0,0.0,0.0,0.0,-1.1937,-1.1352,-1.2307,-1.3018,-1.3329,-1.4124,-1.4815,-1.5381,-1.541,-1.5186,-1.4799,-1.4194,-1.3806,-1.3583,-1.2994,-1.2829,-1.3009,-1.323,-1.3313,-1.3382,-1.4204,-1.439,-1.4192,-1.455,-1.544,-1.6362,-1.5426,-1.5569,-1.6105,-3.5274,-3.3157,-3.2097,-3.4946,-3.553,-3.5591,-3.5591,-3.5651,-3.7536,0.0,0.0,0.0,0.0,0.0,0.0,0.0,0.0,-4.2497,-4.0115,0.0,-3.6545,0.0,0.0,-3.6484,0.0,0.0,-2.9917,-2.7258,-2.7429,-2.6152,-2.3575,-2.3547,-2.2817,-2.1483,-2.1499,-2.1499,-2.1501,-2.1576,-2.1561,-2.1473,-2.1563,-2.1237,-2.0629,0.0,-1.9888,-1.9761,-1.9183,0.0,0.0,-1.8417,-1.9023,0.0,0.0,0.0,0.0,0.0,0.0,0.0,0.0,0.0,0.0,-1.9886,0.0,0.0,0.0,0.0,-1.8229,0.0,0.0,0.0,0.0,0.0,0.0,-1.6561,0.0,0.0,0.0,0.0,0.0,0.0,0.0,0.0,0.0,0.0,0.0,0.0,0.0,0.0,-1.2158,-1.294,-1.363,-1.4133,-1.4932,-1.5381,-1.541,-1.541,-1.5216,-1.481,-1.4377,-1.3974,-1.3598,-1.3169,-1.3,-1.3031,-1.3835,-1.4145,-1.4212,-1.5041,-1.5615,-1.5912,-1.5025,-1.5213,-1.5811,-1.4866,-1.4833,-1.5234,-3.545,-3.4332,-3.3754,-3.5336,0.0,-3.5943,-3.6967,-3.7934,0.0,0.0,0.0,0.0,0.0,0.0,-4.0095,0.0,0.0,-4.092,-4.0155,-3.7274,0.0,0.0,0.0,-3.393,0.0,0.0,0.0,-2.867,-2.8581,-2.7286,-2.4907,-2.3593,-2.2728,-2.2174,-2.0931,-2.0616,0.0,0.0,0.0,0.0,0.0,-2.0295,-2.0075,0.0,0.0,-1.9196,-1.8657,-1.8456,0.0,-1.784,-1.8179,-1.8827,-1.8958,-1.8662,-1.8273,-1.84,-1.805,0.0,0.0,0.0,-1.8764,-1.8782,0.0,0.0,0.0,0.0,0.0,0.0,0.0,0.0,0.0,0.0,-1.9237,-1.6847,-1.699,-1.7279,0.0,0.0,0.0,0.0,0.0,0.0,0.0,0.0,0.0,0.0,-1.2796,0.0,0.0,-1.3695,-1.425,-1.4192,-1.4991,-1.541,-1.541,-1.541,-1.5196,-1.4781,-1.4218,-1.3829,-1.3565,-1.3011,-1.2816,-1.3031,-1.3283,-1.3408,-1.3468,-1.4275,-1.4653,-1.4754,-1.4323,-1.4288,-1.4387,-1.3782,-1.385,-1.4135,-3.48,0.0,0.0,0.0,0.0,-3.5944,-3.6932,0.0,0.0,0.0,-4.103,0.0,-4.023,0.0,-4.0088,0.0,-4.0109,-4.0116,-4.01,-3.8282,0.0,-3.9147,-3.507,0.0,0.0,0.0,0.0,0.0,-2.9371,-2.8116,-2.5495,-2.3828,-2.2741,-2.2147,-2.074,-2.0226,-2.0402,0.0,-2.0478,0.0,0.0,-1.9987,0.0,0.0,-1.9597,-1.9183,0.0,-1.8204,-1.8091,-1.7325,-1.7451,-1.7978,-1.8329,-1.7953,-1.7473,-1.7802,-1.7513,-1.7036,-1.6873,-1.7523,0.0,-1.8469,-1.8922,0.0,-1.9794,0.0,0.0,0.0,0.0,0.0,0.0,0.0,0.0,-1.7368,-1.7932,-1.86,0.0,-1.7944,0.0,0.0,0.0,0.0,0.0,0.0,0.0,0.0,-1.3597,0.0,0.0,0.0,-1.5023,-1.5083,-1.5455,-1.5644,-1.5644,-1.5488,-1.5273,-1.501,-1.4591,-1.4321,-1.4219,-1.3776,-1.3676,-1.3846,-1.3846,-1.3846,-1.3876,-1.4421,-1.479,-1.4947,-1.4198,-1.4042,-1.4114,-1.3047,-1.2841,-1.2985,0.0,0.0,0.0,0.0,-3.556,0.0,0.0,0.0,-3.8338,0.0,-4.2455,-4.3074,-4.0194,-3.9989,-4.0097,-4.0087,-4.0096,0.0,-4.0092,-4.0098,0.0,0.0,-3.7192,-3.4291,-3.1472,0.0,0.0,0.0,0.0,-2.8648,-2.5425,-2.4258,-2.2936,-2.1524,-2.0905,0.0,-1.9836,-2.0453,-2.0691,-2.0691,-2.0666,-2.0314,-1.9798,-1.9798,-1.9798,-1.966,-1.8593,-1.8166,-1.7953,-1.6864,-1.6886,-1.7373,-1.7398,-1.7385,-1.7373,-1.7398,-1.6974,-1.6635,-1.7187,-1.7799,-1.837,-1.8887,0.0,0.0,0.0,0.0,-1.8542,0.0,0.0,0.0,0.0,0.0,0.0,-1.8019,-1.8691,-1.9347,-1.984,0.0,0.0,0.0,0.0,0.0,0.0,0.0,0.0,-1.3435,-1.4264,-1.4819,0.0,0.0,-1.5908,-1.6636,-1.6309,-1.6114,-1.6095,-1.5664,-1.542,-1.541,-1.541,-1.541,-1.541,-1.541,-1.541,-1.541,-1.541,-1.541,-1.541,-1.541,-1.591,-1.6479,-1.4636,-1.4354,-1.478,-1.2699,-1.193,-1.1966,-3.2935,-3.3646,-3.4606,0.0,-3.5026,-3.5054,0.0,0.0,0.0,0.0,-3.8799,-3.7536,-3.6769,-3.8721,-4.0111,-4.0083,-4.0082,0.0,0.0,0.0,0.0,-4.0101,-3.7212,-3.5262,-3.4486,-3.3162,0.0,-2.9903,0.0,-2.9068,-2.6174,-2.4493,-2.3211,-2.2242,-2.0703,-1.9936,-1.9836,-2.0453,-2.0691,-2.0654,-2.02,-1.9936,0.0,0.0,-1.9798,-1.966,-1.8593,-1.7664,-1.6889,-1.66,-1.6588,-1.681,-1.7272,-1.7087,-1.6823,-1.7272,-1.6974,-1.6525,-1.6697,-1.714,-1.7597,-1.7795,-1.827,-1.875,0.0,0.0,0.0,0.0,0.0,0.0,0.0,0.0,0.0,0.0,0.0,0.0,0.0,0.0,0.0,-2.0335,0.0,0.0,0.0,0.0,-1.4786,-1.4052,-1.5074,-1.5612,0.0,0.0,0.0,-1.625,-1.6445,-1.6396,-1.6095,-1.5979,-1.5761,-1.541,-1.541,-1.541,-1.541,-1.541,-1.541,-1.541,-1.541,-1.541,-1.541,-1.541,-1.5733,-1.609,-1.4514,-1.3438,-1.2714,-1.2315,-1.2208,-1.2204,-3.2562,0.0,0.0,-3.4896,0.0,0.0,-3.7038,0.0,0.0,-3.9719,-3.7401,0.0,-3.7354,-3.786,-3.808,-3.8076,-3.8077,0.0,-4.0001,0.0,0.0,-3.6406,-3.4718,-3.3623,-3.3195,-3.1709,0.0,-2.9524,0.0,-2.8319,-2.5588,-2.4289,-2.3133,-2.2053,-2.0498,-1.9936,-2.0214,-2.0289,-2.0314,-2.0289,-1.9936,0.0,0.0,-1.9798,-1.966,-1.9346,-1.8505,-1.779,-1.7174,-1.6663,-1.65,-1.655,-1.6898,-1.6773,-1.6563,-1.6911,-1.6773,-1.65,-1.65,-1.671,-1.6956,-1.6999,-1.7228,-1.7505,-1.7692,-1.7355,-1.7033,0.0,0.0,0.0,0.0,0.0,0.0,0.0,0.0,0.0,0.0,0.0,0.0,0.0,0.0,0.0,0.0,0.0,-1.6097,-1.536,-1.6302,0.0,0.0,0.0,0.0,-1.6692,-1.7061,-1.6992,-1.6367,-1.6355,-1.6039,-1.541,-1.541,-1.541,-1.541,-1.541,-1.541,-1.541,-1.541,-1.541,-1.541,-1.541,-1.5478,-1.5432,-1.4156,-1.2944,-1.1943,-1.2214,-1.2225,-1.2131,0.0,0.0,0.0,0.0,0.0,0.0,0.0,-3.6366,0.0,-3.9146,0.0,-3.6527,-3.9205,-3.6796,-3.5102,-3.5451,0.0,-3.6123,-3.8799,-3.6513,-3.4005,-3.1601,-3.1331,-3.0968,-3.0306,-3.0187,0.0,0.0,0.0,-2.7245,-2.4623,-2.4052,-2.2977,-2.1443,-2.0388,0.0,0.0,-2.0012,-1.9798,-1.9798,-1.9798,-1.9747,-1.9669,-1.9747,-1.9382,-1.8771,-1.8324,-1.8145,-1.794,-1.6851,-1.65,-1.65,-1.65,-1.65,-1.65,-1.65,-1.655,-1.6588,-1.6513,-1.655,-1.6588,-1.6513,-1.65,-1.65,-1.65,-1.65,-1.65,-1.65,-1.65,-1.65,0.0,0.0,0.0,0.0,0.0,0.0,0.0,0.0,0.0,0.0,0.0,0.0,0.0,0.0,0.0,-1.692,-1.7626,0.0,0.0,0.0,0.0,-1.7324,-1.7764,-1.7656,-1.6872,0.0,-1.6317,-1.5586,-1.5439,-1.541,-1.541,-1.541,-1.541,-1.541,-1.541,-1.5352,-1.5225,-1.5235,-1.4998,-1.4509,-1.3603,-1.2706,-1.1993,-1.2204,-1.2164,-1.2053,0.0,0.0,0.0,0.0,0.0,-3.5325,-3.5826,-3.5655,-3.5686,-3.6252,-3.5829,-3.5708,-3.626,-3.3849,-3.3092,-3.532,-3.3479,0.0,0.0,0.0,0.0,-3.1513,-3.0503,-3.0379,-3.1313,-2.99,-2.9227,0.0,0.0,-2.7436,-2.5218,-2.465,-2.3353,-2.1455,-2.083,0.0,-1.9949,-1.9849,0.0,-1.9798,-1.9798,-1.9449,-1.8953,-1.9553,-1.8984,-1.7848,-1.7913,-1.7775,-1.7413,-1.6748,-1.65,-1.65,-1.65,-1.65,-1.65,-1.65,-1.6861,-1.7124,-1.6647,-1.6861,-1.7112,-1.6613,-1.65,-1.65,-1.65,-1.65,-1.65,-1.65,-1.65,-1.65,-1.65,0.0,0.0,0.0,0.0,0.0,0.0,0.0,0.0,0.0,0.0,0.0,0.0,0.0,0.0,0.0,0.0,0.0,0.0,0.0,0.0,0.0,-1.7607,0.0,0.0,0.0,-1.6619,-1.6463,-1.5732,-1.541,-1.541,-1.541,-1.541,-1.541,-1.541,-1.5021,-1.4412,-1.4421,-1.3896,-1.3067,-1.2889,-1.2588,-1.2231,-1.2285,-1.2462,-1.2603,0.0,0.0,0.0,0.0,0.0,0.0,0.0,-3.254,0.0,-3.5252,-3.5512,-3.4972,-3.3569,-3.2256,-3.2035,-3.3305,-3.2243,-3.1484,-3.1504,-3.1503,-3.1245,-3.0655,-2.965,0.0,-2.9875,-2.8412,-2.7906,-2.8416,0.0,0.0,-2.4809,-2.4203,-2.3209,-2.1854,-2.0955,-1.9975,0.0,0.0,0.0,-1.8661,-1.8661,-1.8447,-1.8178,-1.8528,-1.8232,-1.7566,-1.7391,-1.7105,-1.6741,-1.647,-1.6441,-1.65,-1.65,-1.65,-1.65,-1.65,-1.6722,-1.6873,-1.6575,-1.6701,-1.6861,-1.6563,-1.65,-1.65,-1.65,-1.65,-1.65,-1.65,-1.65,-1.6622,-1.6992,-1.7444,0.0,0.0,0.0,0.0,0.0,0.0,0.0,0.0,0.0,0.0,0.0,0.0,0.0,0.0,0.0,0.0,0.0,0.0,0.0,0.0,0.0,0.0,0.0,0.0,0.0,-1.6376,-1.5959,-1.5635,-1.541,-1.541,-1.541,-1.5381,-1.4962,-1.4553,-1.4155,-1.3453,-1.2989,-1.2665,-1.2398,-1.2193,-1.2098,-1.2245,-1.2529,-1.2764,0.0,-3.4481,0.0,0.0,-3.4825,0.0,-3.025,-2.98,-3.0873,-3.3879,-3.4999,-3.4478,-3.1787,-3.15,-3.1021,-2.9813,-3.0264,-3.0514,-3.0309,-3.0484,-3.0207,-2.9307,-2.8579,-2.8111,-2.7897,-2.6827,-2.6413,0.0,0.0,0.0,0.0,-2.387,-2.3085,0.0,0.0,0.0,0.0,0.0,-1.7605,-1.7605,-1.7605,-1.7495,-1.7385,-1.755,-1.7413,-1.7108,-1.6819,-1.646,-1.6088,-1.6054,-1.6077,-1.6107,-1.6107,-1.6207,-1.6315,-1.6315,-1.6489,-1.6651,-1.6525,-1.6588,-1.6651,-1.6525,-1.65,-1.65,-1.65,-1.65,-1.65,-1.65,-1.65,-1.6732,-1.7428,-1.7811,0.0,0.0,0.0,0.0,0.0,0.0,0.0,0.0,0.0,0.0,0.0,0.0,0.0,0.0,0.0,0.0,0.0,0.0,0.0,0.0,0.0,-1.8008,-1.7792,0.0,-1.7363,-1.6377,-1.6186,-1.586,-1.541,-1.541,-1.541,-1.5352,-1.4562,-1.4049,-1.3692,-1.2508,-1.2219,-1.249,-1.207,-1.1997,-1.212,-1.2311,-1.2663,-1.2978,0.0,0.0,0.0,0.0,0.0,0.0,0.0,-2.9807,-2.9917,-3.0306,-3.3354,-3.4464,-3.1793,-3.1486,-2.9424,-2.433,-2.6232,-2.7313,-2.6489,-2.723,-2.7643,-2.7541,-2.6941,-2.6592,-2.6593,-2.5869,-2.5259,0.0,0.0,0.0,0.0,-2.4474,0.0,0.0,0.0,0.0,0.0,-1.7628,-1.7605,-1.7605,-1.7605,-1.7191,-1.668,-1.7357,-1.6771,-1.569,-1.6299,-1.6182,-1.5693,-1.5321,-1.5056,-1.4858,-1.4858,-1.5242,-1.5676,-1.5676,-1.6463,-1.7209,-1.6638,-1.6898,-1.7174,-1.6647,-1.65,-1.65,-1.65,-1.65,-1.65,-1.65,-1.65,-1.6697,-1.731,-1.7448,-1.8185,0.0,0.0,0.0,0.0,0.0,0.0,0.0,0.0,0.0,0.0,0.0,0.0,0.0,0.0,0.0,0.0,0.0,0.0,-1.7891,0.0,-1.8741,-1.911,-1.7993,-1.741,-1.7269,-1.6478,-1.586,-1.541,-1.541,-1.541,-1.5371,-1.4558,-1.35,-1.2324,-1.1742,-1.1668,-1.1959,-1.1918,-1.2212,-1.2703,-1.273,-1.3066,-1.352,0.0,0.0,0.0,0.0,0.0,0.0,0.0,-2.7815,-2.7591,-2.688,-2.8718,-2.9698,-2.8611,-2.8497,-2.7042,-2.3416,-2.4131,-2.5106,-2.5851,-2.6772,-2.7063,-2.658,-2.5983,-2.5643,-2.5612,-2.5033,-2.4791,0.0,0.0,0.0,0.0,0.0,0.0,0.0,0.0,-1.7509,-1.7019,-1.651,-1.6273,-1.6273,-1.6273,-1.6112,-1.5864,-1.6159,-1.5911,-1.5439,-1.5719,-1.5554,-1.5094,-1.4653,-1.4748,-1.5008,-1.4776,-1.488,-1.505,-1.505,-1.5393,-1.5726,-1.5492,-1.5855,-1.6266,-1.6013,-1.6238,-1.65,-1.65,-1.65,-1.65,-1.65,-1.65,-1.6563,-1.6823,-1.7069,-1.7531,0.0,0.0,0.0,0.0,0.0,0.0,0.0,0.0,0.0,0.0,0.0,0.0,0.0,0.0,0.0,0.0,0.0,0.0,-1.7396,0.0,-1.7509,-1.7087,-1.6775,-1.6225,-1.5426,-1.556,-1.5278,-1.4714,-1.5186,-1.5294,-1.507,-1.4412,-1.3648,-1.2807,-1.2014,-1.1883,-1.2157,-1.2366,-1.2594,-1.2804,-1.2998,-1.3287,-1.36,-2.9811,0.0,-2.98,0.0,-2.9267,-2.8301,-2.6724,-2.6226,-2.5742,-2.5066,-2.5278,-2.5498,-2.5511,-2.4918,-2.4003,-2.2744,-2.251,-2.3061,-2.4524,-2.5235,-2.5336,-2.4753,-2.4347,0.0,-2.4047,-2.3673,-2.3673,-2.4047,-2.375,0.0,0.0,0.0,0.0,0.0,-1.7427,-1.6749,-1.6268,-1.5644,-1.541,-1.541,-1.541,-1.5342,-1.5225,-1.5225,-1.5225,-1.5215,-1.5078,-1.4932,-1.4697,-1.4114,-1.4313,-1.4695,-1.4305,-1.4294,-1.4388,-1.4218,-1.4424,-1.4675,-1.4562,-1.4914,-1.5387,-1.5565,-1.5908,-1.6281,-1.6457,-1.65,-1.65,-1.65,-1.65,-1.6457,-1.6259,-1.6712,-1.7082,-1.7062,0.0,0.0,0.0,0.0,0.0,0.0,0.0,-2.0204,-1.9585,0.0,0.0,0.0,0.0,0.0,0.0,0.0,0.0,0.0,0.0,0.0,0.0,-1.5627,-1.5081,-1.4215,-1.4703,-1.4652,-1.4122,-1.4979,-1.5261,-1.5066,-1.4763,-1.4132,-1.3262,-1.2769,-1.253,-1.2496,-1.2804,-1.2978,-1.3079,-1.326,-1.348,-1.3733,-2.9807,-2.9788,-2.9792,-2.9803,-2.7986,-2.653,-2.651,-2.553,-2.4947,-2.5336,-2.408,-2.3123,-2.3119,-2.1198,-2.0317,-2.141,-2.1162,-2.1107,-2.1534,-2.1546,-2.1587,0.0,0.0,-2.1546,-2.1546,-2.1546,-2.1534,-2.1546,0.0,0.0,-2.0389,0.0,-1.8026,-1.7944,-1.6678,-1.586,-1.543,-1.5391,-1.541,-1.541,-1.541,-1.5156,-1.4823,-1.4823,-1.4823,-1.4736,-1.428,-1.4424,-1.4658,-1.3799,-1.3506,-1.3463,-1.3042,-1.3334,-1.369,-1.3101,-1.3772,-1.4607,-1.4233,-1.4403,-1.4858,-1.5454,-1.561,-1.5776,-1.6358,-1.65,-1.65,-1.65,-1.65,-1.6315,-1.572,-1.642,-1.7076,-1.7009,0.0,0.0,0.0,0.0,0.0,0.0,-2.0345,-2.03,-1.7326,0.0,0.0,0.0,0.0,0.0,0.0,0.0,0.0,-1.6699,-1.6891,0.0,-1.6185,-1.4895,-1.4314,-1.4494,-1.4239,-1.4057,-1.3929,-1.4863,-1.5377,-1.553,-1.5761,-1.4901,-1.336,-1.3925,-1.3641,-1.2811,-1.308,-1.334,-1.3593,-1.3593,-1.3828,-1.4082,-2.9514,-2.8582,-2.7532,-2.7571,-2.6985,-2.6327,-2.5816,-2.5459,-2.5025,-2.4518,-2.4331,-2.3977,-2.3188,-2.1128,-1.996,0.0,-2.0693,-2.1067,0.0,-2.1493,-2.1493,-2.1493,-2.1493,-2.1244,-2.075,-2.075,-2.0632,-2.0402,0.0,0.0,0.0,-1.7357,-1.6759,-1.682,-1.5999,-1.5861,-1.6238,-1.5655,-1.541,-1.541,-1.541,-1.5332,-1.5186,-1.4893,-1.4961,-1.5117,-1.4367,-1.4414,-1.4686,-1.3906,-1.3647,-1.3543,-1.3067,-1.3041,-1.3142,-1.2972,-1.3174,-1.3443,-1.3317,-1.3687,-1.4143,-1.4318,-1.4994,-1.5654,-1.5842,-1.6194,-1.65,-1.65,-1.65,-1.6315,-1.5698,-1.602,-1.6221,-1.5782,-1.6336,0.0,0.0,0.0,0.0,0.0,0.0,-1.8605,0.0,-1.789,0.0,0.0,0.0,0.0,0.0,0.0,0.0,0.0,-1.6444,0.0,-1.4182,-1.3309,-1.2835,-1.2721,-1.3208,-1.3601,-1.3941,-1.5165,-1.5731,-1.5813,-1.6199,-1.6042,-1.5497,-1.4564,-1.4028,-1.3739,-1.3539,-1.352,-1.3626,-1.3874,-1.4008,-1.4088,-2.8303,-2.7454,-2.6021,-2.4542,-2.4614,-2.4672,-2.4089,-2.3958,-2.3796,-2.3481,-2.3852,-2.3548,-2.1866,-2.0053,0.0,-1.9741,-2.0232,-2.0578,-2.0853,-2.0595,-2.0459,-2.0459,-2.0199,-1.9825,-1.9364,0.0,0.0,-1.9362,-1.911,-1.8448,-1.7502,-1.6367,-1.6008,-1.6276,-1.5684,-1.5684,-1.6188,-1.5645,-1.541,-1.541,-1.541,-1.5312,-1.5127,-1.4707,-1.4697,-1.4796,-1.3938,-1.3936,-1.4226,-1.3612,-1.3401,-1.3327,-1.3003,-1.2905,-1.2905,-1.2905,-1.2905,-1.2905,-1.2905,-1.3176,-1.3529,-1.3745,-1.4365,-1.4971,-1.5208,-1.5732,-1.6173,-1.6173,-1.6337,-1.625,-1.541,-1.5527,-1.5502,-1.4841,-1.5352,-1.5825,-1.5731,0.0,0.0,0.0,0.0,0.0,0.0,-1.7967,-1.8154,0.0,0.0,0.0,0.0,0.0,0.0,-1.6207,-1.5302,0.0,-1.3227,-1.2608,-1.2235,-1.205,-1.2553,-1.3108,-1.3695,-1.4778,-1.5446,-1.5816,-1.6216,-1.6154,-1.576,-1.4896,-1.4328,-1.397,-1.3852,-1.3808,-1.3793,-1.4015,-1.4088,-1.4088,-2.6489,-2.6402,0.0,0.0,-2.1435,0.0,-2.1729,-2.1518,-2.1618,-2.2288,-2.2616,-2.1906,-1.9535,-1.8248,-1.81,-1.9489,0.0,0.0,0.0,-1.9032,-1.8688,-1.8635,-1.7977,-1.7578,-1.7523,-1.7523,-1.7796,-1.8337,-1.7661,-1.7092,-1.6638,-1.5781,-1.5704,-1.6226,-1.5635,-1.541,-1.541,-1.541,-1.541,-1.541,-1.541,-1.5176,-1.4775,-1.428,-1.4124,-1.4036,-1.3193,-1.3154,-1.3447,-1.3052,-1.2905,-1.2905,-1.2905,-1.2905,-1.2905,-1.2905,-1.2905,-1.2905,-1.2905,-1.2905,-1.3041,-1.36,-1.3768,-1.3956,-1.456,-1.5118,-1.5543,-1.5588,-1.6008,-1.6042,-1.4903,-1.4996,-1.4984,-1.4199,-1.4482,-1.4912,-1.5273,0.0,0.0,0.0,0.0,0.0,0.0,-1.8281,-1.8136,0.0,0.0,0.0,0.0,0.0,-1.5599,-1.5339,-1.377,-1.3013,-1.3185,-1.2591,-1.2288,-1.2305,-1.2305,-1.2633,-1.3255,-1.391,-1.4696,-1.552,-1.5847,-1.549,-1.4708,-1.5004,-1.4531,-1.375,-1.4018,-1.4088,-1.4088,-1.4088,-1.4102,-1.4115,0.0,0.0,-2.324,-2.015,-2.0818,-2.1737,-2.1497,-2.1431,-2.1317,-2.1088,-2.0364,-1.9678,-1.9045,-1.7824,-1.722,-1.7561,-1.8439,-1.8715,-1.8167,-1.8474,-1.8447,-1.7868,-1.7677,-1.733,-1.6754,-1.6765,-1.6741,-1.6677,-1.6497,-1.6356,-1.6242,-1.5664,-1.5469,-1.5606,-1.5459,-1.541,-1.541,-1.541,-1.541,-1.541,-1.541,-1.5352,-1.5186,-1.4397,-1.4309,-1.4473,-1.3326,-1.3154,-1.3447,-1.3052,-1.2905,-1.2905,-1.2905,-1.2905,-1.2905,-1.2905,-1.2905,-1.2905,-1.2905,-1.2905,-1.292,-1.3079,-1.3457,-1.3956,-1.456,-1.4812,-1.5028,-1.5521,-1.5354,-1.5051,-1.4744,-1.464,-1.4393,-1.3761,-1.4287,-1.4697,-1.4445,-1.5259,0.0,0.0,-1.657,-1.704,-1.6995,-1.7432,-1.7698,0.0,0.0,0.0,0.0,-1.5022,-1.3582,-1.4471,-1.3752,-1.322,-1.289,-1.2518,-1.2314,-1.2305,-1.2305,-1.2385,-1.2573,-1.3688,-1.4338,-1.4584,-1.5561,-1.5881,-1.565,-1.5274,-1.4951,-1.4685,-1.4289,-1.4088,-1.4088,-1.4088,-1.4229,-1.4389,-2.4459,-2.3262,-2.1529,-1.9469,-1.9849,-2.0338,-2.0133,-1.9972,-1.9631,-1.908,-1.8446,-1.7864,-1.7366,-1.6655,-1.621,-1.6218,-1.744,-1.8043,-1.7633,-1.766,-1.7523,-1.7107,-1.6771,-1.6415,-1.6007,-1.6007,-1.5926,-1.5762,-1.5762,-1.5762,-1.5762,-1.5527,-1.541,-1.541,-1.541,-1.541,-1.541,-1.541,-1.541,-1.541,-1.541,-1.541,-1.5342,-1.4687,-1.4453,-1.4375,-1.3486,-1.3193,-1.3184,-1.2983,-1.2905,-1.2905,-1.2905,-1.2905,-1.2905,-1.2905,-1.2905,-1.2905,-1.2905,-1.2905,-1.2905,-1.2905,-1.3152,-1.3467,-1.3789,-1.4084,-1.4376,-1.471,-1.4744,-1.4617,-1.4329,-1.4353,-1.4202,-1.3598,-1.4228,-1.4697,-1.4463,-1.5074,0.0,-1.5713,-1.6218,-1.6647,-1.6995,-1.7422,-1.7764,-1.7988,-1.8002,0.0,-1.7637,-1.5067,-1.4066,-1.5003,-1.3814,-1.3154,-1.3121,-1.2717,-1.2443,-1.2305,-1.2459,-1.2538,-1.2561,-1.3516,-1.3926,-1.3988,-1.4783,-1.512,-1.5108,-1.4772,-1.4645,-1.4602,-1.4239,-1.4088,-1.4088,-1.4088,-1.4188,-1.4315,-2.1625,-2.1057,-2.0103,-1.8948,-1.8828,-1.8769,-1.8533,-1.8208,-1.7774,-1.7218,-1.706,-1.6661,-1.5621,-1.5438,-1.5405,-1.54,-1.6557,-1.7274,-1.7274,-1.6793,-1.6464,-1.635,-1.5719,-1.541,-1.541,-1.541,-1.541,-1.541,-1.541,-1.541,-1.541,-1.541,-1.541,-1.541,-1.541,-1.541,-1.541,-1.541,-1.541,-1.541,-1.541,-1.5371,-1.5264,-1.4844,-1.4424,-1.3958,-1.3539,-1.3184,-1.2905,-1.2905,-1.2905,-1.2905,-1.2905,-1.2905,-1.2905,-1.2905,-1.2905,-1.2905,-1.2905,-1.2905,-1.2905,-1.2905,-1.2905,-1.2905,-1.2905,-1.331,-1.3684,-1.3768,-1.4174,-1.4392,-1.3968,-1.4153,-1.421,-1.3759,-1.4365,-1.4883,-1.4883,0.0,-1.5752,-1.6153,-1.6553,-1.7002,-1.7432,-1.7803,-1.8008,-1.8008,-1.8008,-1.7533,-1.644,-1.5713,-1.5375,-1.5428,-1.3798,-1.305,-1.3306,-1.2902,-1.2597,-1.2311,-1.2607,-1.2746,-1.2822,-1.3327,-1.356,-1.362,-1.3955,-1.4088,-1.4088,-1.4088,-1.4088,-1.4088,-1.4135,-1.4128,-1.4095,-1.4188,-1.4222,-1.4255,-1.9854,-1.9813,-1.9461,-1.8337,-1.8421,-1.8514,-1.813,-1.8047,-1.7828,-1.7399,-1.7019,-1.6558,-1.6063,-1.5644,-1.54,-1.5391,-1.5604,-1.5748,-1.5748,-1.6226,-1.6208,-1.5613,-1.5468,-1.541,-1.541,-1.541,-1.541,-1.541,-1.541,-1.541,-1.541,-1.541,-1.541,-1.541,-1.541,-1.541,-1.541,-1.541,-1.541,-1.541,-1.541,-1.5205,-1.4834,-1.4367,-1.3948,-1.3545,-1.3135,-1.2964,-1.2905,-1.2905,-1.2905,-1.2905,-1.2905,-1.2905,-1.2905,-1.2905,-1.2905,-1.2905,-1.2905,-1.2905,-1.2905,-1.2905,-1.2905,-1.2905,-1.2905,-1.2968,-1.3176,-1.3684,-1.374,-1.3806,-1.4222,-1.4236,-1.4257,-1.4559,-1.5,-1.5312,-1.5312,0.0,-1.6521,-1.659,-1.7012,-1.7451,-1.7871,-1.7969,-1.8008,-1.8008,-1.8008,-1.7905,-1.7713,-1.6587,-1.502,-1.2952,-1.321,-1.3099,-1.2474,-1.2415,-1.2342,-1.2305,-1.2354,-1.2514,-1.2824,-1.3126,-1.3373,-1.362,-1.3955,-1.4088,-1.4088,-1.4088,-1.4088,-1.4115,-1.4355,-1.4302,-1.4148,-1.4687,-1.4874,-1.4881,-1.8692,-1.9068,-1.9168,-1.817,-1.8317,-1.8461,-1.8076,-1.8008,-1.7773,-1.7119,-1.6824,-1.6443,-1.5781,-1.5527,-1.541,-1.541,-1.541,-1.541,-1.541,-1.5729,-1.5748,-1.541,-1.541,-1.541,-1.541,-1.541,-1.541,-1.541,-1.541,-1.541,-1.541,-1.541,-1.541,-1.541,-1.541,-1.541,-1.541,-1.541,-1.5399,-1.5375,-1.5078,-1.4862,-1.4636,-1.4255,-1.3851,-1.3486,-1.3281,-1.3076,-1.2905,-1.2905,-1.2905,-1.2905,-1.2905,-1.2905,-1.2905,-1.2905,-1.2905,-1.2905,-1.2905,-1.2905,-1.2905,-1.2905,-1.2905,-1.2905,-1.2905,-1.3057,-1.3313,-1.358,-1.3739,-1.3916,-1.4182,-1.4367,-1.4473,-1.4443,-1.5176,0.0,0.0,-1.6141,-1.6785,-1.7061,-1.7256,-1.7549,-1.7969,-1.8008,-1.8008,-1.8008,-1.8008,-1.7983,-1.7985,-1.7445,-1.6272,-1.4413,-1.3608,-1.2981,-1.2583,-1.2561,-1.2569,-1.256,-1.2701,-1.2951,-1.3247,-1.3561,-1.3754,-1.3895,-1.4028,-1.4088,-1.4088,-1.4088,-1.4088,-1.4115,-1.4409,-1.4436,-1.4355,-1.4623,-1.4823,-1.5008,-1.8002,-1.8611,-1.8896,-1.8144,-1.8247,-1.8344,-1.8057,-1.8008,-1.7705,-1.6814,-1.6697,-1.6365,-1.5508,-1.541,-1.541,-1.541,-1.541,-1.541,-1.541,-1.541,-1.541,-1.541,-1.541,-1.541,-1.541,-1.541,-1.541,-1.541,-1.541,-1.541,-1.541,-1.541,-1.541,-1.541,-1.541,-1.541,-1.541,-1.541,-1.5417,-1.5331,-1.4523,-1.4271,-1.435,-1.4069,-1.3704,-1.3359,-1.3359,-1.3154,-1.2905,-1.2905,-1.2905,-1.2881,-1.2691,-1.2632,-1.2632,-1.2632,-1.2632,-1.2691,-1.2856,-1.2905,-1.2905,-1.2905,-1.2983,-1.2998,-1.2925,-1.3281,-1.3597,-1.3525,-1.3926,-1.426,-1.426,-1.4639,-1.4893,-1.4728,0.0,0.0,0.0,-1.6512,-1.7012,-1.7038,-1.7329,-1.758,-1.7653,-1.7862,-1.8008,-1.8008,-1.774,-1.7777,-1.8275,-1.7976,-1.7452,-1.6649,-1.4372,-1.3226,-1.3261,-1.3008,-1.2869,-1.2904,-1.3094,-1.336,-1.36,-1.3872,-1.4043,-1.4088,-1.4088,-1.4088,-1.4088,-1.4088,-1.4088,-1.4122,-1.4482,-1.4583,-1.4499,-1.475,-1.493,-1.5122,-1.7992,-1.8354,-1.851,-1.8086,-1.8037,-1.8047,-1.8018,-1.8008,-1.7705,-1.6814,-1.6697,-1.6365,-1.5508,-1.541,-1.541,-1.541,-1.541,-1.541,-1.541,-1.541,-1.541,-1.541,-1.541,-1.541,-1.541,-1.541,-1.541,-1.541,-1.541,-1.541,-1.541,-1.541,-1.541,-1.541,-1.541,-1.541,-1.541,-1.541,-1.54,-1.5255,-1.366,-1.3314,-1.3748,-1.3604,-1.3291,-1.2954,-1.2954,-1.2935,-1.2905,-1.2905,-1.2905,-1.2774,-1.2104,-1.1888,-1.1888,-1.1888,-1.1888,-1.203,-1.2715,-1.2905,-1.2905,-1.2905,-1.3174,-1.3359,-1.2969,-1.3506,-1.3948,-1.3584,-1.416,-1.4736,-1.4736,-1.5078,-1.5625,-1.6385,0.0,0.0,-1.7187,-1.7627,-1.7417,-1.6151,-1.7148,-1.7619,-1.6775,-1.7501,-1.8008,-1.8008,-1.6911,-1.7095,-1.9093,-1.7969,-1.7524,-1.8103,-1.5505,-1.4296,-1.4641,-1.3666,-1.3175,-1.3186,-1.32,-1.336,-1.3594,-1.3608,-1.3795,-1.4088,-1.4088,-1.4088,-1.4088,-1.4088,-1.4088,-1.4142,-1.4754,-1.4763,-1.4616,-1.5431,-1.5578,-1.5404,-1.7988,-1.81,-1.8159,-1.8037,-1.8008,-1.8008,-1.8008,-1.8008,-1.7793,-1.7217,-1.6863,-1.6473,-1.5909,-1.5566,-1.541,-1.541,-1.541,-1.541,-1.541,-1.541,-1.541,-1.541,-1.541,-1.541,-1.541,-1.541,-1.541,-1.541,-1.4903,-1.4921,-1.5399,-1.4378,-1.4446,-1.536,-1.4378,-1.4183,-1.4678,-1.484,-1.4897,-1.4795,-1.3446,-1.3023,-1.321,-1.3139,-1.3042,-1.2905,-1.2905,-1.2905,-1.2832,-1.2369,-1.2212,-1.2113,-1.1391,-1.1191,-1.1209,-1.1421,-1.1489,-1.1593,-1.2026,-1.2026,-1.2032,-1.2536,-1.2893,-1.3206,-1.3562,-1.4111,-1.4492,-1.4336,-1.4766,-1.5176,-1.5176,-1.5303,-1.5518,-1.5829,0.0,-1.6755,-1.6921,-1.704,-1.6936,-1.6394,-1.6618,-1.6674,-1.634,-1.7326,-1.7988,-1.7983,-1.755,-1.7276,-1.7298,-1.7769,-1.8322,-1.89,-1.7514,-1.6211,-1.511,-1.4489,-1.3934,-1.344,-1.3454,-1.3593,-1.3915,-1.3929,-1.399,-1.4088,-1.4088,-1.4188,-1.4355,-1.4355,-1.4462,-1.4713,-1.5077,-1.5164,-1.5104,-1.5438,-1.5605,-1.5658,-1.8008,-1.8008,-1.8008,-1.8008,-1.8008,-1.8008,-1.8008,-1.8008,-1.7861,-1.7441,-1.7002,-1.6562,-1.6144,-1.5674,-1.541,-1.541,-1.541,-1.541,-1.541,-1.541,-1.541,-1.541,-1.541,-1.541,-1.541,-1.541,-1.5294,-1.5021,-1.4714,-1.4513,-1.4381,-1.3282,-1.3342,-1.4351,-1.3437,-1.3245,-1.3691,-1.3683,-1.3894,-1.4202,-1.2948,-1.2735,-1.3157,-1.309,-1.3076,-1.3076,-1.3076,-1.3023,-1.2798,-1.2055,-1.1789,-1.1641,-1.0762,-1.0563,-1.0645,-1.0759,-1.0942,-1.1099,-1.1092,-1.1005,-1.1131,-1.2039,-1.2488,-1.2852,-1.3241,-1.3997,-1.4563,-1.444,-1.4936,-1.541,-1.541,-1.541,-1.5508,-1.5751,-1.6307,-1.6782,-1.7071,-1.7081,-1.6831,-1.6228,-1.5972,-1.5569,-1.4983,-1.6263,-1.7357,-1.7949,-1.6899,-1.6269,-1.6395,-1.8059,-1.9238,-1.9678,-1.8954,-1.7682,-1.5932,-1.5382,-1.4649,-1.3776,-1.3754,-1.3895,-1.4088,-1.4088,-1.4088,-1.4088,-1.4182,-1.4282,-1.4396,-1.4573,-1.4712,-1.487,-1.5271,-1.5417,-1.5404,-1.5498,-1.5658,-1.5751,-1.8008,-1.8008,-1.8008,-1.8008,-1.8008,-1.8008,-1.8008,-1.8008,-1.7861,-1.7474,-1.7012,-1.6562,-1.6153,-1.5684,-1.5391,-1.541,-1.541,-1.541,-1.541,-1.541,-1.541,-1.5381,-1.541,-1.541,-1.541,-1.541,-1.5021,-1.4213,-1.4984,-1.4282,-1.2202,-1.2202,-1.2202,-1.2233,-1.2747,-1.2832,-1.2551,-1.1884,-1.2411,-1.3541,-1.2088,-1.236,-1.3666,-1.353,-1.348,-1.3496,-1.3496,-1.3232,-1.2798,-1.2055,-1.1789,-1.1566,-1.0218,-1.0026,-1.0217,-0.9822,-1.0157,-1.0551,-0.9889,-0.99,-1.037,-1.1429,-1.2049,-1.2265,-1.1825,-1.2995,-1.4075,-1.3688,-1.4562,-1.5381,-1.5381,-1.5391,-1.5673,-1.6529,-1.6675,-1.7003,-1.7841,-1.796,-1.7278,-1.5427,-1.5163,-1.4431,-1.248,-1.4057,-1.5983,-1.7828,-1.4458,-1.3691,-1.683,-1.8836,-2.0107,-2.0586,-1.9559,-1.847,-1.7293,-1.6232,-1.5179,-1.4088,-1.4088,-1.4088,-1.4088,-1.4088,-1.4088,-1.4108,-1.4396,-1.4355,-1.4171,-1.4753,-1.4801,-1.4584,-1.5153,-1.5416,-1.5438,-1.5678,-1.5784,-1.5784,-1.8008,-1.8008,-1.8008,-1.8008,-1.8008,-1.8008,-1.8008,-1.8008,-1.7969,-1.7842,-1.7451,-1.7021,-1.6582,-1.6133,-1.5772,-1.5439,-1.541,-1.541,-1.541,-1.541,-1.5147,-1.4569,-1.5108,-1.541,-1.541,-1.539,-1.5261,-1.5053,-1.3757,-1.3007,-1.2723,-1.1365,-1.1112,-1.1735,-1.1019,-1.096,-1.1378,-1.089,-1.1044,-1.1554,-1.117,-1.1481,-1.2135,-1.1762,-1.1903,-1.2314,-1.2314,-1.2556,-1.2725,-1.15,-1.1091,-1.0913,-0.9744,-0.9611,-0.9886,-0.9959,-1.0129,-1.029,-1.0333,-1.0392,-1.0626,-1.127,-1.1705,-1.2087,-1.2525,-1.2994,-1.3489,-1.3942,-1.3865,-1.3964,-1.4766,-1.4404,-1.4158,-1.4636,-1.5296,-1.5687,-1.5549,-1.5423,-1.5124,-1.4555,-1.3717,-1.2947,-1.2346,-1.5253,-1.6262,-1.4151,-1.5411,-1.6697,-1.763,-1.8836,-1.9531,-1.9668,-1.9976,-1.9195,-1.7334,-1.6232,-1.5179,-1.4088,-1.4088,-1.4195,-1.4382,-1.4372,-1.4507,-1.4727,-1.484,-1.492,-1.5024,-1.5224,-1.5321,-1.5444,-1.5604,-1.5678,-1.5712,-1.5751,-1.5784,-1.5784,-1.8008,-1.8008,-1.8008,-1.8008,-1.8008,-1.8008,-1.8008,-1.8008,-1.8008,-1.8008,-1.7646,-1.7285,-1.7021,-1.6436,-1.5987,-1.5693,-1.5508,-1.541,-1.541,-1.5108,-1.4843,-1.4671,-1.4517,-1.4451,-1.4451,-1.4657,-1.4441,-1.3779,-1.2559,-1.1859,-1.1677,-1.04,-1.0201,-1.0821,-1.0051,-0.9893,-1.0199,-0.9964,-1.0139,-1.0547,-1.0567,-1.1176,-1.1991,-1.1121,-1.1283,-1.1925,-1.201,-1.2266,-1.2376,-1.1052,-1.0506,-1.0255,-0.9741,-0.9706,-0.9913,-1.0207,-1.0294,-1.0327,-1.0546,-1.0593,-1.0665,-1.096,-1.1176,-1.1437,-1.1934,-1.2305,-1.2665,-1.3144,-1.3208,-1.3374,-1.407,-1.3852,-1.3713,-1.4072,-1.4798,-1.5094,-1.4474,-1.449,-1.4294,-1.3543,-1.279,-1.2288,-1.2306,-1.4395,-1.5119,-1.3565,-1.6591,-1.8562,-1.8685,-1.8833,-1.9004,-1.9175,-1.8852,-1.8012,-1.6683,-1.5587,-1.4734,-1.4088,-1.4228,-1.4323,-1.4505,-1.4643,-1.4787,-1.5005,-1.5103,-1.5171,-1.5266,-1.5377,-1.542,-1.5504,-1.5583,-1.5657,-1.5671,-1.5738,-1.5784,-1.5784,-1.8008,-1.8008,-1.8008,-1.8008,-1.8008,-1.8008,-1.8008,-1.8008,-1.8008,-1.8008,-1.7646,-1.7363,-1.7334,-1.6643,-1.6134,-1.6095,-1.5634,-1.5332,-1.5294,-1.4579,-1.4435,-1.504,-1.3722,-1.2926,-1.2795,-1.3375,-1.2879,-1.1338,-1.142,-1.0865,-0.9719,-0.9528,-0.9521,-0.9715,-0.9682,-0.9479,-0.9171,-0.9171,-0.9563,-1.0206,-1.0115,-1.113,-1.2548,-1.1161,-1.1126,-1.183,-1.2059,-1.2068,-1.181,-1.0721,-1.008,-0.9773,-1.0033,-1.0134,-1.0207,-1.0512,-1.0593,-1.0593,-1.0593,-1.0593,-1.0593,-1.0593,-1.0593,-1.0593,-1.0593,-1.1192,-1.1755,-1.1809,-1.2578,-1.3244,-1.334,-1.355,-1.3854,-1.4225,-1.4699,-1.4794,-1.4129,-1.4574,-1.435,-1.2573,-1.2328,-1.2288,-1.2284,-1.2627,-1.3591,-1.5434,-1.7692,-1.9173,-1.9502,-1.8637,-1.8369,-1.8766,-1.6863,-1.5794,-1.5741,-1.4748,-1.4208,-1.4088,-1.4375,-1.4536,-1.4562,-1.4897,-1.5057,-1.5094,-1.535,-1.5308,-1.5084,-1.5351,-1.5279,-1.512,-1.5338,-1.5457,-1.5471,-1.5732,-1.5784,-1.5784,-1.8008,-1.8008,-1.8008,-1.8008,-1.8008,-1.8008,-1.8008,-1.8008,-1.8008,-1.8008,-1.7646,-1.7256,-1.6882,-1.6668,-1.6445,-1.6124,-1.5442,-1.4851,-1.4469,-1.4114,-1.3488,-1.2605,-1.2839,-1.2406,-1.1146,-1.2073,-1.2218,-1.1546,-1.074,-1.0194,-0.9917,-0.9721,-0.965,-0.9702,-0.9439,-0.9144,-0.8871,-0.8871,-0.9173,-0.9563,-0.9233,-0.9625,-1.0322,-0.9534,-0.9361,-0.9547,-0.9932,-1.0457,-1.0973,-1.0694,-1.0342,-1.0033,-1.007,-1.0274,-1.0506,-1.0573,-1.0593,-1.0593,-1.0593,-1.0593,-1.0593,-1.0593,-1.0593,-1.0593,-1.0593,-1.0889,-1.1337,-1.1986,-1.1963,-1.2096,-1.2998,-1.2694,-1.2424,-1.2725,-1.286,-1.2896,-1.2739,-1.3093,-1.3254,-1.281,-1.2473,-1.2298,-1.2311,-1.5027,-1.7235,-1.8331,-1.7353,-1.7127,-1.8091,-1.744,-1.7089,-1.7204,-1.7016,-1.6645,-1.6035,-1.558,-1.4936,-1.4088,-1.4375,-1.4638,-1.4915,-1.518,-1.5414,-1.5651,-1.5705,-1.5685,-1.5651,-1.5677,-1.5697,-1.5632,-1.5705,-1.569,-1.5745,-1.5758,-1.5784,-1.5784,-1.8008,-1.8008,-1.8008,-1.8008,-1.8008,-1.8008,-1.8008,-1.8008,-1.8008,-1.8008,-1.7822,-1.7598,-1.733,-1.7041,-1.6494,-1.5534,-1.5259,-1.483,-1.4051,-1.3397,-1.2823,-1.2383,-1.2056,-1.1447,-1.0624,-1.116,-1.1252,-1.0868,-1.0319,-0.998,-0.984,-0.9753,-0.9715,-0.9708,-0.9519,-0.9365,-0.9225,-0.9225,-0.9427,-0.9717,-0.9464,-0.952,-0.9705,-0.9655,-0.9662,-0.9686,-0.9885,-1.0163,-1.0428,-1.0611,-1.0499,-1.0327,-1.0327,-1.0466,-1.0593,-1.0593,-1.0593,-1.0593,-1.0593,-1.0593,-1.0593,-1.0593,-1.0591,-1.0652,-1.0801,-1.0921,-1.1161,-1.1715,-1.1655,-1.174,-1.2311,-1.2264,-1.2124,-1.2278,-1.2305,-1.2351,-1.2529,-1.2766,-1.2927,-1.3037,-1.2844,-1.2824,-1.3139,-1.6854,-1.857,-1.6942,-1.6686,-1.6803,-1.72,-1.6602,-1.6236,-1.6236,-1.6053,-1.5779,-1.5354,-1.5347,-1.5088,-1.4546,-1.466,-1.4915,-1.521,-1.545,-1.5669,-1.5784,-1.5784,-1.5784,-1.5778,-1.5669,-1.5598,-1.5616,-1.5604,-1.559,-1.5638,-1.5731,-1.5784,-1.5784,-1.8008,-1.8008,-1.8008,-1.8008,-1.8008,-1.8008,-1.8008,-1.8008,-1.8008,-1.8008,-1.7993,-1.7997,-1.7997,-1.7412,-1.6426,-1.4926,-1.4982,-1.4644,-1.3588,-1.2515,-1.2126,-1.2578,-1.1314,-1.0593,-1.0593,-1.0593,-1.0445,-1.0083,-1.0037,-0.9947,-0.9753,-0.9735,-0.9735,-0.976,-0.976,-0.9733,-0.9715,-0.9715,-0.9846,-1.0083,-1.003,-0.9936,-0.991,-1.041,-1.0615,-1.0608,-1.0608,-1.043,-1.0234,-1.0512,-1.0626,-1.0667,-1.0667,-1.07,-1.0727,-1.068,-1.0667,-1.066,-1.0606,-1.0593,-1.06,-1.0653,-1.0633,-1.0718,-1.1196,-1.1216,-1.1176,-1.1415,-1.1653,-1.1781,-1.1781,-1.2095,-1.2305,-1.2305,-1.2345,-1.2502,-1.2833,-1.2961,-1.3084,-1.3253,-1.3333,-1.3559,-1.4063,-1.7355,-1.7996,-1.4366,-1.5756,-1.6691,-1.6555,-1.5833,-1.5443,-1.5494,-1.4848,-1.4569,-1.4669,-1.4863,-1.5062,-1.5149,-1.509,-1.5191,-1.5397,-1.5661,-1.5784,-1.5784,-1.5784,-1.5784,-1.5778,-1.5561,-1.546,-1.546,-1.546,-1.547,-1.5504,-1.5738,-1.5784,-1.5784,-1.8008,-1.8008,-1.8008,-1.8008,-1.8008,-1.8008,-1.8008,-1.8008,-1.8008,-1.8008,-1.7998,-1.7995,-1.7995,-1.7244,-1.6331,-1.523,-1.4338,-1.3432,-1.2476,-1.1416,-1.0866,-1.0929,-1.0726,-1.0593,-1.0593,-1.0593,-1.0445,-1.0083,-0.9866,-0.9846,-1.0053,-0.98,-0.982,-1.006,-1.006,-0.992,-0.9715,-0.9715,-0.9846,-1.0094,-1.0044,-1.0181,-1.0499,-1.0561,-1.0602,-1.0618,-1.0618,-1.0568,-1.0539,-1.0579,-1.076,-1.0935,-1.0935,-1.1109,-1.1263,-1.1009,-1.0935,-1.0914,-1.066,-1.0593,-1.0653,-1.0947,-1.0811,-1.0862,-1.1908,-1.1869,-1.1603,-1.1642,-1.1959,-1.2201,-1.2201,-1.2278,-1.2305,-1.2305,-1.26,-1.2909,-1.3123,-1.3332,-1.35,-1.354,-1.3814,-1.3991,-1.4077,-1.4635,-1.4731,-1.414,-1.4365,-1.492,-1.5793,-1.4873,-1.4408,-1.4659,-1.4539,-1.4763,-1.5271,-1.507,-1.5217,-1.5705,-1.5448,-1.5359,-1.5421,-1.5691,-1.5784,-1.5784,-1.5784,-1.5784,-1.5784,-1.5778,-1.573,-1.573,-1.573,-1.5751,-1.5724,-1.5764,-1.5784,-1.5784,-1.6945,-1.6945,-1.6945,-1.6945,-1.6945,-1.6945,-1.6945,-1.6662,-1.6577,-1.6885,-1.6651,-1.6542,-1.6899,-1.5957,-1.4751,-1.3358,-1.3015,-1.2583,-1.1968,-1.1274,-1.0896,-1.088,-1.0712,-1.0593,-1.0593,-1.0593,-1.0526,-1.0399,-1.0265,-1.0271,-1.0392,-1.0265,-1.0271,-1.0399,-1.0399,-1.0325,-1.0204,-1.0204,-1.0278,-1.0385,-1.0356,-1.0434,-1.0611,-1.059,-1.0586,-1.0593,-1.0593,-1.07,-1.0834,-1.0834,-1.0995,-1.1236,-1.1236,-1.1289,-1.1369,-1.1269,-1.1236,-1.1169,-1.0914,-1.0699,-1.0665,-1.1035,-1.1317,-1.1667,-1.2205,-1.2155,-1.2032,-1.2032,-1.2168,-1.2308,-1.2304,-1.2287,-1.2293,-1.2279,-1.2727,-1.3124,-1.3332,-1.348,-1.3666,-1.3874,-1.4008,-1.4104,-1.4107,-1.4084,-1.4112,-1.4096,-1.4092,-1.436,-1.5021,-1.4572,-1.4462,-1.4756,-1.4923,-1.513,-1.5391,-1.5431,-1.5578,-1.5778,-1.5658,-1.5631,-1.5617,-1.5765,-1.5784,-1.5784,-1.5784,-1.5784,-1.5784,-1.5784,-1.5784,-1.5784,-1.5784,-1.5784,-1.5784,-1.5784,-1.5784,-1.5784]},{"header":{"parameterUnit":"m.s-1","parameterCategory":1,"la1":30.6,"la2":28.766,"lo1":-90.7593,"lo2":-88.6598,"dy":0.0162,"dx":0.0183,"nx":116,"ny":114,"refTime":"2023-10-05T12:00:00:Z","depth":0,"parameterNumber":3,"parameterNumberName":"V-component_of_WINDS"},"data":[0.0,0.0,0.0,0.0,0.0,0.0,0.0,0.0,0.0,0.0,0.0,0.0,0.0,0.0,0.0,0.0,0.0,0.0,0.0,0.0,0.0,0.0,0.0,0.0,0.0,0.0,0.0,0.0,0.0,0.0,0.0,0.0,0.0,0.0,0.0,0.0,0.0,0.0,0.0,0.0,0.0,0.0,0.0,0.0,0.0,0.0,0.0,0.0,0.0,0.0,0.0,0.0,0.0,0.0,0.0,0.0,0.0,0.0,0.0,0.0,0.0,0.0,0.0,0.0,0.0,0.0,0.0,0.0,0.0,0.0,0.0,0.0,0.0,0.0,0.0,0.0,0.0,0.0,0.0,0.0,0.0,0.0,0.0,0.0,0.0,0.0,0.0,0.0,0.0,0.0,0.0,0.0,0.0,0.0,0.0,0.0,0.0,0.0,0.0,0.0,0.0,0.0,0.0,0.0,0.0,0.0,0.0,0.0,0.0,0.0,0.0,0.0,0.0,0.0,0.0,0.0,0.0,0.0,0.0,0.0,0.0,0.0,0.0,0.0,0.0,0.0,0.0,0.0,0.0,0.0,0.0,0.0,0.0,0.0,0.0,0.0,0.0,0.0,0.0,0.0,0.0,0.0,0.0,0.0,0.0,0.0,0.0,0.0,0.0,0.0,0.0,0.0,0.0,0.0,0.0,0.0,0.0,0.0,0.0,0.0,0.0,0.0,0.0,0.0,0.0,0.0,0.0,0.0,0.0,0.0,0.0,0.0,0.0,0.0,0.0,0.0,0.0,0.0,0.0,0.0,0.0,0.0,0.0,0.0,0.0,0.0,0.0,0.0,0.0,0.0,0.0,0.0,0.0,0.0,0.0,0.0,0.0,0.0,0.0,0.0,0.0,0.0,0.0,0.0,0.0,0.0,0.0,0.0,0.0,0.0,0.0,0.0,0.0,0.0,0.0,0.0,0.0,0.0,0.0,0.0,0.0,0.0,0.0,0.0,0.0,0.0,0.0,0.0,0.0,0.0,0.0,0.0,0.0,0.0,0.0,0.0,0.0,0.0,0.0,0.0,0.0,0.0,0.0,0.0,0.0,0.0,0.0,0.0,0.0,0.0,0.0,0.0,0.0,0.0,0.0,0.0,0.0,0.0,0.0,0.0,0.0,0.0,0.0,0.0,0.0,0.0,0.0,0.0,0.0,0.0,0.0,0.0,0.0,0.0,0.0,0.0,0.0,0.0,0.0,0.0,0.0,0.0,0.0,0.0,0.0,0.0,0.0,0.0,0.0,0.0,0.0,0.0,0.0,0.0,0.0,0.0,0.0,0.0,0.0,0.0,0.0,0.0,0.0,0.0,0.0,0.0,0.0,0.0,0.0,0.0,0.0,0.0,0.0,0.0,0.0,0.0,0.0,0.0,0.0,0.0,0.0,0.0,0.0,0.0,0.0,0.0,0.0,0.0,0.0,0.0,0.0,0.0,0.0,0.0,0.0,0.0,0.0,0.0,0.0,0.0,0.0,0.0,0.0,0.0,0.0,0.0,0.0,0.0,0.0,0.0,0.0,0.0,0.0,0.0,0.0,0.0,0.0,0.0,0.0,0.0,0.0,0.0,0.0,0.0,0.0,0.0,0.0,0.0,0.0,0.0,0.0,0.0,0.0,0.0,0.0,0.0,0.0,0.0,0.0,0.0,0.0,0.0,0.0,0.0,0.0,0.0,0.0,0.0,0.0,0.0,0.0,0.0,0.0,0.0,0.0,0.0,0.0,0.0,0.0,0.0,0.0,0.0,0.0,0.0,0.0,0.0,0.0,0.0,0.0,0.0,0.0,0.0,0.0,0.0,0.0,0.0,0.0,0.0,0.0,0.0,0.0,0.0,0.0,0.0,0.0,0.0,0.0,0.0,0.0,0.0,0.0,0.0,0.0,0.0,0.0,0.0,0.0,0.0,0.0,0.0,0.0,0.0,0.0,0.0,0.0,0.0,0.0,0.0,0.0,0.0,0.0,0.0,0.0,0.0,0.0,0.0,0.0,0.0,0.0,0.0,0.0,0.0,0.0,0.0,0.0,0.0,0.0,0.0,0.0,0.0,0.0,0.0,0.0,0.0,0.0,0.0,0.0,0.0,0.0,0.0,0.0,0.0,0.0,0.0,0.0,0.0,0.0,0.0,0.0,0.0,0.0,0.0,0.0,0.0,0.0,0.0,0.0,0.0,0.0,0.0,0.0,0.0,0.0,0.0,0.0,0.0,0.0,0.0,0.0,0.0,0.0,0.0,0.0,0.0,0.0,0.0,0.0,0.0,0.0,0.0,0.0,0.0,0.0,0.0,0.0,0.0,0.0,0.0,0.0,0.0,0.0,0.0,0.0,0.0,0.0,0.0,0.0,0.0,0.0,0.0,0.0,0.0,0.0,0.0,0.0,0.0,0.0,0.0,0.0,0.0,0.0,0.0,0.0,0.0,0.0,0.0,0.0,0.0,0.0,0.0,0.0,0.0,0.0,0.0,0.0,0.0,0.0,0.0,0.0,0.0,0.0,0.0,0.0,0.0,0.0,0.0,0.0,0.0,0.0,0.0,0.0,0.0,0.0,0.0,0.0,0.0,0.0,0.0,0.0,0.0,0.0,0.0,0.0,0.0,0.0,0.0,0.0,0.0,0.0,0.0,0.0,0.0,0.0,0.0,0.0,0.0,0.0,0.0,0.0,0.0,0.0,0.0,0.0,0.0,0.0,0.0,0.0,0.0,0.0,0.0,0.0,0.0,0.0,0.0,0.0,0.0,0.0,0.0,0.0,0.0,0.0,0.0,0.0,0.0,0.0,0.0,0.0,0.0,0.0,0.0,0.0,0.0,0.0,0.0,0.0,0.0,0.0,0.0,0.0,0.0,0.0,0.0,0.0,0.0,0.0,0.0,0.0,0.0,0.0,0.0,0.0,0.0,0.0,0.0,0.0,0.0,0.0,0.0,0.0,0.0,0.0,0.0,0.0,0.0,0.0,0.0,0.0,0.0,0.0,0.0,0.0,0.0,0.0,0.0,0.0,0.0,0.0,0.0,0.0,0.0,0.0,0.0,0.0,0.0,0.0,0.0,0.0,0.0,0.0,0.0,0.0,0.0,0.0,0.0,0.0,0.0,0.0,0.0,0.0,0.0,0.0,0.0,0.0,0.0,0.0,0.0,0.0,0.0,0.0,0.0,0.0,0.0,0.0,0.0,0.0,0.0,0.0,0.0,0.0,0.0,0.0,0.0,0.0,0.0,0.0,0.0,0.0,0.0,0.0,0.0,0.0,0.0,0.0,0.0,0.0,0.0,0.0,0.0,0.0,0.0,0.0,0.0,0.0,0.0,0.0,0.0,0.0,0.0,0.0,0.0,0.0,0.0,0.0,0.0,0.0,0.0,0.0,0.0,0.0,0.0,0.0,0.0,0.0,0.0,0.0,0.0,0.0,0.0,0.0,0.0,0.0,0.0,0.0,0.0,0.0,0.0,0.0,0.0,0.0,0.0,0.0,0.0,0.0,0.0,0.0,0.0,0.0,0.0,0.0,0.0,0.0,0.0,0.0,0.0,0.0,0.0,0.0,0.0,0.0,0.0,0.0,0.0,0.0,0.0,0.0,0.0,0.0,0.0,0.0,0.0,0.0,0.0,0.0,0.0,0.0,0.0,0.0,0.0,0.0,0.0,0.0,0.0,0.0,0.0,0.0,0.0,0.0,0.0,0.0,0.0,0.0,0.0,0.0,0.0,0.0,0.0,0.0,0.0,0.0,0.0,0.0,0.0,0.0,0.0,0.0,0.0,0.0,0.0,0.0,0.0,0.0,0.0,0.0,0.0,0.0,0.0,0.0,0.0,0.0,0.0,0.0,0.0,0.0,0.0,0.0,0.0,0.0,0.0,0.0,0.0,0.0,0.0,0.0,0.0,0.0,0.0,0.0,0.0,0.0,0.0,0.0,0.0,0.0,0.0,0.0,0.0,0.0,0.0,0.0,0.0,0.0,0.0,0.0,0.0,0.0,0.0,0.0,0.0,0.0,0.0,0.0,0.0,0.0,0.0,0.0,0.0,0.0,0.0,0.0,0.0,0.0,0.0,0.0,0.0,0.0,0.0,0.0,0.0,0.0,0.0,0.0,0.0,0.0,0.0,0.0,0.0,0.0,0.0,0.0,0.0,0.0,0.0,0.0,0.0,0.0,0.0,0.0,0.0,0.0,0.0,0.0,0.0,0.0,0.0,0.0,0.0,0.0,0.0,0.0,0.0,0.0,0.0,0.0,0.0,0.0,0.0,0.0,0.0,0.0,0.0,0.0,0.0,0.0,0.0,0.0,0.0,0.0,0.0,0.0,0.0,0.0,0.0,0.0,0.0,0.0,0.0,0.0,0.0,0.0,0.0,0.0,0.0,0.0,0.0,0.0,0.0,0.0,0.0,0.0,0.0,0.0,0.0,0.0,0.0,0.0,0.0,0.0,0.0,0.0,0.0,0.0,0.0,0.0,0.0,0.0,0.0,0.0,0.0,0.0,0.0,0.0,0.0,0.0,0.0,0.0,0.0,0.0,0.0,0.0,0.0,0.0,0.0,0.0,0.0,0.0,0.0,0.0,0.0,0.0,0.0,0.0,0.0,0.0,0.0,0.0,0.0,0.0,0.0,0.0,0.0,0.0,0.0,0.0,0.0,0.0,0.0,0.0,0.0,0.0,0.0,0.0,0.0,0.0,0.0,0.0,0.0,0.0,0.0,0.0,0.0,0.0,0.0,0.0,0.0,0.0,0.0,0.0,0.0,0.0,0.0,0.0,0.0,0.0,0.0,0.0,0.0,0.0,0.0,0.0,0.0,0.0,0.0,0.0,0.0,0.0,0.0,0.0,0.0,0.0,0.0,0.0,0.0,0.0,0.0,0.0,0.0,0.0,0.0,0.0,0.0,0.0,0.0,0.0,0.0,0.0,0.0,0.0,0.0,0.0,0.0,0.0,0.0,0.0,0.0,0.0,0.0,0.0,0.0,0.0,0.0,0.0,0.0,0.0,0.0,0.0,0.0,0.0,0.0,0.0,0.0,0.0,0.0,0.0,0.0,0.0,0.0,0.0,0.0,0.0,0.0,0.0,0.0,0.0,0.0,0.0,0.0,0.0,0.0,0.0,0.0,0.0,0.0,0.0,0.0,0.0,0.0,0.0,0.0,0.0,0.0,0.0,0.0,0.0,0.0,0.0,0.0,0.0,0.0,0.0,0.0,0.0,0.0,0.0,0.0,0.0,0.0,0.0,0.0,0.0,0.0,0.0,0.0,0.0,0.0,0.0,0.0,0.0,0.0,0.0,0.0,0.0,0.0,0.0,0.0,0.0,0.0,0.0,0.0,0.0,0.0,0.0,0.0,0.0,0.0,0.0,0.0,0.0,0.0,0.0,0.0,0.0,0.0,0.0,0.0,0.0,0.0,0.0,0.0,0.0,0.0,0.0,0.0,0.0,0.0,0.0,0.0,0.0,0.0,0.0,0.0,0.0,0.0,0.0,0.0,0.0,0.0,0.0,0.0,0.0,0.0,0.0,0.0,0.0,0.0,0.0,0.0,0.0,0.0,0.0,0.0,0.0,0.0,0.0,0.0,0.0,0.0,0.0,0.0,0.0,0.0,0.0,0.0,0.0,0.0,0.0,0.0,0.0,0.0,0.0,0.0,0.0,0.0,0.0,0.0,0.0,0.0,0.0,0.0,0.0,0.0,0.0,0.0,0.0,0.0,0.0,0.0,0.0,0.0,0.0,0.0,0.0,0.0,0.0,0.0,0.0,0.0,0.0,0.0,0.0,0.0,0.0,0.0,0.0,0.0,0.0,0.0,0.0,0.0,0.0,0.0,0.0,0.0,0.0,0.0,0.0,0.0,0.0,0.0,0.0,0.0,0.0,0.0,0.0,0.0,0.0,0.0,0.0,0.0,0.0,0.0,0.0,0.0,0.0,0.0,0.0,0.0,0.0,0.0,0.0,0.0,0.0,0.0,0.0,0.0,0.0,0.0,0.0,0.0,0.0,0.0,0.0,0.0,0.0,0.0,0.0,0.0,0.0,0.0,0.0,0.0,0.0,0.0,0.0,0.0,0.0,0.0,0.0,0.0,0.0,0.0,2.4294,0.0,0.0,0.0,0.0,0.0,0.0,0.0,0.0,0.0,0.0,0.0,0.0,0.0,0.0,0.0,0.0,0.0,0.0,0.0,0.0,0.0,0.0,0.0,0.0,0.0,0.0,0.0,0.0,0.0,0.0,0.0,0.0,0.0,0.0,0.0,0.0,0.0,0.0,1.6812,1.8465,2.0466,2.2667,2.0118,1.7124,1.3815,0.0,0.0,0.0,0.0,0.0,0.0,0.0,0.0,0.0,0.0,0.0,0.0,0.0,0.0,0.0,0.0,0.0,0.0,0.0,0.0,0.0,0.0,0.0,0.0,0.0,0.0,0.0,0.0,0.0,0.0,0.0,0.0,0.0,0.0,0.0,0.0,0.0,0.0,0.0,0.0,0.0,0.0,0.0,0.0,0.0,0.0,0.0,0.0,0.0,0.0,0.0,0.0,0.0,0.0,0.0,0.0,0.0,0.0,0.0,0.0,0.0,0.0,0.0,0.0,0.0,0.0,0.0,0.0,0.0,0.0,0.0,2.6986,0.0,0.0,0.0,0.0,0.0,0.0,0.0,0.0,0.0,0.0,0.0,0.0,0.0,0.0,0.0,0.0,0.0,0.0,0.0,0.0,0.0,0.0,0.0,1.2331,1.3231,1.2882,1.2447,1.2363,0.0,0.0,0.0,0.0,0.0,0.0,1.4549,1.5868,1.7808,2.0384,2.2857,2.5706,2.8828,2.8296,2.5851,2.1744,1.7621,0.0,0.0,0.0,0.0,0.0,0.0,0.0,0.0,0.0,0.0,0.0,0.0,0.0,0.0,0.0,0.0,0.0,0.0,0.0,0.0,0.0,0.0,0.0,0.0,0.0,0.0,0.0,0.0,0.0,0.0,0.0,0.0,0.0,0.0,0.0,0.0,0.0,0.0,0.0,0.0,0.0,0.0,0.0,0.0,0.0,0.0,0.0,0.0,0.0,0.0,0.0,0.0,0.0,0.0,0.0,0.0,0.0,0.0,0.0,0.0,0.0,0.0,0.0,3.7735,3.8354,3.924,3.9352,3.927,3.8839,3.4865,3.2068,3.028,0.0,0.0,0.0,0.0,0.0,0.0,0.0,0.0,0.0,0.0,0.0,0.0,0.0,0.0,0.0,0.0,0.0,0.0,0.0,0.0,1.3558,1.4012,1.5065,1.6631,1.8829,1.728,1.6797,1.8323,0.0,0.0,0.0,0.0,0.0,1.8005,1.8245,2.0152,2.3853,2.8516,3.1696,3.3373,3.4425,3.4243,3.2702,2.3969,2.0212,2.0194,0.0,0.0,0.0,0.0,0.0,0.0,0.0,0.0,0.0,0.0,0.0,0.0,0.0,0.0,0.0,0.0,0.0,0.0,0.0,0.0,0.0,0.0,0.0,0.0,0.0,0.0,0.0,0.0,0.0,0.0,0.0,0.0,0.0,0.0,0.0,0.0,0.0,0.0,0.0,0.0,0.0,2.7059,2.8648,0.0,0.0,0.0,0.0,0.0,0.0,0.0,0.0,0.0,0.0,0.0,0.0,0.0,3.6839,3.7887,3.9965,4.0747,4.0386,4.1934,4.2467,4.2093,4.2668,4.2377,4.1393,4.176,0.0,3.6171,3.3476,0.0,0.0,0.0,0.0,0.0,0.0,0.0,0.0,0.0,0.0,0.0,0.0,0.0,0.0,0.0,0.0,0.0,0.0,0.0,0.0,0.0,1.7903,1.9899,2.1991,2.1502,2.134,2.2002,1.9899,0.0,0.0,0.0,1.8365,1.9425,2.1099,2.4444,2.9498,3.408,3.6889,3.8048,3.9051,3.9072,3.809,3.3395,2.9333,2.5805,2.3246,0.0,0.0,0.0,0.0,0.0,0.0,0.0,0.0,0.0,0.0,0.0,0.0,0.0,0.0,0.0,0.0,0.0,0.0,0.0,0.0,0.0,0.0,0.0,0.0,0.0,0.0,0.0,0.0,0.0,0.0,0.0,0.0,0.0,0.0,0.0,0.0,0.0,0.0,0.0,2.798,2.9624,3.0342,2.976,2.953,0.0,0.0,0.0,0.0,0.0,0.0,0.0,0.0,0.0,3.8674,4.0199,4.1426,4.2303,4.3684,4.4246,4.3924,4.4737,4.5136,4.5268,4.5563,4.5405,4.4879,4.4671,4.3541,4.1625,3.8016,3.58,3.4453,0.0,0.0,0.0,0.0,2.8903,2.8779,0.0,0.0,0.0,0.0,0.0,0.0,0.0,0.0,0.0,0.0,0.0,0.0,1.9375,2.1517,2.3831,2.6152,2.5879,2.5645,2.5839,2.3571,2.1581,2.0129,2.0809,2.1303,2.1517,2.5165,2.9489,3.4472,3.8333,4.0577,4.1277,4.2174,4.212,4.1263,4.0624,3.7157,3.1669,2.9398,2.6362,2.2879,0.0,0.0,0.0,0.0,0.0,0.0,0.0,0.0,0.0,0.0,0.0,0.0,0.0,0.0,0.0,0.0,0.0,0.0,0.0,0.0,0.0,0.0,0.0,0.0,0.0,0.0,0.0,0.0,0.0,0.0,0.0,0.0,0.0,0.0,0.0,0.0,0.0,3.0735,3.2445,3.2287,3.3021,3.3251,0.0,0.0,0.0,0.0,0.0,0.0,3.6465,3.8565,4.0515,4.2356,4.4329,4.5559,4.6052,4.6576,4.6741,4.6576,4.6576,4.683,4.7309,4.7309,4.7219,4.6995,4.5992,4.5364,4.4762,4.1225,3.8878,3.7299,3.5625,3.4084,3.284,3.3188,3.2807,3.2314,0.0,0.0,0.0,0.0,0.0,0.0,0.0,0.0,0.0,0.0,0.0,2.2056,2.514,2.6519,2.8914,3.3198,3.074,2.9478,3.075,2.7868,2.5309,2.3539,2.4092,2.482,2.559,3.1106,3.5107,3.739,4.0404,4.1901,4.1965,4.3275,4.3529,4.2891,4.2858,4.1135,3.8054,3.4237,3.1691,2.9955,2.6324,0.0,0.0,0.0,0.0,0.0,0.0,0.0,0.0,0.0,0.0,0.0,0.0,0.0,0.0,0.0,0.0,0.0,0.0,0.0,0.0,0.0,0.0,0.0,0.0,0.0,0.0,0.0,0.0,0.0,0.0,0.0,0.0,0.0,0.0,0.0,0.0,0.0,0.0,3.5206,3.6896,0.0,0.0,0.0,0.0,3.6794,3.7467,3.8793,4.0949,4.2921,4.4609,4.5998,4.7399,4.8102,4.8132,4.8162,4.7878,4.7249,4.7249,4.7279,4.7309,4.7309,4.6965,4.6324,4.6264,4.5544,4.4212,4.216,4.0698,3.9696,3.8337,3.7195,3.6353,3.6381,3.6263,3.6119,0.0,0.0,0.0,0.0,0.0,0.0,0.0,0.0,1.6543,1.8734,2.2339,2.5275,2.6776,3.0052,3.292,3.4829,3.4417,3.4019,3.396,3.0755,2.8553,2.7899,2.72,2.868,3.2636,3.6527,3.9587,4.186,4.3846,4.4394,4.3584,4.5014,4.4743,4.3113,4.4088,4.3644,4.1893,3.8194,3.5347,3.303,2.9893,2.6294,0.0,0.0,0.0,0.0,0.0,0.0,0.0,0.0,0.0,0.0,0.0,0.0,0.0,0.0,0.0,0.0,0.0,0.0,0.0,0.0,0.0,0.0,0.0,0.0,0.0,0.0,0.0,0.0,0.0,0.0,0.0,0.0,0.0,0.0,0.0,0.0,0.0,3.7691,3.9255,0.0,3.9316,3.8752,3.8843,3.9847,4.1261,4.2822,4.4456,4.6022,4.7474,4.8761,4.9254,4.9344,4.897,4.8955,4.8371,4.7309,4.7309,4.7309,4.7294,4.686,4.6546,4.6234,4.5409,4.4766,4.4227,4.3105,4.2216,4.1498,4.1024,3.9935,3.8688,3.9048,3.8691,3.8076,0.0,0.0,0.0,0.0,0.0,0.0,0.0,1.5865,1.7887,2.0629,2.4871,2.8305,3.0058,3.365,3.6383,3.7537,3.7388,3.6927,3.6113,3.3225,3.1286,3.0707,3.0291,3.256,3.7875,4.0067,4.2262,4.4585,4.5799,4.5828,4.4698,4.5685,4.5147,4.3451,4.4462,4.4712,4.4211,4.1114,3.865,3.6583,3.402,3.1285,2.8416,0.0,0.0,0.0,0.0,0.0,0.0,0.0,0.0,0.0,0.0,0.0,0.0,0.0,0.0,0.0,0.0,0.0,0.0,0.0,0.0,0.0,0.0,0.0,0.0,0.0,0.0,0.0,0.0,0.0,0.0,0.0,0.0,0.0,0.0,0.0,3.9244,3.9037,4.1412,4.2619,4.1477,4.1806,4.2319,4.3019,4.4231,4.5433,4.6556,4.7924,4.891,4.9553,5.0181,5.0047,4.8985,4.9209,4.8655,4.7309,4.7085,4.698,4.695,4.6277,4.5858,4.5603,4.4706,4.4182,4.3888,4.3269,4.2626,4.2073,4.2125,4.1174,3.9856,4.0242,3.9648,3.8713,0.0,0.0,0.0,0.0,0.0,0.0,1.5071,1.6277,1.8539,2.2926,2.7016,3.1068,3.5098,3.7225,3.9264,4.1527,3.9575,3.7931,3.7264,3.5294,3.3425,3.1793,3.3433,3.6449,4.0887,4.1742,4.3184,4.5323,4.604,4.5976,4.5151,4.5168,4.4756,4.3963,4.3981,4.4428,4.504,4.2937,4.1687,4.0944,3.8818,3.7126,3.5583,0.0,0.0,0.0,0.0,0.0,0.0,0.0,0.0,0.0,0.0,0.0,0.0,0.0,0.0,0.0,0.0,0.0,0.0,0.0,0.0,0.0,0.0,0.0,0.0,0.0,0.0,0.0,0.0,0.0,0.0,0.0,0.0,0.0,3.42,3.8605,4.1253,3.9443,4.343,4.5563,4.3603,4.4588,4.5636,4.6337,4.6369,4.6668,4.7362,4.8611,4.9015,4.8341,5.0167,5.0242,4.8312,4.8955,4.8625,4.7294,4.6651,4.6309,4.6264,4.5618,4.493,4.4317,4.4287,4.3888,4.3245,4.2656,4.2036,4.1413,4.1532,4.0862,3.983,3.9914,3.9169,3.8227,0.0,0.0,0.0,0.0,0.0,0.0,1.6017,1.7642,1.9939,2.3155,2.7369,3.1079,3.3722,3.6026,3.8119,3.9908,3.7907,3.6875,3.7578,3.4712,3.3402,3.4383,3.8268,4.1211,4.2964,4.4488,4.5552,4.6102,4.6061,4.5436,4.4273,4.4809,4.4396,4.3213,4.3756,4.4105,4.4294,4.3708,4.3685,4.3781,4.0657,3.8873,3.7857,0.0,0.0,0.0,0.0,0.0,0.0,0.0,0.0,0.0,0.0,0.0,0.0,0.0,0.0,0.0,0.0,0.0,0.0,0.0,0.0,0.0,0.0,0.0,0.0,0.0,0.0,0.0,0.0,0.0,0.0,0.0,0.0,4.06,4.0107,4.1703,4.3275,4.418,4.59,4.6809,4.6266,4.6515,4.7111,4.8022,4.7912,4.817,4.905,4.922,4.9224,4.9045,4.9523,4.9314,4.8297,4.8461,4.8132,4.7309,4.7115,4.6785,4.6264,4.5618,4.493,4.4287,4.3768,4.3469,4.329,4.3135,4.2402,4.1414,4.1436,4.095,4.029,4.0817,4.048,3.9727,0.0,0.0,0.0,0.0,0.0,0.0,1.6993,1.8499,2.0716,2.3785,2.7983,3.1468,3.359,3.5545,3.7218,3.8492,3.6831,3.5842,3.61,3.4661,3.4896,3.7349,4.0703,4.3183,4.4599,4.5667,4.6349,4.6641,4.6459,4.5803,4.4718,4.5143,4.4638,4.3371,4.3803,4.4099,4.4289,4.4032,4.4372,4.4935,4.2976,4.2337,4.236,4.0033,3.9304,3.9189,3.7061,3.6702,3.6872,3.4502,0.0,0.0,0.0,0.0,0.0,0.0,0.0,0.0,0.0,0.0,0.0,0.0,0.0,0.0,0.0,0.0,0.0,0.0,0.0,0.0,0.0,0.0,0.0,0.0,4.1798,4.3776,4.5086,4.5017,4.5081,4.5795,4.6471,4.6882,4.6882,4.7118,4.7528,4.8136,4.7994,4.8343,4.931,4.9457,4.9404,4.9088,4.9663,4.9248,4.7878,4.8147,4.7952,4.7309,4.7025,4.6546,4.5873,4.52,4.4526,0.0,4.3469,4.329,4.3245,4.2731,4.2073,0.0,0.0,0.0,0.0,0.0,3.9614,3.9547,0.0,0.0,0.0,0.0,0.0,0.0,1.7694,1.8818,2.0859,2.4382,2.8246,3.1515,3.3725,3.4965,3.6048,3.704,3.5871,3.4822,3.4176,3.5355,3.7379,4.0351,4.1863,4.3641,4.5728,4.584,4.6153,4.6782,4.6741,4.635,4.5666,4.5666,4.5087,4.4076,4.4065,4.4297,4.4652,4.4117,4.4329,4.5048,4.5075,4.6138,4.7341,4.4128,4.3823,4.4801,4.2668,4.156,4.0905,3.9315,0.0,0.0,0.0,0.0,0.0,0.0,0.0,0.0,0.0,0.0,0.0,0.0,0.0,0.0,0.0,0.0,0.0,0.0,0.0,0.0,0.0,0.0,0.0,0.0,4.3713,4.5442,4.8909,4.8042,4.6644,4.5689,4.6025,4.6291,4.628,4.6779,4.7191,4.7442,4.7413,4.7848,4.8905,0.0,0.0,0.0,0.0,4.9743,4.7666,4.8125,4.8081,4.7452,4.6678,4.5963,4.5274,4.4616,4.3917,4.329,4.3215,4.3185,4.3095,4.1893,4.1377,4.1234,4.0694,3.9429,3.7938,3.7498,3.7876,3.8496,0.0,0.0,0.0,0.0,0.0,0.0,1.7164,1.7822,1.961,2.3374,2.5973,2.8442,3.0987,3.1481,3.2481,3.4568,3.3332,3.3515,3.6062,3.7904,3.9905,4.2115,4.4642,4.587,4.563,4.6007,4.5959,4.5472,4.5199,4.4976,4.4825,4.4825,4.4723,4.4474,4.4482,4.4539,4.4614,4.4497,4.4705,4.5111,4.4653,4.5742,4.7551,4.6901,4.7234,4.7851,4.6226,4.5986,4.602,4.3306,4.274,4.2753,4.0533,3.9445,0.0,0.0,0.0,0.0,0.0,0.0,0.0,0.0,0.0,0.0,0.0,0.0,0.0,0.0,0.0,0.0,0.0,0.0,0.0,4.3929,4.5516,4.7236,4.9816,4.8725,4.7558,4.7349,4.6691,4.6293,4.6293,4.5943,4.6471,4.8373,4.7985,4.8394,4.9999,5.0221,5.023,5.0087,5.0357,5.024,4.9789,4.9087,4.865,4.847,0.0,0.0,4.5274,4.4616,4.3917,4.326,4.2776,4.259,4.253,4.1698,4.107,4.0509,3.9869,3.9394,3.9083,3.9003,3.8744,3.8362,0.0,0.0,0.0,0.0,0.0,0.0,1.6693,1.7254,1.8706,2.1614,2.3748,2.6023,2.8655,2.8915,2.9686,3.1669,3.1416,3.271,3.6407,3.8318,4.0387,4.2843,4.5075,4.6047,4.5614,4.5841,4.5754,4.5342,4.5171,4.5107,4.5107,4.5107,4.5007,4.4852,4.4846,4.4766,4.4594,4.461,4.4599,4.4616,4.4721,4.5562,4.6774,4.6978,4.8024,4.9302,4.8564,4.8817,4.9286,4.777,4.729,4.6974,4.5143,4.4284,4.3351,0.0,0.0,0.0,0.0,0.0,0.0,0.0,0.0,0.0,0.0,0.0,0.0,0.0,0.0,3.9387,0.0,0.0,4.2691,4.518,4.6574,4.787,4.9393,4.856,4.768,4.74,4.6417,4.5677,4.5331,4.5319,4.5923,4.7419,4.6926,4.7668,5.0256,5.0099,5.0279,5.1101,5.1155,5.0488,4.9095,4.8555,4.7875,4.7037,4.6184,4.5274,4.4302,4.3932,4.3284,4.2342,4.2013,4.1916,4.1856,4.116,4.0502,3.9873,3.9544,3.9388,3.9379,3.9035,3.8901,3.8721,0.0,0.0,0.0,0.0,0.0,0.0,0.0,1.6622,1.7741,1.9724,2.1849,2.3999,2.6152,2.6674,2.7511,2.914,3.0531,3.2855,3.6503,3.8423,4.0635,4.3361,4.4868,4.5661,4.5661,4.5661,4.5645,4.5643,4.5643,4.5637,4.5594,4.5594,4.5458,4.52,4.52,4.5042,4.4795,4.4803,4.4568,4.4258,4.4847,4.5349,4.5803,4.5998,4.7552,4.9618,4.9641,4.9959,5.0408,5.0587,5.0126,4.9332,4.8294,4.7886,4.6861,4.2338,4.1791,0.0,0.0,0.0,0.0,0.0,0.0,0.0,0.0,0.0,4.1112,4.2983,4.3092,4.3334,4.4828,4.4466,4.4484,4.607,4.7101,4.7927,4.8529,4.7968,4.7304,4.6776,4.5772,4.4874,4.4357,4.4658,4.5228,4.6055,4.5672,4.668,4.9571,4.9588,5.0095,5.1441,5.1688,5.0603,4.8216,4.7981,4.7114,4.5589,4.5158,4.4362,4.329,4.3021,4.2372,4.1407,4.125,4.1115,4.0965,4.0427,3.9903,3.9388,3.9388,3.9388,3.9298,3.8646,3.8661,3.8781,0.0,0.0,0.0,0.0,0.0,0.0,0.0,0.0,1.6371,1.8214,2.0785,2.2487,2.2667,2.4267,2.6109,2.8015,3.1685,3.4931,3.7399,3.9918,4.2266,4.4443,4.5395,4.5877,4.5877,4.5877,4.5839,4.5769,4.5769,4.5723,4.5594,4.5594,4.5577,4.5541,4.5541,4.5513,4.5495,4.5496,4.5294,4.4972,4.4739,4.4896,4.5233,4.4999,4.6471,4.8667,4.8652,4.8335,4.8021,4.8744,4.8447,4.7891,4.8447,4.8155,4.7141,4.4665,4.391,4.3134,3.9594,3.8239,3.8544,4.1762,4.1677,4.2013,0.0,0.0,4.5816,4.6693,4.6575,4.6253,4.5849,4.5906,4.6055,4.6262,4.6903,4.7508,4.7855,4.7096,4.6343,4.6045,4.5056,4.4373,4.4327,4.3843,4.4033,4.5342,4.5665,4.6259,4.7255,4.8849,4.9826,5.0012,5.0827,5.0727,4.9602,4.8691,4.7729,4.6693,4.4558,4.3439,4.326,4.2132,4.1519,4.1392,4.0771,4.0172,3.9634,3.9559,3.9484,3.9388,3.9388,3.9388,3.9298,3.8646,3.8063,3.7524,0.0,0.0,0.0,0.0,0.0,0.0,0.0,0.0,1.5429,1.6493,1.8843,2.0917,2.2188,2.4958,2.7094,2.8036,3.1155,3.4013,3.6209,3.9321,4.174,4.3241,4.4974,4.5685,4.5213,4.5665,4.5896,4.5861,4.5828,4.5763,4.5723,4.5635,4.5594,4.5594,4.5594,4.5594,4.5594,4.5594,4.5297,4.4799,4.4664,4.4447,4.419,4.4044,4.467,4.5773,4.7175,4.7514,0.0,4.8196,4.7922,4.7351,4.775,4.7616,4.6903,4.48,4.4364,4.4232,4.2447,4.2415,4.3126,4.433,4.5163,4.6224,4.8381,4.8729,4.8862,5.0026,5.0015,4.9556,4.8656,4.8094,4.7558,0.0,4.71,4.7336,4.7485,4.6483,4.5544,4.5033,4.4243,4.3743,4.3743,4.3474,4.3688,4.4643,4.4521,4.5132,4.6827,4.7308,4.7962,4.8943,4.9365,4.8923,4.7531,4.7087,4.601,4.4287,4.325,4.2162,4.1017,4.0891,4.0606,4.0232,3.9948,3.9679,3.9388,3.9388,3.9388,3.9343,3.8975,3.8826,3.8781,3.8497,3.8467,3.8377,0.0,0.0,0.0,0.0,0.0,0.0,0.0,0.0,0.0,0.0,1.754,2.013,2.2797,2.5461,2.7357,2.8076,3.045,3.2824,3.5005,3.8464,4.0898,4.1945,4.4331,4.5378,4.4809,4.5592,4.5992,4.5963,4.5901,4.5856,4.5796,4.5703,4.5632,4.5594,4.5594,4.5594,4.5594,4.5594,4.5278,4.4734,4.4645,4.4207,4.3625,4.3533,4.3369,4.3426,4.5389,4.5956,4.5865,4.6457,4.6269,4.5782,4.5899,4.6012,4.5773,4.4127,4.3881,4.4177,4.4324,4.5223,4.6136,4.6134,4.7851,4.9564,4.9593,5.0342,5.1346,5.2419,5.2084,5.1273,5.0322,4.9237,4.8152,4.7182,4.7189,4.7174,4.68,4.5917,4.4968,4.4143,4.3624,4.329,4.329,4.329,4.3489,4.3972,4.3573,4.4076,4.5817,4.5711,4.6144,4.7363,4.7657,4.7088,4.5601,4.5601,4.4649,4.275,4.2316,4.152,4.042,4.071,4.0462,3.9758,3.9577,3.936,3.9125,3.8931,3.8871,3.8811,3.8317,3.8123,3.8123,3.8123,3.8437,3.8616,0.0,0.0,0.0,0.0,0.0,0.0,0.0,0.0,0.0,0.0,0.0,2.0563,2.4145,2.4819,2.5809,2.7829,2.9921,3.2101,3.439,3.7786,4.0172,4.1191,4.3672,4.5019,4.498,4.584,4.6224,4.6087,4.6084,4.5997,4.5794,4.5807,4.5729,4.5594,4.5594,4.5594,4.5594,4.5594,4.5393,4.5054,4.474,4.4351,4.3952,4.3606,4.3005,4.2442,4.3315,4.3115,4.2457,4.2469,4.2468,4.2442,4.2442,4.297,4.3493,4.2924,4.2347,4.2372,4.4486,4.526,4.5794,4.7352,4.9493,5.1195,5.1145,5.232,5.3399,5.3467,5.205,5.0559,4.9607,4.8513,4.742,4.6464,4.689,4.6845,4.5544,4.5335,4.482,4.3504,4.3329,4.329,0.0,4.329,4.3305,4.3305,4.3305,4.3344,4.3429,4.4289,4.4858,4.4911,4.5789,4.5825,4.4843,4.4843,4.4449,4.3627,4.2138,4.196,4.2858,4.2236,4.1494,4.061,3.9959,3.9225,3.8377,3.7734,3.7464,3.7464,3.7449,3.7434,3.7434,3.7434,3.7449,3.7285,0.0,0.0,0.0,0.0,0.0,0.0,0.0,0.0,0.0,0.0,0.0,0.0,0.0,0.0,0.0,0.0,2.8989,3.0537,3.2641,3.6077,3.8478,3.9433,4.2461,4.4141,4.4141,4.498,4.5703,4.6226,4.6145,4.6061,4.6006,4.5912,4.5822,4.5729,4.5729,4.5671,4.5594,4.5594,4.5413,4.5073,4.4733,4.4354,4.3898,4.3024,4.2205,4.146,0.0,4.0593,4.0068,4.1148,4.0796,4.0085,4.1181,4.1673,4.1986,4.2321,4.3435,4.492,4.6735,4.8088,4.9503,5.1708,5.2065,5.2153,5.3213,5.3078,5.2707,5.2686,5.1447,4.9899,4.842,4.7317,4.667,4.6747,4.6712,4.6876,4.7537,4.666,4.5465,4.4137,4.3947,0.0,0.0,0.0,0.0,4.329,4.329,4.329,4.329,4.363,4.381,4.381,4.4128,4.4113,4.381,4.3425,4.3152,4.302,4.1741,4.1554,4.2317,4.1645,4.0847,4.0026,3.9809,3.8935,3.7719,3.7494,3.7404,3.736,3.6956,3.6791,3.6746,3.6312,3.6417,3.6731,0.0,0.0,0.0,0.0,0.0,0.0,0.0,0.0,0.0,0.0,0.0,0.0,0.0,0.0,0.0,0.0,0.0,2.9013,3.1317,3.3952,3.6087,3.7598,4.0078,4.168,4.2266,4.2812,4.3652,4.4805,4.5013,4.5279,4.5533,4.5775,4.5867,4.5797,4.5793,4.5748,4.5671,4.5614,4.5,4.4027,4.4109,4.3485,4.2496,4.2024,4.1366,0.0,4.0089,3.9194,3.8435,3.9464,3.9131,3.8459,3.9494,4.0397,4.1262,4.206,4.4007,4.6317,4.8237,4.9986,5.1548,5.2947,5.2931,5.2683,5.2921,5.2436,5.1917,5.1924,5.0515,4.887,4.7423,4.6171,4.55,4.5824,4.5808,4.6324,4.7997,4.6745,4.5581,4.5268,4.468,4.3973,0.0,0.0,0.0,4.3305,4.329,4.329,4.329,4.329,4.329,4.329,4.3105,4.2985,4.2985,4.2381,4.2009,4.1952,4.1853,4.1907,4.207,4.2213,4.1494,4.0161,3.991,3.876,3.706,3.6821,3.6731,3.6686,3.6282,3.6133,3.6088,3.5669,3.5774,3.6133,0.0,0.0,0.0,0.0,0.0,0.0,0.0,0.0,0.0,0.0,0.0,0.0,0.0,0.0,0.0,0.0,0.0,0.0,3.033,3.1496,3.3184,3.5703,3.668,3.793,3.9531,3.9551,4.0312,4.1914,4.277,4.3559,4.4277,4.5213,4.5605,4.5546,4.5547,4.556,4.5556,4.5432,4.4081,4.2099,4.2839,4.1863,4.0014,4.0738,4.0592,3.9967,3.9967,3.8958,3.7622,3.7614,3.7649,3.7686,3.7723,3.9321,4.1333,4.2168,4.4136,4.6542,4.894,5.078,5.1878,5.135,5.2235,5.2705,5.0621,5.0649,5.1061,5.0984,4.924,4.7449,4.6459,0.0,4.4039,4.3967,4.4509,4.5559,4.7193,4.5918,4.534,0.0,0.0,0.0,0.0,0.0,0.0,4.3359,0.0,4.329,4.329,4.329,4.329,4.3245,4.2686,4.2381,4.2351,4.1723,4.1195,4.074,4.2425,4.2894,4.2323,4.3753,4.314,4.086,4.0171,3.8592,3.6387,3.5759,3.5504,3.5504,3.5504,3.5504,3.5504,3.5504,3.5504,3.5504,0.0,0.0,0.0,0.0,0.0,0.0,0.0,0.0,0.0,0.0,0.0,0.0,0.0,0.0,0.0,0.0,0.0,0.0,2.777,2.9365,3.1133,3.3086,3.4531,3.6094,3.7793,3.7586,3.8054,3.9268,3.9988,4.0513,4.0865,4.1763,4.2105,4.1992,4.2007,4.2169,4.2454,4.2415,4.1937,4.1204,4.1158,4.0797,4.0283,4.0225,4.0447,4.0797,4.0797,4.0148,3.9289,3.9282,3.9694,4.0293,4.0905,4.1496,4.226,4.3674,4.579,4.7976,4.9302,5.0851,5.2199,5.2755,5.1865,5.0904,5.0963,5.0254,4.9256,4.8136,4.6595,4.5004,4.3625,4.3356,0.0,4.5746,4.6807,0.0,5.0402,4.9002,0.0,4.757,0.0,4.5424,4.4407,4.4318,0.0,0.0,4.329,4.329,4.329,4.329,4.3105,4.2626,4.2485,4.2171,4.1677,4.1732,4.2039,4.2614,4.252,4.2692,4.3071,4.2295,4.1001,3.9388,3.8635,3.7308,3.5744,3.5579,3.5504,3.5504,3.5504,3.5504,3.5504,3.5504,3.5504,3.5504,0.0,0.0,0.0,0.0,0.0,0.0,0.0,0.0,0.0,0.0,0.0,0.0,0.0,0.0,0.0,0.0,0.0,0.0,0.0,2.7711,2.8945,3.0547,3.1035,3.2003,3.357,3.3355,3.3959,3.5441,3.6535,3.7389,3.804,3.8961,3.9417,3.9445,3.9705,4.001,4.0298,4.0509,4.0026,0.0,0.0,3.937,3.87,3.9584,4.0169,4.0565,4.0565,4.051,4.0524,4.1246,4.1551,4.1705,4.2175,4.2793,4.3472,4.4149,4.6048,4.7951,4.8226,4.9469,5.0736,5.0964,5.0014,4.892,4.8442,4.7689,4.6715,4.5549,4.4129,4.2949,4.2407,4.2529,0.0,0.0,0.0,0.0,5.1224,4.957,4.8294,0.0,4.7374,0.0,4.4851,4.4764,4.4228,0.0,4.315,4.317,4.2925,4.291,4.2596,4.1991,4.1692,4.1078,4.0083,4.0554,4.0807,4.0807,4.1032,4.1232,4.1418,4.082,3.9907,3.8761,0.0,3.7024,3.5938,3.5938,3.5938,3.5968,3.6237,3.6178,3.5938,3.5938,3.5744,3.5504,0.0,0.0,0.0,0.0,0.0,0.0,0.0,0.0,0.0,0.0,0.8456,0.0,0.0,0.0,0.0,0.0,0.0,0.0,0.0,0.0,2.6453,2.771,2.6949,2.708,2.8367,2.8323,2.9186,3.1042,3.259,3.3969,3.5166,3.6226,3.6856,3.7076,3.7603,3.8027,3.8399,3.8786,3.8046,3.6683,3.8206,3.7797,3.6546,0.0,3.9813,3.9921,4.0137,4.0591,4.1335,4.2969,4.3114,4.2642,4.2736,4.361,4.4523,4.4176,4.5443,4.686,4.6352,4.7335,4.8311,4.7686,4.7457,4.6868,4.4868,4.4437,4.4144,4.316,4.2014,4.1364,4.1908,4.2151,4.2828,4.4496,0.0,4.7986,5.0947,4.923,4.84,5.0364,4.8292,4.6376,4.5615,4.5335,4.4439,4.2556,4.2785,4.2806,4.2306,4.2276,4.1976,4.1265,4.0606,3.9736,3.8587,3.9063,3.8816,3.7919,3.8927,3.925,3.8905,3.9333,3.914,3.8383,0.0,0.0,3.6357,3.6447,3.6492,3.6537,3.7075,3.6956,3.6477,3.6387,3.5998,3.5504,0.0,0.0,0.0,0.0,0.0,0.0,0.0,0.0,0.0,0.0,0.2651,0.8265,0.0,0.0,0.0,0.0,0.0,0.0,0.0,0.0,0.0,2.3459,2.3674,2.4213,2.5182,2.5399,2.6016,2.7097,2.8305,2.9522,3.0738,3.2083,3.287,3.3184,3.3283,3.3961,3.5039,3.5122,3.5216,3.5409,3.6403,3.6597,3.6492,3.8232,0.0,0.0,4.1412,4.1548,4.1335,4.2969,4.3843,4.4394,4.5077,4.4709,4.416,4.4727,4.4825,4.4761,4.4749,4.5442,4.6141,4.609,4.562,4.4862,4.3848,4.3614,0.0,4.1081,4.0941,4.1044,4.057,4.1484,4.2997,4.5162,4.6752,0.0,0.0,0.0,5.0552,0.0,0.0,0.0,0.0,0.0,0.0,0.0,0.0,4.1671,4.1587,4.1587,4.1287,4.0591,3.9933,3.9526,3.9498,3.9,3.9025,3.9586,3.8498,3.8278,3.8875,3.7666,3.7052,3.6925,3.6203,0.0,3.5714,3.6267,3.6492,3.6492,3.6611,3.6582,3.6417,3.5878,3.5609,3.5504,0.0,0.0,0.0,0.0,0.0,0.0,0.0,-0.4079,-0.4206,-0.511,-0.2399,0.1791,0.7468,1.1827,1.5842,0.0,0.0,0.0,0.0,0.0,0.0,2.0814,2.0564,2.0714,2.1317,2.1831,2.2681,2.3912,0.0,2.615,2.7784,2.8465,2.9357,3.0441,3.0713,3.1397,3.2365,3.3059,3.3523,3.3894,3.561,3.6287,3.651,3.8563,0.0,0.0,4.1254,4.117,4.0682,4.2005,4.2719,4.3246,4.4471,4.4503,4.3981,4.3685,4.3669,4.3579,4.2934,4.3282,4.3807,4.3454,4.3091,4.2313,4.0402,0.0,0.0,3.874,3.9278,4.0054,4.0096,4.1314,4.2777,4.4265,4.5788,0.0,0.0,0.0,0.0,0.0,0.0,0.0,0.0,0.0,0.0,0.0,0.0,4.1231,4.0404,4.0023,3.9843,3.9888,3.9589,3.9113,3.8522,3.8485,3.8218,3.7638,3.7223,3.7054,3.7111,3.633,3.6363,3.6995,3.6298,0.0,3.703,3.7345,3.727,3.7,3.7345,3.7075,3.6447,3.6133,3.5804,3.5504,0.0,0.0,0.0,0.0,0.0,0.0,0.0,-0.341,-0.3996,-0.5875,-0.5968,-0.3894,0.1207,0.7077,1.2287,0.0,0.0,0.0,0.0,0.0,0.0,0.0,0.0,0.0,1.8043,0.0,0.0,2.1027,2.1988,0.0,0.0,0.0,0.0,0.0,2.8809,2.9517,3.036,3.1396,3.2105,0.0,0.0,3.6056,0.0,0.0,0.0,0.0,0.0,4.0087,3.95,4.0688,4.0889,4.0888,4.2341,4.3124,4.3283,4.2058,4.2013,4.2124,4.1018,4.1129,4.1426,4.0849,4.0692,4.0008,3.7395,3.7754,3.8308,3.7057,3.7965,3.9227,3.9969,4.106,4.2117,0.0,4.4181,4.5872,0.0,0.0,0.0,0.0,0.0,0.0,0.0,0.0,0.0,0.0,0.0,0.0,3.946,3.8766,3.8706,3.9394,3.9275,3.8616,3.7419,3.7778,3.715,3.5519,3.6028,3.6013,3.5504,3.5504,3.6058,3.6971,3.6492,0.0,0.0,3.7928,3.7674,3.727,3.7778,3.7375,3.6477,3.6327,3.5953,3.5504,0.0,0.0,0.0,0.0,0.0,0.0,0.0,-0.3786,-0.413,-0.618,-0.6741,-0.6654,-0.5881,0.2001,0.9001,0.0,0.0,0.0,0.0,0.0,0.0,0.0,0.0,0.0,0.0,0.0,0.0,1.8265,1.9904,0.0,0.0,0.0,0.0,0.0,0.0,2.8039,2.9256,2.9372,0.0,0.0,0.0,0.0,0.0,0.0,0.0,0.0,0.0,3.8499,3.7695,3.9249,3.8941,3.803,3.8888,4.0164,4.1133,4.0349,3.9724,3.9286,3.9135,3.9118,3.9118,3.9118,3.9079,3.862,3.7148,0.0,3.7679,3.6934,3.7919,3.9153,3.9935,4.0214,4.0773,4.2168,4.2506,4.3876,4.7483,0.0,0.0,0.0,0.0,0.0,0.0,0.0,0.0,0.0,0.0,0.0,3.9334,3.8766,3.8706,3.9394,3.8811,3.8138,3.7419,3.6911,3.6267,3.5504,3.5564,3.5564,3.5504,3.5504,3.5564,3.5669,3.5624,0.0,0.0,3.6417,3.6626,3.6582,3.6641,3.6596,3.6417,3.5818,3.5549,3.5504,0.0,0.0,0.0,0.0,0.0,0.0,-0.2595,-0.2554,-0.3342,-0.5234,-0.6257,-0.6882,-0.7067,-0.0271,0.5987,1.0102,0.0,0.0,0.0,0.0,0.0,0.0,0.0,0.0,0.0,0.0,1.7349,1.8325,1.8578,0.0,0.0,0.0,0.0,0.0,0.0,0.0,2.745,2.8736,0.0,0.0,0.0,0.0,0.0,0.0,0.0,0.0,0.0,0.0,3.7262,3.7571,3.7301,3.6757,3.6305,3.6938,3.7919,3.8488,3.8162,3.773,3.8142,3.8501,3.8579,3.7739,3.7511,3.7018,3.5228,0.0,3.6291,3.5675,3.6972,3.8467,3.9232,3.9404,3.9791,4.0823,4.0993,4.1796,4.4198,0.0,0.0,0.0,0.0,0.0,0.0,0.0,0.0,0.0,0.0,0.0,3.8153,3.7599,3.7539,3.8197,3.8395,3.8211,3.7523,3.7761,3.7545,3.689,3.689,3.689,3.689,3.689,3.7078,3.7452,3.6983,0.0,0.0,3.7128,3.6821,3.6492,3.6492,3.6237,3.5863,3.5609,3.5504,3.5504,0.0,0.0,0.0,0.0,0.0,-0.1981,-0.0943,-0.1393,-0.2545,-0.4419,-0.5648,-0.6553,-0.709,-0.1675,0.3607,0.7612,1.3252,0.0,0.0,0.0,0.0,0.0,0.0,0.0,0.0,0.0,1.7034,1.7966,1.7717,1.8339,0.0,0.0,0.0,0.0,0.0,0.0,0.0,0.0,0.0,0.0,0.0,0.0,0.0,0.0,0.0,0.0,0.0,0.0,0.0,0.0,0.0,3.5419,3.4522,3.4482,3.5057,3.6434,3.6675,3.6554,3.703,3.7621,3.7809,3.6574,3.6286,3.5784,3.394,3.4273,3.4861,3.449,3.5867,3.7474,3.8453,3.8823,3.9157,3.9706,3.996,4.0553,4.1796,4.2608,0.0,0.0,0.0,0.0,0.0,0.0,0.0,0.0,0.0,0.0,0.0,3.6432,3.67,3.7733,3.81,3.8197,3.7966,3.8326,3.8272,3.7793,3.7793,3.7793,3.7793,3.7793,3.7932,3.8125,0.0,0.0,0.0,3.7571,3.7001,3.6226,3.6444,3.6107,3.5504,3.5504,3.5504,3.5504,0.0,0.0,0.0,0.0,0.0,0.0,0.0,-0.064,-0.1876,-0.402,-0.5193,-0.6073,-0.6738,-0.2481,0.2049,0.6075,1.2967,0.0,0.0,0.0,0.0,0.0,0.0,0.0,0.0,0.0,1.7174,1.6516,1.7376,1.7811,1.7852,1.9258,1.9953,2.0109,0.0,0.0,0.0,0.0,0.0,0.0,0.0,0.0,0.0,0.0,0.0,0.0,0.0,0.0,0.0,0.0,0.0,0.0,0.0,3.3155,3.2908,3.4227,3.5095,3.5599,3.5597,3.6062,3.6373,3.5674,3.5499,3.5156,3.3804,3.3502,3.3563,3.3676,3.4778,3.6179,3.7719,3.8556,3.8988,3.9005,3.9622,4.0367,4.1119,4.1847,0.0,0.0,0.0,0.0,0.0,0.0,0.0,0.0,0.0,0.0,0.0,3.5519,3.6466,3.8515,3.7946,3.8013,3.8772,3.8144,3.7793,3.7793,3.7793,3.7793,3.7793,3.7793,3.7368,0.0,0.0,0.0,0.0,3.7177,3.6875,3.5569,3.6321,3.6149,3.5504,3.5504,3.5504,3.5504,0.0,0.0,0.0,0.0,0.0,0.0,0.0,0.0447,-0.1167,-0.346,-0.4522,-0.5131,-0.5352,-0.1903,0.2026,0.611,1.1659,0.0,0.0,0.0,0.0,0.0,0.0,0.0,0.0,1.8765,1.8678,1.8151,1.7895,1.7859,1.7952,1.8354,1.8892,1.9574,2.0613,0.0,0.0,0.0,0.0,0.0,0.0,0.0,0.0,0.0,0.0,0.0,0.0,0.0,0.0,0.0,0.0,0.0,0.0,0.0,0.0,3.313,3.3347,3.3577,3.4044,3.4656,3.4971,3.4291,3.4117,3.3894,3.3006,3.2826,3.2811,3.2881,3.3578,3.4497,3.5545,3.6287,3.7087,3.8143,3.8883,3.9622,0.0,0.0,0.0,0.0,0.0,0.0,0.0,0.0,0.0,0.0,0.0,0.0,0.0,3.5504,3.6027,3.7188,3.757,3.8097,3.8867,3.9191,3.9375,3.9375,3.9375,3.9375,3.9375,3.9375,0.0,0.0,0.0,0.0,0.0,3.7589,3.7189,3.6275,3.6492,3.6477,3.6196,3.5701,3.5504,3.5504,0.0,0.0,0.0,0.0,0.0,0.0,0.0,0.1789,0.0112,-0.1917,-0.3157,-0.3844,-0.3776,-0.135,0.1868,0.588,0.9784,0.0,0.0,0.0,0.0,0.0,0.0,0.0,1.964,1.9967,2.0001,1.9691,1.8793,1.8422,1.8476,1.8114,1.7967,1.8075,1.928,2.0299,0.0,0.0,0.0,0.0,0.0,0.0,3.6275,0.0,0.0,0.0,0.0,0.0,0.0,0.0,0.0,0.0,0.0,0.0,0.0,0.0,3.2161,3.2284,3.2925,3.3597,3.404,3.3606,3.3306,3.3006,3.2587,3.2288,3.2108,3.2108,3.2673,3.3408,3.4162,3.4862,3.5647,3.6604,3.7816,3.8682,0.0,0.0,0.0,0.0,0.0,0.0,0.0,0.0,0.0,0.0,0.0,0.0,0.0,3.5428,3.5595,3.6618,3.7401,3.816,3.8916,3.9699,3.996,3.9706,3.9977,4.0096,4.0096,4.0096,0.0,0.0,0.0,0.0,0.0,3.843,3.8019,3.7084,3.7365,3.7306,3.701,3.6538,3.6183,3.5906,0.0,0.0,0.0,0.0,0.0,0.0,0.0,0.3241,0.1796,0.0196,-0.1363,-0.228,-0.2161,-0.0849,0.155,0.5363,0.0,0.0,0.0,0.0,0.0,0.0,0.0,0.0,2.0609,2.0879,2.0991,2.09,1.9863,1.9304,1.9203,1.8281,1.7196,1.6108,1.7695,1.8942,2.0264,2.6496,2.9848,3.1245,3.3918,3.4807,0.0,0.0,0.0,0.0,0.0,0.0,0.0,0.0,0.0,0.0,0.0,0.0,0.0,0.0,0.0,0.0,0.0,3.295,3.3356,3.3351,3.2898,3.243,3.2511,3.1973,0.0,3.1553,3.2092,3.2748,3.3482,3.4171,3.4659,3.4755,3.6537,3.7682,0.0,0.0,0.0,0.0,0.0,0.0,0.0,0.0,0.0,0.0,0.0,0.0,0.0,3.5277,3.5231,3.6642,3.7367,3.8112,3.892,3.9605,3.9605,3.892,3.9622,3.9977,4.0028,4.0028,0.0,0.0,0.0,0.0,0.0,3.948,3.9226,3.795,3.8635,3.8437,3.7799,3.779,3.7297,3.6529,0.0,0.0,0.0,0.0,0.0,0.0,0.0,0.0,0.0,0.0,-0.0504,-0.093,-0.147,-0.0596,0.122,0.0,0.0,0.0,0.0,0.0,0.0,0.0,0.0,0.0,1.9863,2.0848,2.0962,2.0088,1.9769,1.9168,1.8281,1.6975,1.6784,1.7518,1.7511,1.9251,2.2332,2.4569,2.6609,2.8467,3.0155,3.1108,0.0,0.0,0.0,0.0,3.165,3.1643,0.0,0.0,0.0,0.0,0.0,0.0,0.0,0.0,3.3081,3.3075,3.323,0.0,3.1969,3.1972,3.1867,3.1876,0.0,3.2016,3.1668,3.2231,3.2035,3.1979,3.2657,3.3323,3.4142,3.5203,3.6301,3.7323,0.0,0.0,0.0,0.0,0.0,0.0,0.0,0.0,0.0,0.0,0.0,0.0,0.0,3.5531,3.5757,3.6659,3.6865,3.734,3.8135,3.8328,3.8328,3.8159,3.8328,3.87,3.9242,3.9242,0.0,0.0,0.0,0.0,3.8718,3.9705,3.9516,3.8663,3.8827,3.8444,3.7791,3.7814,3.6981,3.5908,0.0,0.0,0.0,0.0,0.0,0.0,0.0,0.0,0.0,0.0,0.0,0.0911,0.0569,0.0944,0.0,0.0,0.0,0.0,0.0,0.0,0.0,0.0,0.0,2.0465,2.0475,2.1638,2.1753,2.0751,2.0319,1.9474,1.8243,1.7317,1.6932,1.7019,1.7147,1.8501,2.0833,2.2522,2.4308,2.6118,2.7715,0.0,0.0,0.0,0.0,0.0,3.0915,3.1231,0.0,3.1511,3.1717,3.2072,0.0,0.0,0.0,0.0,3.381,3.4058,3.4038,3.3267,3.2437,3.2422,3.2437,3.2509,3.2918,3.2701,3.254,3.2969,3.2745,3.2552,3.2917,3.3266,3.3761,3.4514,3.5509,0.0,0.0,0.0,0.0,0.0,0.0,0.0,0.0,0.0,0.0,0.0,0.0,0.0,0.0,3.5471,3.547,3.6171,3.5893,3.6281,3.7381,3.7736,3.7736,3.7398,3.7736,3.8294,3.8988,3.8988,3.9394,0.0,0.0,0.0,3.9473,3.9548,3.9345,3.8904,3.8587,3.8194,3.7844,3.7863,3.7131,3.6151,0.0,0.0,0.0,0.0,0.0,0.0,0.0,0.0,0.0,0.0,0.0,0.0,0.0,0.0,0.0,0.0,0.0,0.0,0.0,0.0,0.0,0.0,2.0583,2.1241,2.134,2.2429,2.2607,2.1904,2.0958,1.9844,1.8586,1.7978,1.7059,1.5957,1.6883,1.7578,1.8254,2.0627,2.2519,2.4086,2.5791,0.0,0.0,0.0,0.0,0.0,0.0,0.0,0.0,3.1511,3.1979,3.2606,3.2726,0.0,0.0,0.0,0.0,0.0,3.4966,3.4576,3.4073,3.3758,3.3668,3.3698,3.3813,3.3758,3.3755,3.4014,3.4005,3.3953,3.3998,3.3913,0.0,0.0,0.0,0.0,0.0,0.0,0.0,0.0,0.0,0.0,0.0,0.0,0.0,0.0,0.0,0.0,0.0,3.5463,3.4948,3.5432,3.4877,3.5135,3.6288,3.7127,3.7246,3.6626,3.7246,3.7939,3.865,3.865,3.9056,3.9774,0.0,0.0,3.9723,3.9089,3.8819,3.8768,3.8142,3.7838,3.7753,3.7872,3.7347,3.6517,0.0,0.0,0.0,0.0,0.0,0.0,0.0,0.0,0.0,0.0,0.0,0.0,0.0,0.0,0.0,0.0,0.0,0.0,0.0,0.0,0.0,1.9629,1.984,2.0101,2.057,2.1788,2.2249,2.1904,2.0626,1.9519,1.8562,1.7071,1.6287,1.6106,1.7225,1.803,1.8569,1.961,2.0908,2.2346,2.3261,0.0,0.0,0.0,0.0,0.0,0.0,0.0,0.0,3.1511,3.1974,3.2713,3.3274,0.0,0.0,0.0,0.0,0.0,3.6221,3.6754,3.6727,3.4955,3.4531,3.4659,3.5237,3.4914,3.487,3.6062,3.5863,3.562,3.6186,3.5734,3.547,0.0,0.0,0.0,0.0,0.0,0.0,0.0,0.0,0.0,0.0,0.0,0.0,0.0,0.0,0.0,0.0,3.5927,3.5221,3.4689,3.4577,3.4317,3.3931,3.5261,3.5887,3.5785,3.5904,3.6383,3.7151,3.7151,3.7533,3.8244,0.0,3.8244,3.8227,3.8125,3.8075,3.8075,3.7939,3.7516,3.7026,3.7669,3.6986,3.5769,0.0,0.0,0.0,0.0,0.0,0.0,0.0,0.0,0.0,0.0,0.0,0.0,0.0,0.0,0.0,0.0,0.0,0.0,0.0,0.0,1.7808,2.0294,2.1199,2.1564,2.1428,2.2,2.2,2.141,2.0208,1.9022,1.78,1.6879,1.6426,1.6467,1.7239,1.7583,1.7606,1.8199,1.9114,2.0222,0.0,0.0,0.0,0.0,0.0,0.0,0.0,0.0,0.0,0.0,3.1981,3.2721,3.3381,0.0,0.0,0.0,0.0,0.0,3.7151,3.7899,3.8317,3.7757,3.7607,3.7526,3.7436,3.7192,3.7161,3.7844,3.7436,3.7014,0.0,0.0,3.6759,0.0,0.0,0.0,0.0,0.0,0.0,0.0,0.0,0.0,0.0,0.0,0.0,0.0,0.0,0.0,0.0,0.0,3.543,3.5115,3.5098,3.4742,3.3998,3.4675,3.5013,3.5013,3.5397,3.6028,3.6795,3.6795,3.7195,3.7905,0.0,3.7905,3.7872,3.7466,3.7297,3.7263,3.684,3.6468,3.6197,3.6512,3.6208,3.56,0.0,0.0,0.0,0.0,0.0,0.0,0.0,0.0,0.0,0.0,0.0,0.0,0.0,0.0,0.0,0.0,0.0,0.0,0.0,1.4757,1.7835,2.0385,2.2298,2.3151,2.2807,2.251,2.2046,2.1353,1.9811,1.8276,1.683,1.6637,1.6541,1.6592,1.715,1.7209,1.6877,1.7358,1.802,1.8876,0.0,0.0,0.0,0.0,0.0,0.0,0.0,0.0,0.0,0.0,0.0,0.0,0.0,0.0,0.0,3.5403,3.6034,3.6724,3.7659,3.8448,3.9168,3.9917,3.9935,3.9716,3.9686,3.9419,3.9338,3.9927,3.9309,3.8596,0.0,3.8022,0.0,0.0,0.0,0.0,0.0,0.0,0.0,0.0,0.0,0.0,0.0,0.0,0.0,0.0,0.0,0.0,0.0,0.0,3.5245,3.5082,3.4925,3.4469,3.3728,3.4066,3.432,3.4506,3.5081,3.5757,3.6502,3.6502,3.6823,3.7358,3.7358,3.7358,3.733,3.6738,3.6502,3.6451,3.5836,3.56,3.56,3.56,3.56,3.56,0.0,0.0,0.0,0.0,0.0,0.0,0.0,0.0,0.0,0.0,0.0,0.0,0.0,0.0,0.0,0.0,0.0,0.0,0.0,1.3966,1.704,1.9222,2.169,2.3447,2.4313,2.3163,2.254,2.2483,1.9487,1.7246,1.5797,1.6038,1.6144,1.6173,1.7012,1.738,1.7391,1.7777,1.8462,1.9336,2.0227,0.0,0.0,0.0,0.0,0.0,0.0,0.0,0.0,0.0,0.0,0.0,0.0,0.0,3.4718,3.5403,3.5656,3.6,3.7494,3.8448,3.9174,3.9902,3.9554,3.9512,4.1597,4.1003,4.0602,4.2675,4.1965,4.0755,0.0,3.8768,0.0,0.0,0.0,0.0,0.0,0.0,0.0,0.0,0.0,0.0,0.0,0.0,0.0,0.0,0.0,0.0,0.0,0.0,0.0,3.3573,3.2897,3.2186,3.1444,3.2797,3.3829,3.4489,3.4539,3.4962,3.5684,3.5684,3.5718,3.5769,3.5769,3.5769,3.5752,3.5701,3.5684,3.5667,3.5616,3.56,3.56,3.56,3.56,3.56,0.0,0.0,0.0,0.0,0.0,0.0,0.0,0.0,0.0,0.0,0.0,0.0,0.0,0.0,0.0,0.0,0.0,0.0,0.0,1.3805,1.6465,1.8975,2.0674,2.2407,2.4218,2.2829,2.1914,2.1486,1.9087,1.7499,1.6703,1.7315,1.7481,1.7328,1.7879,1.8025,1.7773,1.7924,1.8193,1.8608,2.002,2.0793,0.0,0.0,0.0,0.0,0.0,0.0,0.0,0.0,3.1369,3.2155,3.326,3.4073,3.4733,3.5396,3.56,3.5847,3.6928,3.8099,3.9174,3.9926,4.0229,4.0675,4.1992,4.221,4.2276,4.2638,4.2269,4.1373,0.0,0.0,0.0,0.0,0.0,0.0,0.0,0.0,0.0,0.0,0.0,0.0,0.0,0.0,0.0,0.0,0.0,0.0,0.0,0.0,0.0,3.3427,3.3127,3.2639,3.1891,3.2879,3.3524,3.3829,3.4759,3.5329,3.56,3.56,3.56,3.56,3.56,3.56,3.56,3.56,3.56,3.56,3.56,3.56,3.56,3.56,3.56,3.5667,0.0,0.0,0.0,0.0,0.0,0.0,0.0,0.0,0.0,0.0,0.0,0.0,0.0,0.0,0.0,0.0,0.0,0.0,1.1256,1.2978,1.5118,1.764,1.8864,2.037,2.2326,2.159,2.1071,2.0855,1.8695,1.7547,1.739,1.8139,1.8326,1.8018,1.8721,1.8971,1.8849,1.8554,1.851,1.8751,1.9776,2.0346,0.0,0.0,0.0,0.0,0.0,0.0,0.0,0.0,3.0987,3.1824,3.3143,3.4041,3.4738,3.5404,3.5774,3.6145,3.6927,3.8051,3.9174,3.9926,4.0646,4.139,4.2117,4.2692,4.3064,4.3014,4.2279,4.1,3.9043,0.0,0.0,0.0,0.0,0.0,0.0,0.0,0.0,0.0,0.0,0.0,0.0,0.0,0.0,0.0,0.0,0.0,0.0,3.4274,3.3815,3.3083,3.284,3.2457,3.1955,3.2921,3.3415,3.3423,3.489,3.56,3.56,3.56,3.56,3.56,3.56,3.56,3.56,3.56,3.56,3.56,3.56,3.56,3.56,3.56,3.56,3.5684,0.0,0.0,0.0,0.0,0.0,0.0,0.0,0.0,0.0,0.0,0.0,0.0,0.0,0.0,0.0,0.0,0.0,0.0,1.0622,1.1332,1.2721,1.4883,1.6123,1.7332,1.858,1.9384,2.0189,2.0983,1.8395,1.7265,1.7534,1.8222,1.8336,1.8052,1.9351,2.0213,2.0733,1.9732,1.9599,2.0065,1.9533,1.9836,2.0691,0.0,0.0,0.0,0.0,0.0,0.0,0.0,3.0968,3.183,3.3072,3.4015,3.4738,3.5404,3.6161,3.6959,3.7689,3.843,3.9157,3.991,4.0646,4.1407,4.2117,4.2286,4.2726,4.4276,4.2194,3.9682,3.8288,3.7962,0.0,0.0,0.0,0.0,0.0,0.0,0.0,0.0,0.0,0.0,0.0,0.0,0.0,0.0,0.0,0.0,0.0,3.3788,3.3056,3.2315,3.1577,3.119,3.119,3.2646,3.3392,3.3423,3.4873,3.5583,3.56,3.56,3.56,3.56,3.56,3.56,3.56,3.56,3.56,3.56,3.56,3.56,3.56,3.56,3.56,3.5594,0.0,0.0,0.0,0.0,0.0,0.0,0.0,0.0,0.0,0.0,0.0,0.0,0.0,0.0,0.0,0.0,0.0,0.0,1.116,1.081,1.1552,1.3727,1.4405,1.5795,1.8047,1.978,2.0296,1.959,1.8821,1.8614,1.9002,1.9866,1.9601,1.8467,1.9801,2.0139,1.977,2.0082,1.996,1.9588,2.002,2.0363,2.0686,0.0,0.0,0.0,0.0,0.0,0.0,0.0,0.0,0.0,3.1988,3.3964,3.5977,3.5093,3.5757,3.6729,3.6366,3.7618,3.892,3.8633,4.0273,4.1745,4.0942,4.1965,4.3064,4.298,4.145,3.9825,3.8883,0.0,0.0,0.0,0.0,0.0,0.0,0.0,0.0,0.0,0.0,0.0,0.0,0.0,0.0,0.0,0.0,0.0,0.0,3.3033,3.2298,3.154,3.1314,3.119,3.119,3.2151,3.2638,3.263,3.4129,3.5115,3.56,3.56,3.56,3.56,3.56,3.56,3.56,3.56,3.5604,3.5596,3.5616,3.5604,3.5596,3.5594,3.56,3.5769,0.0,0.0,0.0,0.0,0.0,0.0,0.0,0.0,0.0,0.0,0.3511,0.4815,0.0,0.0,0.0,0.0,0.0,0.0,1.0993,1.0283,1.0715,1.2663,1.314,1.4947,1.8316,1.9946,2.0611,2.0312,2.0089,1.9976,1.9922,2.0665,2.0321,1.9187,2.0735,2.1153,2.0699,2.1226,2.0927,2.0172,2.0485,2.0599,2.0716,0.0,0.0,0.0,0.0,0.0,0.0,0.0,0.0,0.0,3.1753,3.393,3.62,3.5582,3.628,3.7193,3.6989,3.8179,3.9326,3.8886,4.0324,4.1627,4.073,4.1576,0.0,0.0,4.0916,3.9952,3.9512,0.0,0.0,0.0,0.0,0.0,0.0,0.0,0.0,0.0,0.0,0.0,0.0,0.0,0.0,0.0,0.0,0.0,0.0,3.2246,3.1532,3.0784,3.0757,3.076,3.0775,3.179,3.2296,3.2313,3.3495,3.4303,3.4737,3.5329,3.56,3.56,3.56,3.543,3.5199,3.5469,3.5263,3.4776,3.536,3.5596,3.5615,3.5599,3.56,3.5819,0.0,0.0,0.0,0.0,0.0,0.0,0.0,0.0,0.0,0.0,0.3597,0.4834,0.0,0.0,0.0,0.0,0.0,0.0,0.0,0.9616,1.0008,1.1645,1.2431,1.4808,1.9025,2.0017,2.1133,2.2462,2.1867,2.1209,2.0485,2.0897,2.0684,2.0078,2.1754,2.2575,2.2685,2.2636,2.2164,2.1396,2.0919,2.0713,2.0808,2.158,0.0,0.0,0.0,0.0,0.0,0.0,0.0,0.0,3.1737,3.3634,3.5566,3.6268,3.7104,3.7949,3.863,3.9446,4.0096,4.0096,4.0646,4.1204,4.1204,4.1153,4.1102,4.1102,0.0,4.0087,0.0,0.0,0.0,0.0,0.0,0.0,0.0,0.0,0.0,0.0,0.0,0.0,0.0,0.0,0.0,0.0,0.0,0.0,0.0,3.1447,3.0683,3.0023,3.0053,3.0073,2.9995,3.1472,3.2175,3.2102,3.291,3.3305,3.3355,3.4822,3.5498,3.5498,3.543,3.5047,3.4532,3.5142,3.461,3.355,3.4955,3.5496,3.5474,3.5565,3.56,3.5819,0.0,0.0,0.0,0.0,0.0,0.0,0.0,0.0,0.0,0.0,0.0,0.0,0.0,0.0,0.0,0.0,0.0,0.0,0.0,0.7977,0.8376,1.0405,1.3152,1.6073,1.9116,2.0501,2.1993,2.3648,2.2621,2.1745,2.103,2.1486,2.1322,2.0616,2.0927,2.1667,2.2681,2.224,2.1958,2.1783,2.1661,2.1603,2.1637,2.1825,2.24,0.0,0.0,0.0,0.0,0.0,0.0,0.0,2.9155,3.1411,3.4034,3.4107,3.552,3.7075,3.7229,3.8667,4.0096,4.0096,4.0646,4.1204,4.1204,4.0747,4.035,4.035,4.0214,0.0,0.0,0.0,0.0,0.0,0.0,0.0,0.0,0.0,0.0,0.0,0.0,0.0,0.0,0.0,0.0,0.0,0.0,0.0,3.1447,3.0194,2.9399,2.9247,2.98,2.9818,2.9251,3.0715,3.1148,0.0,3.1911,3.2547,3.2598,3.4049,3.4742,3.4692,3.4134,3.4007,3.4249,3.3982,3.3684,3.3478,3.4393,3.4652,3.4597,3.5328,3.56,3.5819,0.0,0.0,0.0,0.0,0.0,0.0,0.0,0.0,0.0,0.0,0.0,0.0,0.0,0.0,0.0,0.0,0.0,0.0,0.0,0.0,0.8542,1.0799,1.3585,1.6353,1.9124,2.1045,2.2548,2.359,2.3276,2.2957,2.2649,2.288,2.268,2.211,2.2236,2.2567,2.2972,2.2915,2.2518,2.1934,2.2321,2.2241,2.1946,2.2346,2.2747,2.3108,2.3108,0.0,0.0,0.0,0.0,0.0,0.0,0.0,3.2679,3.33,3.4796,3.6395,3.7117,3.8413,3.9673,4.0011,4.04,4.0663,4.0663,4.0383,4.0011,3.9656,0.0,0.0,0.0,0.0,0.0,0.0,0.0,0.0,0.0,0.0,0.0,0.0,0.0,0.0,0.0,0.0,0.0,0.0,0.0,3.053,3.0161,2.9042,2.8433,2.8433,2.8787,2.8795,2.844,2.9926,3.0495,3.0116,3.1238,3.1955,3.2344,3.3457,3.3964,3.3947,3.3575,3.3435,3.3451,3.3185,3.2781,3.2431,3.3287,3.3727,3.3914,3.4764,3.5295,3.5769,0.0,0.0,0.0,0.0,0.0,0.0,0.0,0.0,0.0,0.0,0.0,0.0,0.0,0.0,0.0,0.0,0.0,0.0,0.0,0.0,0.0,1.1008,1.3208,1.5687,1.8385,2.0837,2.2488,2.3221,2.3864,2.4473,2.5012,2.4366,2.4003,2.3979,2.3991,2.3816,2.3564,2.3726,2.3121,2.2164,2.2845,2.2705,2.2194,2.2857,2.3108,2.3108,2.3108,2.3108,2.3206,2.3876,0.0,0.0,0.0,0.0,3.1008,3.2574,3.3991,3.5386,3.6901,3.8142,3.9174,3.9926,4.0214,0.0,4.013,4.0096,3.9859,3.8988,0.0,0.0,0.0,0.0,0.0,0.0,0.0,0.0,0.0,0.0,0.0,0.0,0.0,0.0,0.0,0.0,0.0,0.0,0.0,2.9448,2.884,2.8044,2.7604,2.7604,2.7722,2.7738,2.7601,2.9125,2.9909,2.9929,3.0787,3.1532,3.2141,3.2747,3.3085,3.3203,3.3085,3.2805,3.2442,3.2442,3.1944,3.1312,3.2269,3.2961,3.3474,3.4083,3.4861,3.5701,0.0,0.0,0.0,0.0,0.0,0.0,0.0,0.0,0.0,0.0,0.5514,0.5601,0.0,0.0,0.0,0.0,0.0,0.0,0.5807,0.0,0.0,0.8304,1.095,1.3345,1.5428,1.8218,2.1003,2.3697,2.4542,2.6105,2.8297,2.4971,2.4312,2.5852,2.3921,2.3642,2.4527,2.3364,2.2881,2.2955,2.3053,2.3053,2.2955,2.3053,2.3108,2.3108,2.3108,2.3108,2.3108,2.3218,2.3833,0.0,0.0,0.0,2.8305,3.0187,3.1783,3.32,3.4577,3.6924,3.9174,3.9935,4.0595,4.0882,0.0,0.0,3.9723,0.0,0.0,0.0,0.0,0.0,0.0,0.0,0.0,0.0,0.0,0.0,0.0,0.0,0.0,0.0,0.0,0.0,0.0,0.0,2.8927,2.806,2.7959,2.7249,2.6843,2.6843,2.7467,2.7484,2.6843,2.8387,2.9149,2.9168,3.0543,3.1241,3.1343,3.1444,3.1833,3.2412,3.1765,3.1464,3.1396,3.1396,3.1328,3.1275,3.2039,3.2784,3.3423,3.3508,3.4416,3.5616,0.0,0.0,0.0,0.0,0.0,0.0,0.0,0.0,0.0,0.0,0.0,0.6181,0.0,0.0,0.0,0.5531,0.5564,0.5607,0.5617,0.6129,0.6789,0.7499,0.9869,1.2179,1.4388,1.7256,1.9769,2.1895,2.2698,2.4614,2.7561,2.537,2.5702,2.801,2.6425,2.553,2.5163,2.394,2.33,2.3108,2.3108,2.3286,2.3561,2.3235,2.3316,2.3633,2.3732,2.3276,2.276,2.3518,2.3512,2.3305,2.3995,0.0,0.0,0.0,2.9081,3.1203,3.3799,3.5774,3.7483,3.9089,3.9732,3.9986,4.0096,0.0,3.9174,0.0,0.0,0.0,0.0,0.0,0.0,0.0,0.0,0.0,0.0,0.0,0.0,0.0,0.0,0.0,0.0,0.0,0.0,0.0,2.8451,2.7621,2.7215,2.6877,2.6691,2.6691,2.7012,2.7029,2.6691,2.7775,2.8756,2.961,3.0275,3.0801,3.119,3.119,3.1376,3.1667,3.1326,3.119,3.119,3.119,3.119,3.1224,3.1565,3.2121,3.278,3.278,3.3457,3.4438,0.0,0.0,0.0,0.0,0.0,0.0,0.0,0.0,0.0,0.0,0.0,0.0,0.0,0.0,0.0,0.0,0.5555,0.5552,0.5581,0.5682,0.6113,0.688,0.8869,1.1046,1.3338,1.6313,1.8678,2.0359,2.1303,2.3408,2.6482,2.5821,2.689,2.927,2.8262,2.6942,2.5369,2.4563,2.3846,2.3316,2.3163,2.3355,2.3753,2.3503,2.3543,2.3833,2.4393,2.3818,0.0,0.0,0.0,2.2643,2.3001,2.3771,0.0,0.0,0.0,2.9388,3.236,3.3859,3.5043,3.707,3.8007,3.8664,0.0,0.0,0.0,0.0,0.0,0.0,0.0,0.0,0.0,0.0,0.0,0.0,0.0,0.0,0.0,0.0,0.0,0.0,0.0,0.0,0.0,0.0,2.7977,2.7266,2.6725,2.6691,2.6691,2.6691,2.6691,2.6691,2.6691,2.7435,2.8382,2.9514,2.9719,3.0108,3.0632,3.0632,3.0632,3.0649,3.1038,3.1055,3.085,3.1089,3.1089,3.0937,3.1123,3.1667,3.2276,3.209,3.2594,3.3457,0.0,0.0,0.0,0.0,0.0,0.0,0.0,0.0,0.0,0.0,0.0,0.0,0.7395,0.6461,0.5739,0.5621,0.5473,0.5475,0.5577,0.5619,0.5704,0.5874,0.7553,0.0,1.1411,1.4818,1.7775,2.0211,2.1769,2.3892,2.6511,2.6454,2.7277,2.8715,2.8015,2.6667,2.4925,2.4803,2.4464,2.3888,2.3316,2.3133,2.3248,2.3971,2.3781,2.3356,2.4809,0.0,0.0,0.0,0.0,0.0,0.0,2.2546,2.2976,0.0,0.0,0.0,2.9202,3.0621,3.2026,3.3347,3.5318,3.7245,0.0,0.0,0.0,0.0,0.0,0.0,0.0,0.0,0.0,0.0,0.0,0.0,0.0,0.0,0.0,0.0,0.0,0.0,0.0,0.0,0.0,0.0,2.7182,2.6742,2.6691,2.6691,2.6691,2.6691,2.6691,2.6691,2.6691,2.7435,2.7841,2.7925,2.8687,2.9077,2.9111,2.9111,2.9111,2.9196,3.0581,3.0661,2.9861,3.0816,3.0784,3.0243,3.092,3.1667,3.2226,3.1532,3.2171,3.3322,0.0,0.0,0.0,0.0,0.0,0.0,0.0,0.0,0.0,0.0,0.0,0.0,0.0,0.7142,0.6534,0.5679,0.5484,0.5428,0.5462,0.5462,0.5498,0.5531,0.7386,0.9142,1.0683,1.4122,1.6773,1.8524,2.0073,2.1943,2.4123,2.4123,2.4817,2.607,2.7419,2.7525,2.6621,2.5467,2.512,2.5227,2.3707,2.3814,2.4809,2.3867,2.3901,0.0,0.0,0.0,0.0,0.0,0.0,0.0,2.2826,2.2783,2.3192,2.3611,2.4559,2.5851,2.7611,2.8715,0.0,3.2312,3.3765,3.4994,3.6387,0.0,0.0,0.0,0.0,0.0,0.0,0.0,0.0,0.0,0.0,0.0,0.0,0.0,0.0,0.0,0.0,0.0,0.0,0.0,0.0,0.0,0.0,2.6691,2.6691,2.6691,2.6691,2.6691,2.6691,2.6691,2.6691,2.6962,2.7317,2.7807,2.8094,2.8501,2.8993,2.8993,2.8803,2.8527,2.905,2.9524,2.995,2.982,3.0179,3.0835,3.1089,3.136,3.1546,3.1292,3.1529,3.2019,0.0,0.0,0.0,0.0,0.0,0.0,0.0,0.0,1.1211,1.0938,0.0,0.0,0.0,0.0,0.6989,0.5774,0.5579,0.5517,0.5517,0.5527,0.5693,0.6021,0.7596,0.9109,1.0556,1.3492,1.5751,1.7213,1.8551,2.0205,2.2114,2.2114,2.2697,2.3837,2.554,2.6394,2.6407,2.5233,2.5001,2.5255,2.3728,2.4141,2.5581,2.4805,0.0,0.0,0.0,0.0,0.0,0.0,0.0,0.0,2.3214,2.2883,2.2813,2.2772,2.3273,2.4185,2.5936,0.0,0.0,0.0,3.1456,3.2765,3.4215,0.0,0.0,0.0,0.0,0.0,0.0,0.0,0.0,0.0,0.0,0.0,0.0,0.0,0.0,0.0,0.0,0.0,0.0,0.0,0.0,0.0,0.0,0.0,2.6691,2.6691,2.6691,2.6691,2.6823,2.6887,2.6887,2.6906,2.7146,2.7623,2.7487,2.7723,2.8231,2.8231,2.8026,2.7701,2.7701,2.819,2.8982,2.916,2.9808,3.0724,3.1075,3.119,3.119,3.119,3.119,3.1258,0.0,0.0,0.0,0.0,0.0,0.0,0.0,0.0,1.1919,1.1919,0.0,0.0,0.0,0.0,0.0,0.5903,0.5845,0.586,0.5812,0.5798,0.6232,0.7211,0.8118,0.9296,1.0824,1.2885,1.4722,1.6395,1.7542,1.8983,2.0666,2.0666,2.1257,2.2263,2.2462,2.3103,2.4011,2.3986,2.4002,2.3998,2.3321,2.394,2.5356,0.0,0.0,0.0,2.8939,2.8611,0.0,2.671,0.0,0.0,0.0,2.2732,2.1673,2.1673,2.2146,2.2905,0.0,0.0,0.0,0.0,0.0,0.0,0.0,0.0,0.0,0.0,0.0,0.0,0.0,0.0,0.0,0.0,0.0,0.0,0.0,0.0,0.0,0.0,0.0,0.0,0.0,0.0,0.0,0.0,2.7182,2.6775,2.6725,2.6725,2.6725,2.6725,2.7075,2.7282,2.726,2.7261,2.7269,2.7253,2.689,2.6691,2.6691,2.6691,2.6691,2.6691,2.6691,2.6708,2.6853,2.8826,2.967,2.9802,3.0792,3.1157,3.1157,3.119,3.119,3.119,0.0,0.0,0.0,0.0,0.0,1.4485,1.3895,1.2882,1.2184,0.0,0.0,0.0,1.0361,0.9379,0.8026,0.6125,0.6752,0.6831,0.586,0.5801,0.5918,0.6194,0.7761,0.8986,0.9811,1.2774,1.5004,1.6395,1.7832,1.9063,2.0037,2.0037,2.0453,2.1144,2.1197,2.1597,2.226,2.2773,2.3987,2.5357,2.3344,2.3795,0.0,0.0,0.0,0.0,0.0,2.639,2.6113,0.0,2.655,2.6194,0.0,0.0,2.1053,2.1053,2.1486,0.0,2.2358,0.0,0.0,0.0,0.0,0.0,0.0,0.0,0.0,0.0,0.0,0.0,0.0,0.0,0.0,0.0,0.0,0.0,0.0,0.0,0.0,0.0,0.0,0.0,0.0,0.0,0.0,0.0,2.8349,2.806,2.7181,2.7127,2.7131,2.7131,2.6959,2.6742,2.6508,2.6461,2.6323,2.6074,2.6504,2.6691,2.6691,2.6691,2.6691,2.6691,2.6691,2.6708,2.6809,2.8095,2.9031,2.9751,3.0213,3.0412,3.048,3.1004,3.119,3.119,0.0,0.0,0.0,1.7529,1.6455,1.5467,1.4865,1.3506,1.2532,0.0,0.0,0.0,1.1144,1.034,0.9271,0.7873,0.826,0.8263,0.7466,0.7309,0.7451,0.7879,0.8928,0.9732,1.0211,1.2676,1.4593,1.5902,1.731,1.8737,2.0189,1.9911,2.0112,2.0679,2.044,2.0515,2.0817,2.1261,2.2626,0.0,2.2904,0.0,0.0,2.4851,2.5052,0.0,0.0,0.0,2.6373,2.6227,2.6437,0.0,0.0,0.0,0.0,0.0,2.1234,0.0,0.0,0.0,0.0,0.0,0.0,0.0,2.7279,2.9149,0.0,0.0,0.0,0.0,0.0,0.0,0.0,0.0,0.0,0.0,0.0,0.0,0.0,0.0,0.0,0.0,0.0,3.0398,3.0335,2.9417,2.9204,2.8569,2.7355,2.7451,2.7397,2.7057,2.7149,2.7023,2.6655,2.663,2.649,2.63,2.657,2.6691,2.6691,2.6691,2.6691,2.6691,2.6691,2.6691,2.6759,2.7334,2.8166,2.9118,2.9702,3.0002,3.0192,3.092,3.119,3.119,0.0,0.0,1.8957,1.806,1.7437,1.6694,1.565,1.4102,1.3113,0.0,1.301,1.2644,1.194,1.1341,1.08,1.0349,1.009,0.9924,0.9764,0.9502,0.9733,1.0602,1.0746,1.0955,1.1224,1.2566,1.3898,1.5186,1.6445,1.8275,2.0591,2.0037,2.0075,2.0578,2.0037,1.9798,1.9798,1.9798,0.0,2.2133,2.2196,2.3321,0.0,0.0,2.6371,2.6969,2.7136,2.722,2.7106,2.5974,2.5463,0.0,0.0,0.0,0.0,0.0,2.1059,0.0,0.0,0.0,0.0,0.0,0.0,0.0,2.4946,2.6881,2.8557,0.0,0.0,0.0,0.0,0.0,0.0,0.0,0.0,0.0,0.0,0.0,0.0,0.0,0.0,0.0,3.121,3.102,3.0855,3.0768,2.9863,2.8755,2.7494,2.7852,2.7699,2.6866,2.7479,2.7617,2.7179,2.717,2.7115,2.6994,2.6786,2.6607,2.6454,2.6623,2.6607,2.6454,2.6623,2.664,2.6573,2.6657,2.7233,2.8114,2.9019,2.9627,3.0074,3.0801,3.1123,3.119,0.0,1.8412,1.8802,1.8968,1.844,1.7687,1.6733,1.5566,1.4439,1.3352,1.3353,1.3317,1.2943,1.3194,1.279,1.1238,1.1406,1.12,1.016,0.9804,0.9599,0.9604,1.0378,1.0615,1.0205,1.2543,1.4227,1.5186,1.674,1.8347,1.9962,1.9861,1.9861,1.9962,1.9849,1.9798,1.9798,0.0,0.0,2.1056,2.1468,0.0,2.3505,2.3242,2.335,2.3632,2.4235,2.477,2.5217,2.5501,2.456,2.3167,0.0,0.0,0.0,0.0,0.0,0.0,0.0,0.0,0.0,0.0,0.0,0.0,2.3909,2.5461,2.682,0.0,0.0,0.0,0.0,0.0,0.0,0.0,0.0,0.0,0.0,0.0,0.0,0.0,0.0,0.0,3.123,3.1793,3.189,3.1239,3.0791,2.9873,2.8272,2.8873,2.8785,2.7695,2.7452,2.7045,2.6411,2.6361,2.5891,2.5067,2.6179,2.6082,2.4965,2.6166,2.6065,2.4998,2.6167,2.6353,2.5862,2.6454,2.6826,2.7012,2.721,2.8087,2.9314,3.004,3.0683,3.119,1.8008,1.8326,1.8765,1.9232,1.8761,1.8016,1.7223,1.6081,1.4933,1.398,1.4236,1.4391,1.4129,1.4501,1.4237,1.2988,1.3028,1.2778,1.1969,1.1504,1.1207,1.1038,1.1353,1.1351,1.0901,1.286,1.4392,1.541,1.6888,1.8672,2.0682,2.0437,2.045,2.0682,2.0424,2.0295,2.0283,0.0,2.072,2.2115,2.1672,0.0,2.2304,2.238,2.2495,2.2657,2.306,2.3596,2.4201,2.4874,2.4254,0.0,0.0,2.1803,2.1141,0.0,1.9617,1.9486,0.0,0.0,0.0,2.0311,0.0,0.0,0.0,2.3951,2.4949,2.5413,0.0,0.0,0.0,0.0,0.0,0.0,0.0,0.0,0.0,0.0,0.0,0.0,0.0,0.0,3.1526,3.2127,3.236,3.1971,3.1819,3.0946,2.9106,2.9582,2.9186,2.7654,2.7579,2.7192,2.6463,2.642,2.6116,2.5603,2.6352,2.6319,2.5625,2.6353,2.6302,2.5642,2.6386,2.6488,2.6184,2.6539,2.6691,2.6691,2.6705,2.7631,2.9094,2.9837,3.0565,3.119,1.8018,1.8247,1.867,1.9203,1.8861,1.8318,1.7723,1.6535,1.54,1.4698,1.5013,1.5383,1.5516,1.5669,1.5557,1.5149,1.4948,1.4619,1.412,1.3561,1.3242,1.3099,1.2645,1.2198,1.1794,1.3171,1.4439,1.5525,1.6931,1.8923,2.1444,2.1125,2.1293,2.1781,2.1366,2.1244,2.1312,2.0386,0.0,2.332,0.0,2.1773,2.1966,2.2457,2.2635,2.2634,2.2798,2.3201,2.3684,2.4216,0.0,2.3272,2.195,2.1546,0.0,0.0,0.0,0.0,0.0,0.0,0.0,0.0,0.0,2.085,0.0,0.0,0.0,2.3585,0.0,0.0,0.0,0.0,0.0,0.0,0.0,0.0,0.0,0.0,0.0,0.0,0.0,0.0,0.0,3.2349,3.2627,3.2585,3.2729,3.1911,2.9834,3.0104,2.9426,2.7474,2.7666,2.7441,2.6708,2.6691,2.6606,2.6418,2.6622,2.6553,2.6296,2.6568,2.655,2.6277,2.657,2.6588,2.6435,2.6623,2.6691,2.6691,2.6706,2.7633,2.9077,2.9668,3.0446,3.119,1.8061,1.8052,1.831,1.9161,1.9221,1.9106,1.8832,1.7829,1.6582,1.5148,1.499,1.5631,1.7224,1.7137,1.7079,1.7315,1.7482,0.0,1.5894,0.0,1.4797,1.4238,1.3292,1.2328,1.1469,1.3062,1.4333,1.5245,1.6834,1.873,2.0901,2.1426,2.1995,2.2575,2.2506,2.2818,2.3246,0.0,2.1515,0.0,2.2577,2.2817,0.0,2.3434,2.3143,2.2772,2.3304,2.3551,2.361,0.0,2.3304,2.2603,0.0,2.0586,1.9901,0.0,0.0,0.0,0.0,0.0,0.0,0.0,1.9249,0.0,0.0,0.0,2.2632,2.2084,0.0,0.0,0.0,0.0,0.0,0.0,0.0,0.0,0.0,0.0,0.0,0.0,0.0,0.0,0.0,3.2858,3.2977,3.263,3.3256,3.2638,3.0271,3.0579,2.9898,2.7908,2.753,2.7162,2.6708,2.6691,2.6247,2.5392,2.6275,2.6033,2.4785,2.6103,2.5981,2.4817,2.613,2.6189,2.5442,2.6316,2.6691,2.6691,2.6708,2.7638,2.901,2.9094,3.0025,3.119,1.8115,1.8422,1.8883,1.9257,1.9472,1.9488,1.9081,1.7804,1.6669,1.6002,1.5669,1.6048,1.752,0.0,0.0,0.0,0.0,1.7913,0.0,0.0,1.571,1.5854,1.4024,1.3314,1.3955,1.4089,1.5087,1.7011,1.7392,1.9063,2.1835,2.1762,2.229,2.3259,2.2866,2.3074,2.3599,0.0,2.2275,0.0,0.0,0.0,0.0,2.3744,2.3224,2.2719,2.2999,2.3295,2.355,0.0,2.2907,0.0,0.0,0.0,0.0,0.0,0.0,0.0,0.0,0.0,0.0,0.0,0.0,0.0,1.9423,0.0,2.1102,0.0,0.0,0.0,0.0,0.0,0.0,0.0,0.0,0.0,0.0,0.0,0.0,0.0,0.0,0.0,0.0,0.0,0.0,0.0,3.3348,3.2742,3.0338,3.0656,2.9978,2.7965,2.75,2.7099,2.6708,2.6691,2.6267,2.5429,2.6069,2.6061,2.5515,2.6318,2.6615,2.6498,2.7238,2.7186,2.6574,2.6987,2.7722,2.8495,2.7969,2.8254,2.9029,2.9264,3.0278,3.1584,1.8518,1.8884,1.9322,1.944,1.9727,1.9733,1.9232,1.8184,1.7387,1.7313,1.6936,0.0,1.8523,1.8683,0.0,0.0,1.9382,1.9228,0.0,0.0,1.6676,0.0,0.0,0.0,0.0,1.5133,1.6009,1.8176,1.8064,1.9678,2.2848,2.2442,2.2931,2.4197,2.3708,2.3766,2.4121,0.0,2.3276,2.4813,2.4014,2.4057,2.4521,2.3865,2.3336,2.2936,2.2765,2.2987,2.3251,2.2643,2.2422,0.0,2.2256,0.0,0.0,0.0,0.0,0.0,1.9472,0.0,0.0,0.0,0.0,0.0,0.0,0.0,0.0,0.0,0.0,0.0,0.0,0.0,0.0,0.0,0.0,0.0,0.0,0.0,0.0,0.0,0.0,0.0,0.0,0.0,0.0,0.0,0.0,3.2465,3.0161,3.027,2.9587,2.7789,2.735,2.7004,2.6708,2.6691,2.6437,2.5893,2.6141,2.6172,2.6024,2.6715,2.7356,2.7897,2.7815,2.7601,2.7286,2.7286,2.8091,2.9259,2.8711,2.8886,2.9518,2.9952,3.0888,3.2039,1.9352,1.9288,1.9429,1.9822,1.9898,1.983,1.9627,1.9559,1.9384,0.0,0.0,0.0,0.0,0.0,0.0,0.0,0.0,2.1653,2.0,0.0,1.7923,0.0,0.0,1.5066,0.0,0.0,1.6969,1.7913,1.8676,2.0616,2.3575,2.3547,2.4255,2.5546,2.5508,2.5508,2.5455,2.4174,2.437,2.5478,2.4212,2.4057,2.453,0.0,2.3596,2.3498,2.2912,0.0,0.0,2.1949,2.1739,0.0,0.0,0.0,0.0,0.0,0.0,0.0,0.0,0.0,0.0,1.9584,0.0,0.0,0.0,0.0,1.9721,0.0,0.0,0.0,0.0,0.0,0.0,2.0542,0.0,0.0,0.0,0.0,0.0,0.0,0.0,0.0,0.0,0.0,0.0,0.0,0.0,0.0,2.9718,2.9322,2.8576,2.7367,2.6939,2.6708,2.6691,2.6691,2.669,2.6649,2.6686,2.6281,2.5574,2.7151,2.788,2.7865,2.7081,2.6743,2.673,2.6721,2.7182,2.7912,2.8333,2.9381,3.0699,3.1167,3.1809,3.2484,2.1091,2.109,2.0837,2.0043,0.0,2.0439,2.065,2.1081,0.0,0.0,0.0,0.0,0.0,0.0,2.1319,0.0,0.0,2.2218,2.057,2.0133,0.0,0.0,0.0,1.7428,0.0,0.0,0.0,2.0075,1.9689,2.0843,2.3379,2.3084,2.3639,2.4844,2.4453,2.4515,0.0,0.0,0.0,0.0,0.0,2.3763,2.3924,0.0,0.0,2.2927,2.2283,2.2044,0.0,2.1261,2.1332,2.1754,2.2002,2.1327,2.0473,2.0752,2.0357,0.0,0.0,0.0,1.9431,1.9792,0.0,0.0,0.0,0.0,0.0,0.0,0.0,0.0,0.0,0.0,1.9405,1.9901,2.0519,2.1243,0.0,0.0,0.0,0.0,0.0,0.0,0.0,0.0,0.0,0.0,3.0892,0.0,0.0,2.8632,2.8272,2.7336,2.6906,2.6691,2.6691,2.6691,2.6454,2.5993,2.6461,2.6424,2.5989,2.675,2.7405,2.7865,2.7616,2.749,2.7461,2.7205,2.7999,2.9352,2.9043,3.0296,3.2313,3.1981,3.2334,3.2999,2.2545,0.0,0.0,0.0,0.0,2.1597,2.2191,0.0,0.0,0.0,2.2626,0.0,2.2935,0.0,2.2393,0.0,2.2635,2.2581,2.1434,2.1057,0.0,2.0979,1.944,0.0,0.0,0.0,0.0,0.0,2.047,2.1526,2.4036,2.3263,2.36,2.4868,2.423,2.4051,2.4261,0.0,2.435,0.0,0.0,2.3819,0.0,0.0,2.3355,2.2912,0.0,2.1695,2.156,2.0647,2.0797,2.1425,2.1844,2.1395,2.0778,2.1216,2.0872,2.0303,2.0109,1.9937,0.0,2.0111,1.9766,0.0,1.9622,0.0,0.0,0.0,0.0,0.0,0.0,0.0,0.0,1.9079,1.9357,1.999,0.0,2.3651,0.0,0.0,0.0,0.0,0.0,0.0,0.0,0.0,3.0184,0.0,0.0,0.0,2.8555,2.7925,2.7385,2.7097,2.7097,2.6826,2.6454,2.5998,2.6458,2.6583,2.6394,2.6606,2.6986,2.747,2.747,2.747,2.7454,2.7194,2.8037,2.9495,2.9517,3.0991,3.305,3.2393,3.2496,3.3069,0.0,0.0,0.0,0.0,2.2113,0.0,0.0,0.0,2.6596,0.0,2.6852,2.6525,2.5055,2.4867,2.4392,2.3378,2.3208,0.0,2.2625,2.1602,0.0,0.0,2.0036,1.9352,1.8724,0.0,0.0,0.0,0.0,2.2686,2.5315,2.3995,2.417,2.5538,2.4859,0.0,2.364,2.4321,2.4605,2.4605,2.4575,2.4156,2.3595,2.3595,2.3595,2.343,2.2158,2.165,2.1395,2.0142,2.0124,2.0658,2.0688,2.0673,2.0658,2.0688,2.0228,1.9824,2.0483,2.0162,1.983,2.0522,0.0,0.0,0.0,0.0,1.8993,0.0,0.0,0.0,0.0,0.0,0.0,1.8137,1.8569,1.9516,2.1183,0.0,0.0,0.0,0.0,0.0,0.0,0.0,0.0,2.9142,3.0329,3.0301,0.0,0.0,2.93,2.896,2.8247,2.7841,2.7807,2.7063,2.6708,2.6691,2.6691,2.6691,2.6691,2.6691,2.6691,2.6691,2.6691,2.6691,2.6691,2.6691,2.7282,2.8329,2.976,3.1406,3.2907,3.2447,3.2447,3.2766,2.4706,2.4333,2.4401,0.0,2.5624,2.5585,0.0,0.0,0.0,0.0,2.5317,2.4785,2.6348,2.5507,2.5003,2.5597,2.4864,0.0,0.0,0.0,0.0,2.1098,2.0893,2.0564,2.0112,2.0974,0.0,2.1577,0.0,2.3382,2.4568,2.3756,2.3879,2.4757,2.4133,2.3759,2.364,2.4321,2.4605,2.456,2.4073,2.3759,0.0,0.0,2.3595,2.343,2.2158,2.1051,2.0172,1.9828,1.9813,2.0034,2.0539,2.0363,2.0049,2.0539,2.0228,1.9738,1.9899,1.9545,1.9373,2.0426,2.0291,2.0063,0.0,0.0,0.0,0.0,0.0,0.0,0.0,0.0,0.0,0.0,0.0,0.0,0.0,0.0,0.0,2.36,0.0,0.0,0.0,0.0,2.848,2.7803,2.8351,2.8237,0.0,0.0,0.0,2.8146,2.8484,2.8399,2.7807,2.706,2.669,2.6691,2.6691,2.6691,2.6691,2.6691,2.6691,2.6691,2.6691,2.6691,2.6691,2.6691,2.7181,2.808,2.9841,3.1278,3.2483,3.3158,3.3426,3.3532,2.6017,0.0,0.0,2.7758,0.0,0.0,2.6909,0.0,0.0,2.8266,2.7174,0.0,2.7139,2.6633,2.611,2.5804,2.5382,0.0,2.4512,0.0,0.0,2.2528,2.2492,2.2097,2.125,2.1691,0.0,2.1897,0.0,2.3189,2.4335,2.3713,2.3955,2.4926,2.4,2.3759,2.4036,2.4126,2.4156,2.4126,2.3759,0.0,0.0,2.3595,2.343,2.3056,2.2054,2.1201,2.0468,1.9902,1.9708,1.9768,2.0139,1.9989,1.9783,2.0154,1.9989,1.9708,1.9708,1.9479,1.942,2.008,2.0038,2.0004,2.0669,2.0546,2.0255,0.0,0.0,0.0,0.0,0.0,0.0,0.0,0.0,0.0,0.0,0.0,0.0,0.0,0.0,0.0,0.0,0.0,2.7602,2.7997,2.8813,0.0,0.0,0.0,0.0,2.8838,2.955,2.9431,2.8349,2.7904,2.7365,2.6691,2.6691,2.6691,2.6691,2.6691,2.6691,2.6691,2.6691,2.6691,2.6691,2.6691,2.708,2.7912,3.0358,3.1739,3.2483,3.3445,3.3587,3.333,0.0,0.0,0.0,0.0,0.0,0.0,0.0,2.9514,0.0,2.9834,0.0,2.9316,2.7707,2.7728,2.7179,2.5404,0.0,2.547,2.4957,2.4803,2.4537,2.4139,2.4041,2.3389,2.212,2.2083,0.0,0.0,0.0,2.2862,2.4515,2.3843,2.4266,2.5555,2.4298,0.0,0.0,2.3849,2.3595,2.3595,2.3595,2.3638,2.3702,2.3638,2.3357,2.2924,2.2179,2.1769,2.138,2.0127,1.9708,1.9708,1.9708,1.9708,1.9708,1.9708,1.9768,1.9813,1.9723,1.9768,1.9813,1.9723,1.9708,1.9708,1.9708,1.9708,1.9708,1.9708,1.9708,1.9708,0.0,0.0,0.0,0.0,0.0,0.0,0.0,0.0,0.0,0.0,0.0,0.0,0.0,0.0,0.0,2.8795,3.0147,0.0,0.0,0.0,0.0,3.0006,3.0768,3.0581,2.9297,0.0,2.8333,2.6996,2.6809,2.6691,2.6691,2.6691,2.6691,2.6691,2.6691,2.6725,2.6774,2.6724,2.7126,2.8096,3.0823,3.2256,3.2839,3.3532,3.3421,3.3005,0.0,0.0,0.0,0.0,0.0,3.1667,3.0801,2.9457,2.8834,2.9685,2.7867,2.703,2.8457,2.7533,2.6977,2.7471,2.681,0.0,0.0,0.0,0.0,2.3639,2.3195,2.284,2.2594,2.2891,2.2835,0.0,0.0,2.4167,2.5218,2.4543,2.4717,2.557,2.4769,0.0,2.3774,2.3655,0.0,2.3595,2.3595,2.3858,2.4204,2.3773,2.4081,2.4622,2.3503,2.2147,2.0752,1.9959,1.9708,1.9708,1.9708,1.9708,1.9708,1.9708,2.0094,2.0408,1.9839,2.0094,2.0393,1.9842,1.9708,1.9708,1.9708,1.9708,1.9708,1.9708,1.9708,1.9708,1.9708,0.0,0.0,0.0,0.0,0.0,0.0,0.0,0.0,0.0,0.0,0.0,0.0,0.0,0.0,0.0,0.0,0.0,0.0,0.0,0.0,0.0,3.0497,0.0,0.0,0.0,2.8857,2.8587,2.7317,2.6691,2.6691,2.6691,2.6691,2.6691,2.6691,2.689,2.7177,2.684,2.7794,2.9522,3.009,3.1651,3.3605,3.3752,3.4124,3.4509,0.0,0.0,0.0,0.0,0.0,0.0,0.0,3.1083,0.0,3.0509,2.9079,2.8194,2.8481,2.7793,2.73,2.7272,2.7055,2.6712,2.6202,2.5682,2.5472,2.5665,2.51,0.0,2.4463,2.4053,2.3834,2.3897,0.0,0.0,2.5973,2.5283,2.5384,2.6102,2.5705,2.5339,0.0,0.0,0.0,2.443,2.443,2.4592,2.4792,2.4532,2.4752,2.5086,2.4157,2.3011,2.1817,2.0939,2.0212,1.9708,1.9708,1.9708,1.9708,1.9708,1.9929,2.0109,1.9798,1.9947,2.0094,1.9783,1.9708,1.9708,1.9708,1.9708,1.9708,1.9708,1.9708,1.9809,2.0161,2.029,0.0,0.0,0.0,0.0,0.0,0.0,0.0,0.0,0.0,0.0,0.0,0.0,0.0,0.0,0.0,0.0,0.0,0.0,0.0,0.0,0.0,0.0,0.0,0.0,0.0,2.7801,2.7434,2.708,2.6691,2.6691,2.6691,2.6708,2.6923,2.7013,2.7047,2.7968,2.9173,3.0481,3.1075,3.2077,3.3238,3.3642,3.4307,3.4949,0.0,3.0911,0.0,0.0,3.1841,0.0,3.2653,3.288,3.2605,3.1455,3.0829,2.9971,2.8621,2.8239,2.7749,2.6902,2.7071,2.7056,2.6639,2.6616,2.6901,2.7509,2.6943,2.6444,2.6129,2.5071,2.4685,0.0,0.0,0.0,0.0,2.6049,2.6151,0.0,0.0,0.0,0.0,0.0,2.5202,2.5202,2.5202,2.5278,2.5354,2.524,2.5335,2.5424,2.4818,2.4118,2.3354,2.2352,2.1095,1.998,1.998,1.9925,1.9836,1.9836,1.987,1.9887,1.9738,1.9813,1.9887,1.9738,1.9708,1.9708,1.9708,1.9708,1.9708,1.9708,1.9708,1.9896,2.0586,2.1132,0.0,0.0,0.0,0.0,0.0,0.0,0.0,0.0,0.0,0.0,0.0,0.0,0.0,0.0,0.0,0.0,0.0,0.0,0.0,0.0,0.0,3.119,3.0661,0.0,2.9848,2.7664,2.7754,2.7401,2.6691,2.6691,2.6691,2.6725,2.703,2.7278,2.7612,2.9467,3.0726,3.1606,3.2499,3.2963,3.3188,3.3825,3.4674,3.5536,0.0,0.0,0.0,0.0,0.0,0.0,0.0,3.3765,3.3667,3.1797,3.1103,3.0491,2.9712,2.8662,2.7983,2.7865,2.7342,2.7017,2.6956,2.6935,2.6988,2.7064,2.6532,2.6246,2.619,2.5589,2.5039,0.0,0.0,0.0,0.0,2.6767,0.0,0.0,0.0,0.0,0.0,2.5234,2.5202,2.5202,2.5202,2.5486,2.587,2.5373,2.5764,2.6505,2.602,2.5401,2.4693,2.3934,2.2427,2.0878,2.0878,2.0599,2.0246,2.0246,2.0421,2.0464,1.9872,2.0139,2.0468,1.9839,1.9708,1.9708,1.9708,1.9708,1.9708,1.9708,1.9708,1.9899,2.0583,2.0748,2.1198,0.0,0.0,0.0,0.0,0.0,0.0,0.0,0.0,0.0,0.0,0.0,0.0,0.0,0.0,0.0,0.0,0.0,0.0,3.0987,0.0,3.2707,3.3777,3.1402,3.0385,3.0757,2.8758,2.7401,2.6691,2.6691,2.6691,2.6691,2.6743,2.7988,3.003,3.089,3.2168,3.3537,3.3655,3.4131,3.4784,3.4857,3.5899,3.7272,0.0,0.0,0.0,0.0,0.0,0.0,0.0,3.3668,3.3322,3.1752,3.0931,3.0155,2.9306,2.8126,2.7398,2.7416,2.7156,2.6982,2.7004,2.7006,2.724,2.7766,2.7202,2.6905,2.6989,2.638,2.6125,0.0,0.0,0.0,0.0,0.0,0.0,0.0,0.0,2.6962,2.7435,2.6486,2.6105,2.6105,2.6105,2.6228,2.6401,2.6176,2.635,2.6674,2.6487,2.595,2.5246,2.4508,2.3095,2.1584,2.1151,2.0862,2.0715,2.0715,2.0803,2.0822,2.0559,2.0478,2.0403,2.0131,1.9874,1.9708,1.9708,1.9708,1.9708,1.9708,1.9708,1.9783,2.0049,2.0985,2.1892,0.0,0.0,0.0,0.0,0.0,0.0,0.0,0.0,0.0,0.0,0.0,0.0,0.0,0.0,0.0,0.0,0.0,0.0,3.2292,0.0,3.2164,3.2391,3.2311,3.1672,3.0522,2.942,2.8286,2.717,2.6842,2.6691,2.6773,2.8058,2.9689,3.15,3.2457,3.3211,3.386,3.4325,3.472,3.5059,3.5591,3.6505,3.7492,3.3918,0.0,3.3169,0.0,3.3226,3.3209,3.3223,3.3045,3.2507,3.1372,3.0393,2.9592,2.909,2.7919,2.719,2.7165,2.6826,2.6587,2.6589,2.6592,2.6874,2.749,2.7041,0.0,2.6943,2.6465,2.6465,2.6943,2.7023,0.0,0.0,0.0,0.0,0.0,2.7687,2.7601,2.8248,2.7165,2.6691,2.6691,2.6691,2.6573,2.637,2.637,2.637,2.6353,2.6116,2.5862,2.5456,2.4508,2.3413,2.2361,2.1613,2.1291,2.1181,2.1178,2.1085,2.1007,2.099,2.0765,2.0466,2.0331,2.0089,1.9839,1.9744,1.9708,1.9708,1.9708,1.9708,1.9744,1.9856,2.1246,2.2515,2.2848,0.0,0.0,0.0,0.0,0.0,0.0,0.0,2.2937,2.3238,0.0,0.0,0.0,0.0,0.0,0.0,0.0,0.0,0.0,0.0,0.0,0.0,3.3227,3.262,3.1191,3.0314,2.9228,2.7942,2.7092,2.7181,2.8112,2.961,3.11,3.2517,3.3592,3.4078,3.4215,3.5059,3.5536,3.5811,3.6431,3.7162,3.786,3.3765,3.4041,3.4271,3.3612,3.3501,3.3278,3.2591,3.1952,3.1292,3.0599,2.9407,2.8875,2.9525,2.8388,2.7583,2.7589,2.6367,2.5605,2.5606,2.5621,2.5612,0.0,0.0,2.5621,2.5621,2.5621,2.5606,2.5621,0.0,0.0,2.6452,0.0,2.8093,2.8099,2.7894,2.7401,2.6725,2.6725,2.6691,2.6691,2.6691,2.6251,2.5609,2.5609,2.5609,2.5524,2.4795,2.4983,2.5389,2.39,2.3393,2.326,2.2533,2.1974,2.1592,2.159,2.1308,2.1007,2.1003,2.1005,2.0878,2.0416,2.0297,2.0193,1.98,1.9708,1.9708,1.9708,1.9708,1.9836,2.0212,2.1448,2.2764,2.3901,0.0,0.0,0.0,0.0,0.0,0.0,2.5068,2.518,2.4179,0.0,0.0,0.0,0.0,0.0,0.0,0.0,0.0,3.4143,3.3786,0.0,3.7112,3.4053,3.2921,3.3737,3.1609,3.0059,2.9039,2.7445,2.8321,3.1148,3.1185,3.1864,3.3067,3.4144,3.4742,3.5078,3.5936,3.6776,3.7474,3.7474,3.7991,3.8689,3.358,3.3688,3.3623,3.2931,3.2808,3.2438,3.1317,3.0953,3.0425,2.9349,2.8868,2.8323,2.7634,2.7165,2.6729,0.0,2.5841,2.5613,0.0,2.5615,2.5615,2.5615,2.5615,2.5771,2.6145,2.6145,2.6586,2.7447,0.0,0.0,0.0,2.7777,2.7891,2.7855,2.7297,2.7197,2.7429,2.6911,2.6691,2.6691,2.6691,2.6556,2.6302,2.5795,2.5913,2.6184,2.4948,2.4966,2.5373,2.3906,2.3401,2.3281,2.2519,2.2194,2.2089,2.2077,2.1979,2.1884,2.1893,2.164,2.1368,2.1228,2.0732,2.0263,2.0141,1.9909,1.9708,1.9708,1.9708,1.9836,2.0229,2.1749,2.3167,2.3844,2.4976,0.0,0.0,0.0,0.0,0.0,0.0,2.4301,0.0,2.6711,0.0,0.0,0.0,0.0,0.0,0.0,0.0,0.0,3.5669,0.0,3.6586,3.5956,3.5027,3.3799,3.3107,3.091,2.7509,2.9054,3.03,3.1202,3.1202,3.1655,3.2489,3.3898,3.4503,3.4767,3.6454,3.7272,3.7566,3.812,3.8487,3.8707,3.2847,3.3156,3.3306,3.2643,3.2516,3.2226,3.1393,3.0803,3.0186,2.9388,2.9063,2.8377,2.7003,2.6854,0.0,2.5324,2.4984,2.4852,2.4852,2.504,2.5152,2.5152,2.5336,2.5605,2.5931,0.0,0.0,2.7524,2.7676,2.8005,2.8422,2.7716,2.7518,2.7769,2.7029,2.6961,2.7345,2.6894,2.6691,2.6691,2.6691,2.6522,2.6201,2.5473,2.5456,2.5692,2.4203,2.4137,2.4578,2.3399,2.2979,2.291,2.2465,2.2296,2.2296,2.2296,2.2296,2.2296,2.2296,2.2092,2.1809,2.1627,2.1197,2.0749,2.06,2.0227,1.9927,1.9927,1.9818,1.9889,2.0449,2.1768,2.3091,2.3983,2.5113,2.5762,2.5545,0.0,0.0,0.0,0.0,0.0,0.0,2.7666,2.9052,0.0,0.0,0.0,0.0,0.0,0.0,3.5563,3.594,0.0,3.6589,3.6104,3.5158,3.3795,3.3799,3.2242,2.9452,3.1964,3.2751,3.2161,3.2792,3.3213,3.351,3.4776,3.5351,3.5578,3.7296,3.7936,3.8025,3.8505,3.8707,3.8707,3.185,3.2604,0.0,0.0,3.2539,0.0,3.2367,3.1235,3.0378,3.0328,2.9741,2.8808,2.745,2.7246,2.6521,2.4777,0.0,0.0,0.0,2.4142,2.441,2.445,2.4914,2.5221,2.5259,2.5259,2.5593,2.631,2.6746,2.762,2.8891,2.7402,2.7063,2.7685,2.7012,2.6691,2.6691,2.6691,2.6691,2.6691,2.6691,2.6285,2.5592,2.4795,2.4525,2.4372,2.2852,2.2784,2.3291,2.255,2.2296,2.2296,2.2296,2.2296,2.2296,2.2296,2.2296,2.2296,2.2296,2.2296,2.2194,2.1764,2.1612,2.1491,2.1086,2.0666,2.0348,2.0314,2.0035,2.0032,2.0845,2.1616,2.2639,2.4165,2.5084,2.5828,2.6454,0.0,0.0,0.0,0.0,0.0,0.0,2.8834,2.9523,0.0,0.0,0.0,0.0,0.0,3.4831,3.486,3.5069,3.5752,3.6977,3.4949,3.3875,3.3807,3.3807,3.379,3.3866,3.5539,3.5369,3.3859,3.549,3.5945,3.5618,3.6447,3.689,3.7146,3.8255,3.8707,3.8707,3.8707,3.8744,3.8781,0.0,0.0,3.3345,3.2641,3.2521,3.215,3.106,3.0606,3.0233,2.9701,2.9016,2.8233,2.7389,2.6802,2.6078,2.5138,2.4525,2.4389,2.4776,2.4572,2.4592,2.4992,2.5128,2.5392,2.5799,2.5815,2.6341,2.7416,2.7524,2.7767,2.806,2.7131,2.6793,2.6962,2.6776,2.6691,2.6691,2.6691,2.6691,2.6691,2.6691,2.659,2.6302,2.4998,2.4846,2.5067,2.3023,2.2784,2.3291,2.255,2.2296,2.2296,2.2296,2.2296,2.2296,2.2296,2.2296,2.2296,2.2296,2.2296,2.2265,2.2149,2.1853,2.1491,2.1086,2.091,2.0732,2.0365,2.0515,2.0763,2.0959,2.1859,2.2811,2.3538,2.4746,2.5456,2.5083,2.5146,0.0,0.0,2.6518,2.7007,2.8637,2.9446,3.0196,0.0,0.0,0.0,0.0,3.404,3.4702,3.451,3.606,3.657,3.5901,3.5349,3.4654,3.3807,3.3807,3.3798,3.3854,3.5541,3.56,3.4463,3.568,3.5774,3.515,3.6313,3.6658,3.6576,3.8092,3.8707,3.8707,3.8707,3.9093,3.9533,3.2681,3.3377,3.3712,3.2643,3.271,3.2547,3.1451,3.0975,3.052,2.9807,2.9376,2.8727,2.7656,2.7178,2.6648,2.5955,2.5198,2.4891,2.5182,2.5163,2.5259,2.5542,2.5764,2.6016,2.6314,2.6314,2.6637,2.73,2.73,2.73,2.73,2.6894,2.6691,2.6691,2.6691,2.6691,2.6691,2.6691,2.6691,2.6691,2.6691,2.6691,2.6573,2.5439,2.5033,2.4898,2.3359,2.2852,2.2835,2.2431,2.2296,2.2296,2.2296,2.2296,2.2296,2.2296,2.2296,2.2296,2.2296,2.2296,2.2296,2.2296,2.2106,2.1869,2.1645,2.1431,2.1213,2.0959,2.0959,2.1071,2.1244,2.2049,2.2839,2.3317,2.4644,2.5456,2.505,2.5463,0.0,2.708,2.7327,2.7981,2.9362,3.0176,3.0768,3.1157,3.1577,0.0,3.2739,3.3742,3.4488,3.4921,3.5869,3.6387,3.6419,3.5299,3.4421,3.3807,3.4582,3.4802,3.4628,3.615,3.6517,3.597,3.6937,3.7074,3.6699,3.7382,3.7537,3.7428,3.8339,3.8707,3.8707,3.8707,3.8982,3.9331,3.2671,3.3617,3.4129,3.2655,3.2859,3.3005,3.2263,3.1616,3.0942,3.0202,3.0,2.9373,2.7964,2.7708,2.7368,2.6742,2.5926,2.543,2.543,2.5797,2.6031,2.6103,2.6487,2.6691,2.6691,2.6691,2.6691,2.6691,2.6691,2.6691,2.6691,2.6691,2.6691,2.6691,2.6691,2.6691,2.6691,2.6691,2.6691,2.6691,2.6691,2.6623,2.6437,2.571,2.4983,2.4237,2.3509,2.2835,2.2296,2.2296,2.2296,2.2296,2.2296,2.2296,2.2296,2.2296,2.2296,2.2296,2.2296,2.2296,2.2296,2.2296,2.2296,2.2296,2.2296,2.1988,2.1688,2.1612,2.1465,2.1437,2.1716,2.2432,2.3132,2.3652,2.4881,2.5778,2.5778,0.0,2.7283,2.7908,2.867,2.9448,3.0192,3.0835,3.119,3.119,3.119,3.1549,3.2352,3.3035,3.4032,3.5376,3.5142,3.5614,3.6934,3.4857,3.3803,3.3825,3.5234,3.5745,3.5468,3.674,3.7382,3.7547,3.834,3.8707,3.8707,3.8707,3.8707,3.8707,3.8836,3.8817,3.8726,3.8982,3.9074,3.9166,3.2799,3.3552,3.405,3.2576,3.2394,3.2229,3.1481,3.1258,3.0956,3.0211,2.9551,2.8825,2.7893,2.7233,2.6809,2.6725,2.6556,2.647,2.647,2.6157,2.6191,2.6573,2.6657,2.6691,2.6691,2.6691,2.6691,2.6691,2.6691,2.6691,2.6691,2.6691,2.6691,2.6691,2.6691,2.6691,2.6691,2.6691,2.6691,2.6691,2.6691,2.6336,2.5693,2.4948,2.422,2.346,2.275,2.2398,2.2296,2.2296,2.2296,2.2296,2.2296,2.2296,2.2296,2.2296,2.2296,2.2296,2.2296,2.2296,2.2296,2.2296,2.2296,2.2296,2.2296,2.2237,2.2092,2.1688,2.2367,2.2921,2.2596,2.346,2.4447,2.5153,2.5981,2.6522,2.6522,0.0,2.8688,2.8807,2.9465,3.0226,3.0954,3.1123,3.119,3.119,3.119,3.1407,3.1873,3.2034,3.2863,3.4526,3.4867,3.4804,3.4389,3.3995,3.3793,3.3807,3.4059,3.45,3.5114,3.6064,3.6868,3.7547,3.834,3.8707,3.8707,3.8707,3.8707,3.8781,3.9441,3.9294,3.8872,4.0215,4.0728,4.0747,3.2622,3.3194,3.3452,3.1953,3.2049,3.2056,3.1309,3.119,3.0784,2.9651,2.9213,2.8553,2.7334,2.6894,2.6691,2.6691,2.6691,2.6691,2.6691,2.6504,2.647,2.6691,2.6691,2.6691,2.6691,2.6691,2.6691,2.6691,2.6691,2.6691,2.6691,2.6691,2.6691,2.6691,2.6691,2.6691,2.6691,2.6691,2.6472,2.6101,2.6116,2.5677,2.4972,2.4629,2.4051,2.3359,2.3004,2.2649,2.2296,2.2296,2.2296,2.2296,2.2296,2.2296,2.2296,2.2296,2.2296,2.2296,2.2296,2.2296,2.2296,2.2296,2.2296,2.2296,2.2296,2.2615,2.2827,2.2601,2.3325,2.3922,2.372,2.4451,2.5067,2.5017,2.6285,0.0,0.0,2.8028,2.9145,2.955,2.9888,3.0395,3.1123,3.119,3.119,3.119,3.119,3.1385,3.1788,3.1798,3.2283,3.3347,3.4881,3.5306,3.4454,3.4628,3.4417,3.3817,3.5014,3.5463,3.5312,3.6883,3.779,3.8175,3.8542,3.8707,3.8707,3.8707,3.8707,3.8781,3.9588,3.9662,3.9441,4.0175,4.0726,4.1095,3.2227,3.2646,3.273,3.1427,3.1684,3.1853,3.1275,3.119,3.0666,2.9196,2.8993,2.8417,2.686,2.6691,2.6691,2.6691,2.6691,2.6691,2.6691,2.6691,2.6691,2.6691,2.6691,2.6691,2.6691,2.6691,2.6691,2.6691,2.6691,2.6691,2.6691,2.6691,2.6691,2.6691,2.6691,2.6691,2.6691,2.6691,2.6371,2.5832,2.5669,2.516,2.4483,2.4308,2.3797,2.3139,2.3139,2.2784,2.2296,2.2296,2.2296,2.231,2.2374,2.2385,2.2385,2.2385,2.2385,2.2374,2.2324,2.2296,2.2296,2.2296,2.2431,2.2513,2.233,2.3004,2.3611,2.3427,2.412,2.4762,2.4762,2.5355,2.5795,2.5574,0.0,0.0,0.0,2.8671,2.969,3.0192,3.0319,3.0603,3.1281,3.1252,3.119,3.119,3.1276,3.1502,3.1893,3.2017,3.2395,3.3121,3.4911,3.5611,3.5119,3.538,3.5119,3.4398,3.6097,3.6582,3.6014,3.7601,3.8453,3.8707,3.8707,3.8707,3.8707,3.8707,3.8707,3.8799,3.979,4.0065,3.9971,4.0524,4.102,4.1407,3.156,3.187,3.2141,3.1326,3.1241,3.1258,3.1207,3.119,3.0666,2.9196,2.8993,2.8417,2.686,2.6691,2.6691,2.6691,2.6691,2.6691,2.6691,2.6691,2.6691,2.6691,2.6691,2.6691,2.6691,2.6691,2.6691,2.6691,2.6691,2.6691,2.6691,2.6691,2.6691,2.6691,2.6691,2.6691,2.6691,2.6691,2.6674,2.6555,2.5895,2.5172,2.4424,2.3742,2.3021,2.2381,2.2381,2.2347,2.2296,2.2296,2.2296,2.2349,2.2586,2.2656,2.2656,2.2656,2.2656,2.2625,2.236,2.2296,2.2296,2.2296,2.2818,2.3139,2.2462,2.3393,2.422,2.3528,2.4526,2.5524,2.5524,2.6116,2.7063,2.8451,0.0,0.0,2.977,3.0531,3.0942,3.0698,3.0936,3.13,3.1716,3.1411,3.119,3.119,3.1555,3.1899,3.2253,3.2669,3.3573,3.5055,3.4723,3.4837,3.5455,3.5487,3.5713,3.6105,3.6266,3.6707,3.7349,3.7261,3.7774,3.8707,3.8707,3.8707,3.8707,3.8707,3.8707,3.8854,4.0398,4.0561,4.0157,4.2396,4.28,4.2323,3.1314,3.143,3.1532,3.1241,3.119,3.119,3.119,3.119,3.0818,2.982,2.9281,2.8604,2.7486,2.6962,2.6691,2.6691,2.6691,2.6691,2.6691,2.6691,2.6691,2.6691,2.6691,2.6691,2.6691,2.6691,2.6691,2.6691,2.6955,2.7057,2.708,2.7327,2.7313,2.708,2.7327,2.7319,2.7034,2.6566,2.613,2.5625,2.4636,2.3799,2.3112,2.2815,2.2533,2.2296,2.2296,2.2296,2.2338,2.2487,2.255,2.2603,2.291,2.3009,2.3109,2.3613,2.3754,2.3834,2.4252,2.399,2.355,2.333,2.3869,2.4322,2.3788,2.4441,2.5101,2.4831,2.5575,2.6285,2.6285,2.6505,2.6877,2.7486,0.0,2.9094,2.9382,3.0661,3.1519,3.1409,3.1754,3.1945,3.1811,3.1663,3.1472,3.1227,3.1338,3.149,3.1612,3.2222,3.3054,3.4096,3.4654,3.5368,3.6255,3.575,3.5948,3.6802,3.6964,3.7474,3.823,3.8141,3.8307,3.8707,3.8707,3.8982,3.9441,3.9441,3.9735,4.0288,4.1423,4.1662,4.1497,4.2415,4.2873,4.302,3.119,3.119,3.119,3.119,3.119,3.119,3.119,3.119,3.0937,3.0209,2.9448,2.8687,2.7891,2.7148,2.6691,2.6691,2.6691,2.6691,2.6691,2.6691,2.6691,2.6691,2.6691,2.6691,2.6691,2.6691,2.6758,2.689,2.717,2.7366,2.748,2.7768,2.7739,2.7495,2.778,2.7613,2.7088,2.6566,2.5859,2.4975,2.3973,2.3333,2.2962,2.273,2.2649,2.2649,2.2649,2.2499,2.2335,2.2612,2.2708,2.2784,2.3212,2.3518,2.3909,2.4819,2.5016,2.5075,2.5739,2.5691,2.5296,2.4616,2.5048,2.5499,2.4968,2.5514,2.6071,2.585,2.6265,2.6691,2.6691,2.6691,2.686,2.7351,2.8316,2.9214,2.9792,3.0974,3.1907,3.2196,3.2389,3.2368,3.2041,3.2003,3.1802,3.1247,3.145,3.1759,3.209,3.2664,3.3322,3.4083,3.5091,3.6054,3.686,3.6458,3.6717,3.7594,3.779,3.8175,3.8707,3.8707,3.8707,3.8707,3.8964,3.9239,3.9551,3.9903,4.0559,4.1415,4.1956,4.2214,4.2323,4.258,4.302,4.3423,3.119,3.119,3.119,3.119,3.119,3.119,3.119,3.119,3.0937,3.019,2.9465,2.8687,2.7908,2.7165,2.6725,2.6691,2.6691,2.6691,2.6691,2.6691,2.6691,2.6708,2.6691,2.6691,2.6691,2.6691,2.689,2.7303,2.7312,2.7509,2.7897,2.7897,2.7897,2.7884,2.7889,2.7441,2.6688,2.6693,2.602,2.494,2.4178,2.4128,2.4403,2.3672,2.3408,2.3376,2.3376,2.2919,2.2335,2.2612,2.2708,2.2822,2.35,2.4281,2.5131,2.6271,2.6373,2.6197,2.6538,2.72,2.7463,2.5975,2.6211,2.6606,2.5798,2.6497,2.7111,2.6365,2.6474,2.6708,2.6708,2.6725,2.7216,2.8774,2.9028,2.9673,3.1533,3.1825,3.2156,3.3084,3.2797,3.2507,3.2511,3.2522,3.2144,3.1271,3.2003,3.2952,3.4035,3.4333,3.4827,3.5566,3.6118,3.6643,3.7192,3.7667,3.8167,3.8707,3.8707,3.8707,3.8707,3.8707,3.8707,3.8762,3.9551,3.9441,3.8802,3.9857,4.0942,4.191,4.1915,4.2069,4.2415,4.3221,4.3515,4.3515,3.119,3.119,3.119,3.119,3.119,3.119,3.119,3.119,3.1123,3.0903,3.0226,2.9482,2.8721,2.7943,2.7249,2.6742,2.6691,2.6691,2.6691,2.6691,2.6841,2.7115,2.6841,2.6691,2.6691,2.6995,2.7181,2.7296,2.782,2.8135,2.8243,2.7954,2.7677,2.7397,2.7103,2.6706,2.6168,2.5655,2.5249,2.4848,2.3819,2.3475,2.3562,2.3336,2.3111,2.2917,2.2917,2.2651,2.2377,2.2878,2.3057,2.3271,2.4501,2.5453,2.6267,2.7178,2.7365,2.743,2.8102,2.8455,2.8326,2.7042,2.7325,2.7798,2.7325,2.7473,2.7581,2.707,2.7285,2.7629,2.7917,2.8194,2.871,2.976,3.0347,3.0872,3.1444,3.2243,3.2901,3.3178,3.3322,3.3294,3.3021,3.2992,3.2616,3.1691,3.1598,3.1735,3.2053,3.3124,3.3829,3.4066,3.5217,3.6291,3.7173,3.7667,3.8167,3.8707,3.8707,3.9001,3.9515,3.8957,3.9323,4.0325,3.9429,3.9774,4.0861,3.9659,4.0708,4.3015,4.3019,4.3075,4.3167,4.3423,4.3515,4.3515,3.119,3.119,3.119,3.119,3.119,3.119,3.119,3.119,3.119,3.119,3.0565,2.9939,2.9482,2.8467,2.7621,2.7182,2.686,2.6691,2.6691,2.6841,2.7055,2.7304,2.7231,2.7178,2.7178,2.7422,2.7448,2.7263,2.7717,2.7854,2.7677,2.7451,2.7193,2.6952,2.6706,2.6286,2.5728,2.5296,2.5016,2.4846,2.4157,2.3968,2.4117,2.4122,2.3788,2.3341,2.3319,2.3252,2.3216,2.3702,2.4162,2.4757,2.5967,2.6667,2.7236,2.8044,2.8282,2.8374,2.8877,2.9005,2.8812,2.8094,2.8282,2.8577,2.8373,2.8215,2.8034,2.7791,2.8084,2.8438,2.8689,2.9206,2.9831,3.0612,3.1113,3.1556,3.2038,3.2737,3.327,3.3414,3.3647,3.3647,3.3245,3.3205,3.2796,3.1861,3.1702,3.1749,3.2039,3.3373,3.4284,3.4592,3.5832,3.6827,3.747,3.7981,3.8382,3.8707,3.8698,3.8954,3.9449,4.023,4.0905,4.1366,4.0394,4.0577,4.1521,4.0854,4.138,4.2598,4.3255,4.3311,4.3057,4.3386,4.3515,4.3515,3.119,3.119,3.119,3.119,3.119,3.119,3.119,3.119,3.119,3.119,3.0565,3.0074,3.0023,2.8753,2.7874,2.7807,2.7216,2.6826,2.6758,2.7132,2.7364,2.7415,2.7749,2.7957,2.7996,2.7962,2.7699,2.7204,2.7234,2.7061,2.6704,2.6628,2.661,2.6602,2.651,2.6043,2.5283,2.5283,2.5158,2.4946,2.4878,2.5147,2.5585,2.5517,2.5063,2.4457,2.4454,2.4471,2.4553,2.4878,2.5754,2.6851,2.7567,2.7842,2.8044,2.8785,2.9005,2.9005,2.9005,2.9005,2.9005,2.9005,2.9005,2.9005,2.9005,2.8779,2.8554,2.851,2.8927,2.9315,2.9357,2.9991,3.0754,3.1487,3.1613,3.1999,3.3086,3.3319,3.3501,3.3854,3.3985,3.3875,3.3523,3.3437,3.3015,3.2087,3.2331,3.2795,3.344,3.4685,3.5665,3.6339,3.7325,3.7895,3.8002,3.8419,3.8643,3.8707,3.8706,3.875,3.8949,4.2069,4.2965,4.204,4.2031,4.1776,4.1442,4.2903,4.2555,4.1262,4.2866,4.3051,4.2506,4.3222,4.3515,4.3515,3.119,3.119,3.119,3.119,3.119,3.119,3.119,3.119,3.119,3.119,3.0565,2.9888,2.9314,2.8942,2.8484,2.7858,2.7929,2.7784,2.7213,2.7552,2.7886,2.8146,2.8255,2.8448,2.8755,2.8442,2.7933,2.7202,2.753,2.7633,2.7526,2.6891,2.6605,2.6565,2.5933,2.5209,2.4456,2.4456,2.4782,2.5241,2.4614,2.5155,2.6288,2.567,2.5546,2.5706,2.5706,2.5561,2.5386,2.5738,2.6595,2.7567,2.7761,2.8227,2.8767,2.895,2.9005,2.9005,2.9005,2.9005,2.9005,2.9005,2.9005,2.9005,2.9005,2.9416,2.9728,2.9388,3.0176,3.1005,3.1379,3.1819,3.2365,3.3149,3.3285,3.3377,3.3625,3.4221,3.4641,3.4724,3.5344,3.5715,3.5628,3.5294,3.4662,3.3674,3.4057,3.4258,3.4024,3.5171,3.5928,3.6068,3.6911,3.7828,3.8831,3.8321,3.8283,3.8707,3.8706,3.915,4.0026,4.2425,4.3378,4.3147,4.3149,4.3094,4.3002,4.3367,4.2548,4.1259,4.2858,4.3403,4.3259,4.3441,4.3515,4.3515,3.119,3.119,3.119,3.119,3.119,3.119,3.119,3.119,3.119,3.119,3.0869,3.048,3.0093,2.9741,2.9153,2.8169,2.8473,2.8413,2.765,2.793,2.8219,2.8394,2.8576,2.8784,2.8994,2.8792,2.8294,2.7501,2.7691,2.7607,2.7221,2.6796,2.6602,2.6583,2.6153,2.5731,2.5346,2.5346,2.5813,2.6518,2.609,2.6423,2.7124,2.6707,2.6455,2.6342,2.6351,2.6476,2.6729,2.7287,2.7894,2.8374,2.8374,2.8656,2.9005,2.9005,2.9005,2.9005,2.9005,2.9005,2.9005,2.9005,2.9297,2.9566,2.9574,2.9904,3.0253,3.042,3.1278,3.2038,3.2283,3.2802,3.3311,3.3733,3.3807,3.3935,3.4307,3.472,3.516,3.5577,3.6021,3.6214,3.5977,3.5736,3.5296,3.4546,3.5081,3.5328,3.5072,3.622,3.6898,3.6898,3.7934,3.881,3.9483,3.9465,3.9564,3.9829,3.9079,3.8982,3.9622,4.2306,4.3494,4.3515,4.3515,4.3515,4.3496,4.3494,4.3001,4.2328,4.3164,4.3273,4.2965,4.3368,4.3515,4.3515,3.119,3.119,3.119,3.119,3.119,3.119,3.119,3.119,3.119,3.119,3.1086,3.1016,3.1016,3.0542,2.9863,2.898,2.9324,2.9211,2.825,2.8528,2.8653,2.85,2.8815,2.9005,2.9005,2.9005,2.8601,2.7798,2.7669,2.7328,2.6796,2.6657,2.6657,2.6814,2.6814,2.6741,2.6602,2.6602,2.7053,2.7798,2.7651,2.7768,2.7985,2.7844,2.7474,2.7015,2.7015,2.744,2.8117,2.8785,2.9097,2.9207,2.9207,2.9299,2.9372,2.9244,2.9207,2.9189,2.9042,2.9005,2.9023,2.917,2.9717,3.0268,3.0552,3.0607,3.0809,3.147,3.2236,3.2812,3.2812,3.3343,3.3807,3.3807,3.3917,3.4234,3.4903,3.5251,3.5705,3.6413,3.6633,3.6509,3.6045,3.6082,3.5898,3.5336,3.6021,3.6415,3.6327,3.7413,3.8103,3.8229,3.9321,4.0029,4.0304,4.0836,4.1242,4.148,3.9961,3.919,3.9214,4.2166,4.3515,4.3515,4.3515,4.3515,4.3496,4.3491,4.3507,4.3507,4.3507,4.3088,4.2598,4.324,4.3515,4.3515,3.119,3.119,3.119,3.119,3.119,3.119,3.119,3.119,3.119,3.119,3.0631,3.0247,3.0247,3.0479,3.0713,3.0969,3.1371,3.0983,2.948,2.974,2.9654,2.8943,2.8977,2.9005,2.9005,2.9005,2.8601,2.7798,2.7108,2.7053,2.7622,2.6924,2.6979,2.764,2.764,2.7255,2.6602,2.6602,2.7053,2.7732,2.7043,2.7596,2.8748,2.8059,2.8169,2.8684,2.8684,2.8744,2.8858,2.8968,2.9464,3.0044,3.0044,3.0522,3.0944,3.0246,3.0044,2.9886,2.9189,2.9005,2.917,2.9874,3.011,3.0569,3.1955,3.2282,3.2316,3.2426,3.3081,3.3637,3.3637,3.3733,3.3807,3.3807,3.4385,3.4875,3.4983,3.6259,3.7217,3.7327,3.7955,3.8181,3.765,3.8002,3.7881,3.6957,3.7791,3.8122,3.7662,3.8245,3.8923,3.9601,3.9811,4.0561,4.1956,4.1405,4.1809,4.3149,4.2016,4.1216,4.0838,4.2675,4.3515,4.3515,4.3515,4.3515,4.3515,4.3496,4.3513,4.3513,4.3513,4.3423,4.3349,4.346,4.3515,4.3515,3.1537,3.1537,3.1537,3.1537,3.1537,3.1537,3.1537,3.1753,3.193,3.1923,3.1649,3.1441,3.145,3.183,3.1998,3.1758,3.2111,3.1842,3.0678,3.0357,3.0038,2.969,2.9232,2.9005,2.9005,2.9005,2.8822,2.8473,2.8106,2.8124,2.8455,2.8106,2.8124,2.8473,2.8473,2.8271,2.7941,2.7941,2.8143,2.8436,2.8072,2.8377,2.8957,2.8611,2.8695,2.9005,2.9005,2.9299,2.9666,2.9666,3.021,3.087,3.087,3.1121,3.1342,3.0962,3.087,3.0687,2.9886,3.0005,3.0328,3.0216,3.0882,3.1732,3.2428,3.2947,3.3283,3.3283,3.3545,3.393,3.4388,3.4104,3.4123,3.504,3.5087,3.5337,3.6259,3.7037,3.7676,3.812,3.8487,3.8618,3.8368,3.8563,3.8511,3.808,3.8456,3.8795,3.9004,3.9237,3.9735,4.0543,4.1001,4.157,4.2286,4.2396,4.28,4.3496,4.302,4.2656,4.2474,4.3168,4.3515,4.3515,4.3515,4.3515,4.3515,4.3515,4.3515,4.3515,4.3515,4.3515,4.3515,4.3515,4.3515,4.3515]}]]